Darstellungsparameter: Aktuell verwendete Einstellungen:
Skalierung der Graphiken ... ?
xyx+y,   Skalierungsfaktor:      Skalierung: Modus: x, Faktor: 1
Darstellungszeitraum ... ?
Vom - - bis: - -   Zeitraum: 16.10.2019 - 22.10.2019
Min/Max/Avg-Anzeige ... ?
Zeige MMA aktuell
Zeige MMA Monat
Zeige MMA alles
Zeige --A aktuell
Zeige --A Monat
Zeige --A alles
Keine MMA-Anzeige
MMA:
Average (ber die Originaldaten)
MMA-Basis: 16.10.2019 - 22.10.2019
Quicknavigation für Darstellung... ?
Tage:      1T, 2T, 3T, 5T -1T -2T -3T -5T +1T +2T +3T +5T
Wochen: 1W, 2W, 3W -1W -2W -3W +1W +2W +3W
Monate: 1M, 3M, 6M -1M -3M -6M +1M +3M +6M
Jahre:    1J, 3J, 5J, 10J -1J -3J -5J -10J +1J +3J +5J +10J
Nutze für die Darstellung ... ?
Originaldaten oder Mittelwerte auf ...
Stundenbasis Tagesbasis Wochenbasis
Monatsbasis Jahresbasis      Datenbasis: Original-Daten
Darstellen als:
Statistik (Auto) Statistik J:M      Darstellung:
Zur Graphik,    zurück zur Übersicht aller Sensoren.
 
Tabellarische Datenbersicht: ?
 
Sensor: Nr:Datum:Temp:Abs-Feuchte:Windchill:Wind:
Aussen-T/F 1 16-10-2019 00:00:00 12.3 C 10.32 g/m*3 12.3 C 4.8 km/h
2 16-10-2019 00:05:00 12.2 C 10.14 g/m*3 12.2 C 11.3 km/h
3 16-10-2019 00:10:00 12.2 C 10.25 g/m*3 12.2 C 9.7 km/h
4 16-10-2019 00:15:00 12.2 C 10.25 g/m*3 12.2 C 6.4 km/h
5 16-10-2019 00:20:00 12.2 C 10.25 g/m*3 12.2 C 1.6 km/h
6 16-10-2019 00:25:00 12.1 C 10.19 g/m*3 12.1 C 4.8 km/h
7 16-10-2019 00:30:00 12.1 C 10.19 g/m*3 12.1 C 0 km/h
8 16-10-2019 00:35:00 12.1 C 10.19 g/m*3 12.1 C 0 km/h
9 16-10-2019 00:40:00 12.1 C 10.19 g/m*3 12.1 C 0 km/h
10 16-10-2019 00:45:00 12 C 10.12 g/m*3 12 C 0 km/h
11 16-10-2019 00:50:00 11.9 C 10.06 g/m*3 11.9 C 3.2 km/h
12 16-10-2019 00:55:00 11.9 C 10.06 g/m*3 11.9 C 0 km/h
13 16-10-2019 01:00:00 11.9 C 10.06 g/m*3 11.9 C 0 km/h
14 16-10-2019 01:05:00 11.9 C 10.06 g/m*3 11.9 C 0 km/h
15 16-10-2019 01:10:00 11.9 C 10.06 g/m*3 11.9 C 0 km/h
16 16-10-2019 01:15:00 11.9 C 10.06 g/m*3 11.9 C 0 km/h
17 16-10-2019 01:20:00 11.9 C 10.17 g/m*3 11.9 C 0 km/h
18 16-10-2019 01:25:00 11.9 C 10.17 g/m*3 11.9 C 0 km/h
19 16-10-2019 01:30:00 11.8 C 10.1 g/m*3 11.8 C 0 km/h
20 16-10-2019 01:35:00 11.9 C 10.17 g/m*3 11.9 C 0 km/h
21 16-10-2019 01:40:00 11.8 C 10.1 g/m*3 11.8 C 1.6 km/h
22 16-10-2019 01:45:00 11.8 C 10.1 g/m*3 11.8 C 0 km/h
23 16-10-2019 01:50:00 11.8 C 10.1 g/m*3 11.8 C 0 km/h
24 16-10-2019 01:55:00 11.8 C 10.1 g/m*3 11.8 C 0 km/h
25 16-10-2019 02:00:00 11.8 C 10.1 g/m*3 11.8 C 0 km/h
Sensor: Nr:Datum:Temp:Abs-Feuchte:Windchill:Wind:
Aussen-T/F 26 16-10-2019 02:05:00 11.8 C 10.1 g/m*3 11.8 C 0 km/h
27 16-10-2019 02:10:00 11.8 C 10.1 g/m*3 11.8 C 0 km/h
28 16-10-2019 02:15:00 11.8 C 10.1 g/m*3 11.8 C 0 km/h
29 16-10-2019 02:20:00 11.8 C 10.1 g/m*3 11.8 C 0 km/h
30 16-10-2019 02:25:00 11.8 C 10.1 g/m*3 11.8 C 0 km/h
31 16-10-2019 02:30:00 11.8 C 10.1 g/m*3 11.8 C 0 km/h
32 16-10-2019 02:35:00 11.8 C 10.1 g/m*3 11.8 C 3.2 km/h
33 16-10-2019 02:40:00 11.8 C 10.1 g/m*3 11.8 C 0 km/h
34 16-10-2019 02:45:00 11.8 C 10.1 g/m*3 11.8 C 0 km/h
35 16-10-2019 02:50:00 11.8 C 10.1 g/m*3 11.8 C 0 km/h
36 16-10-2019 02:55:00 11.8 C 10.1 g/m*3 11.8 C 0 km/h
37 16-10-2019 03:00:00 11.8 C 10.1 g/m*3 11.8 C 0 km/h
38 16-10-2019 03:05:00 11.8 C 10.1 g/m*3 11.8 C 6.4 km/h
39 16-10-2019 03:10:00 11.8 C 10.1 g/m*3 11.8 C 0 km/h
40 16-10-2019 03:15:00 11.8 C 10.1 g/m*3 11.8 C 1.6 km/h
41 16-10-2019 03:20:00 11.8 C 10.1 g/m*3 11.8 C 1.6 km/h
42 16-10-2019 03:25:00 11.8 C 10.1 g/m*3 11.8 C 9.7 km/h
43 16-10-2019 03:30:00 11.8 C 10.1 g/m*3 11.8 C 3.2 km/h
44 16-10-2019 03:35:00 11.8 C 10.1 g/m*3 11.8 C 6.4 km/h
45 16-10-2019 03:40:00 11.8 C 10.1 g/m*3 11.8 C 1.6 km/h
46 16-10-2019 03:45:00 11.7 C 10.04 g/m*3 11.7 C 1.6 km/h
47 16-10-2019 03:50:00 11.7 C 10.04 g/m*3 11.7 C 11.3 km/h
48 16-10-2019 03:55:00 11.7 C 10.04 g/m*3 11.7 C 9.7 km/h
49 16-10-2019 04:00:00 11.7 C 10.04 g/m*3 11.7 C 9.7 km/h
50 16-10-2019 04:05:00 11.7 C 10.04 g/m*3 11.7 C 4.8 km/h
Sensor: Nr:Datum:Temp:Abs-Feuchte:Windchill:Wind:
Aussen-T/F 51 16-10-2019 04:10:00 11.7 C 10.04 g/m*3 11.7 C 0 km/h
52 16-10-2019 04:15:00 11.6 C 9.98 g/m*3 11.6 C 1.6 km/h
53 16-10-2019 04:20:00 11.6 C 9.98 g/m*3 11.6 C 3.2 km/h
54 16-10-2019 04:25:00 11.6 C 9.98 g/m*3 11.6 C 3.2 km/h
55 16-10-2019 04:30:00 11.6 C 9.98 g/m*3 11.6 C 1.6 km/h
56 16-10-2019 04:35:00 11.6 C 9.98 g/m*3 11.6 C 1.6 km/h
57 16-10-2019 04:40:00 11.6 C 9.98 g/m*3 11.6 C 0 km/h
58 16-10-2019 04:45:00 11.6 C 9.98 g/m*3 11.6 C 0 km/h
59 16-10-2019 04:50:00 11.6 C 9.98 g/m*3 11.6 C 3.2 km/h
60 16-10-2019 04:55:00 11.6 C 9.98 g/m*3 11.6 C 3.2 km/h
61 16-10-2019 05:00:00 11.6 C 9.98 g/m*3 11.6 C 3.2 km/h
62 16-10-2019 05:05:00 11.6 C 9.98 g/m*3 11.6 C 3.2 km/h
63 16-10-2019 05:10:00 11.5 C 9.92 g/m*3 11.5 C 1.6 km/h
64 16-10-2019 05:15:00 11.4 C 9.85 g/m*3 11.4 C 1.6 km/h
65 16-10-2019 05:20:00 11.4 C 9.85 g/m*3 11.4 C 0 km/h
66 16-10-2019 05:25:00 11.4 C 9.85 g/m*3 11.4 C 0 km/h
67 16-10-2019 05:30:00 11.4 C 9.85 g/m*3 11.4 C 1.6 km/h
68 16-10-2019 05:35:00 11.4 C 9.85 g/m*3 11.4 C 1.6 km/h
69 16-10-2019 05:40:00 11.4 C 9.85 g/m*3 11.4 C 0 km/h
70 16-10-2019 05:45:00 11.4 C 9.85 g/m*3 11.4 C 0 km/h
71 16-10-2019 05:50:00 11.3 C 9.79 g/m*3 11.3 C 1.6 km/h
72 16-10-2019 05:55:00 11.3 C 9.79 g/m*3 11.3 C 1.6 km/h
73 16-10-2019 06:00:00 11.3 C 9.79 g/m*3 11.3 C 8.1 km/h
74 16-10-2019 06:05:00 11.3 C 9.79 g/m*3 11.3 C 11.3 km/h
75 16-10-2019 06:10:00 11.2 C 9.73 g/m*3 11.2 C 1.6 km/h
Sensor: Nr:Datum:Temp:Abs-Feuchte:Windchill:Wind:
Aussen-T/F 76 16-10-2019 06:15:00 11.1 C 9.57 g/m*3 11.1 C 6.4 km/h
77 16-10-2019 06:20:00 11.1 C 9.57 g/m*3 11.1 C 1.6 km/h
78 16-10-2019 06:25:00 11.1 C 9.57 g/m*3 11.1 C 4.8 km/h
79 16-10-2019 06:30:00 11.1 C 9.57 g/m*3 11.1 C 6.4 km/h
80 16-10-2019 06:35:00 11 C 9.51 g/m*3 10.52 C 6.4 km/h
81 16-10-2019 06:40:00 11.1 C 9.57 g/m*3 11.1 C 9.7 km/h
82 16-10-2019 06:45:00 11.2 C 9.63 g/m*3 11.2 C 9.7 km/h
83 16-10-2019 06:50:00 11.3 C 9.59 g/m*3 11.3 C 11.3 km/h
84 16-10-2019 06:55:00 11.4 C 9.65 g/m*3 11.4 C 6.4 km/h
85 16-10-2019 07:00:00 11.4 C 9.65 g/m*3 11.4 C 3.2 km/h
86 16-10-2019 07:05:00 11.4 C 9.65 g/m*3 11.4 C 1.6 km/h
87 16-10-2019 07:10:00 11.3 C 9.59 g/m*3 11.3 C 3.2 km/h
88 16-10-2019 07:15:00 11.2 C 9.53 g/m*3 11.2 C 0 km/h
89 16-10-2019 07:20:00 11.1 C 9.37 g/m*3 11.1 C 1.6 km/h
90 16-10-2019 07:25:00 10.9 C 9.35 g/m*3 10.9 C 0 km/h
91 16-10-2019 07:30:00 10.8 C 9.29 g/m*3 10.8 C 1.6 km/h
92 16-10-2019 07:35:00 10.8 C 9.29 g/m*3 10.8 C 3.2 km/h
93 16-10-2019 07:40:00 10.7 C 9.23 g/m*3 10.7 C 4.8 km/h
94 16-10-2019 07:45:00 10.7 C 9.23 g/m*3 10.7 C 3.2 km/h
95 16-10-2019 07:50:00 10.6 C 9.17 g/m*3 10.6 C 3.2 km/h
96 16-10-2019 07:55:00 10.6 C 9.17 g/m*3 10.6 C 1.6 km/h
97 16-10-2019 08:00:00 10.6 C 9.17 g/m*3 9.69 C 8.1 km/h
98 16-10-2019 08:05:00 10.7 C 9.23 g/m*3 10.7 C 4.8 km/h
99 16-10-2019 08:10:00 10.7 C 9.23 g/m*3 9.52 C 9.7 km/h
100 16-10-2019 08:15:00 10.7 C 9.23 g/m*3 10.7 C 1.6 km/h
Sensor: Nr:Datum:Temp:Abs-Feuchte:Windchill:Wind:
Aussen-T/F 101 16-10-2019 08:20:00 10.6 C 9.17 g/m*3 10.6 C 0 km/h
102 16-10-2019 08:25:00 10.6 C 9.17 g/m*3 10.06 C 6.4 km/h
103 16-10-2019 08:30:00 10.7 C 9.23 g/m*3 10.7 C 1.6 km/h
104 16-10-2019 08:35:00 10.7 C 9.23 g/m*3 10.7 C 0 km/h
105 16-10-2019 08:40:00 10.7 C 9.23 g/m*3 10.7 C 0 km/h
106 16-10-2019 08:45:00 10.6 C 9.17 g/m*3 10.6 C 0 km/h
107 16-10-2019 08:50:00 10.6 C 9.17 g/m*3 10.6 C 1.6 km/h
108 16-10-2019 08:55:00 10.6 C 9.17 g/m*3 10.6 C 0 km/h
109 16-10-2019 09:00:00 10.6 C 9.17 g/m*3 10.6 C 3.2 km/h
110 16-10-2019 09:05:00 10.6 C 9.17 g/m*3 10.6 C 0 km/h
111 16-10-2019 09:10:00 10.6 C 9.17 g/m*3 10.6 C 0 km/h
112 16-10-2019 09:15:00 10.6 C 9.17 g/m*3 10.6 C 0 km/h
113 16-10-2019 09:20:00 10.6 C 9.27 g/m*3 10.6 C 1.6 km/h
114 16-10-2019 09:25:00 10.7 C 9.33 g/m*3 10.7 C 0 km/h
115 16-10-2019 09:30:00 10.8 C 9.49 g/m*3 10.8 C 4.8 km/h
116 16-10-2019 09:35:00 11.1 C 9.57 g/m*3 11.1 C 3.2 km/h
117 16-10-2019 09:40:00 11.2 C 9.63 g/m*3 11.2 C 0 km/h
118 16-10-2019 09:45:00 11.3 C 9.69 g/m*3 11.3 C 1.6 km/h
119 16-10-2019 09:50:00 11.4 C 9.75 g/m*3 11.4 C 4.8 km/h
120 16-10-2019 09:55:00 11.6 C 9.87 g/m*3 11.6 C 0 km/h
121 16-10-2019 10:00:00 11.8 C 9.89 g/m*3 11.8 C 6.4 km/h
122 16-10-2019 10:05:00 11.9 C 9.85 g/m*3 11.9 C 6.4 km/h
123 16-10-2019 10:10:00 12.1 C 9.97 g/m*3 12.1 C 1.6 km/h
124 16-10-2019 10:15:00 12.2 C 10.04 g/m*3 12.2 C 1.6 km/h
125 16-10-2019 10:20:00 12.3 C 9.99 g/m*3 12.3 C 3.2 km/h
Sensor: Nr:Datum:Temp:Abs-Feuchte:Windchill:Wind:
Aussen-T/F 126 16-10-2019 10:25:00 12.3 C 9.88 g/m*3 12.3 C 3.2 km/h
127 16-10-2019 10:30:00 12.4 C 9.83 g/m*3 12.4 C 3.2 km/h
128 16-10-2019 10:35:00 12.6 C 9.96 g/m*3 12.6 C 1.6 km/h
129 16-10-2019 10:40:00 12.7 C 10.02 g/m*3 12.7 C 1.6 km/h
130 16-10-2019 10:45:00 12.8 C 10.08 g/m*3 12.8 C 3.2 km/h
131 16-10-2019 10:50:00 13 C 10.21 g/m*3 13 C 1.6 km/h
132 16-10-2019 10:55:00 13.2 C 10.1 g/m*3 13.2 C 4.8 km/h
133 16-10-2019 11:00:00 13.3 C 10.17 g/m*3 13.3 C 6.4 km/h
134 16-10-2019 11:05:00 13.4 C 10.11 g/m*3 13.4 C 3.2 km/h
135 16-10-2019 11:10:00 13.5 C 10.18 g/m*3 13.5 C 1.6 km/h
136 16-10-2019 11:15:00 13.6 C 10.24 g/m*3 13.6 C 1.6 km/h
137 16-10-2019 11:20:00 13.7 C 10.3 g/m*3 13.7 C 1.6 km/h
138 16-10-2019 11:25:00 13.8 C 10.37 g/m*3 13.8 C 6.4 km/h
139 16-10-2019 11:30:00 13.8 C 10.25 g/m*3 13.8 C 3.2 km/h
140 16-10-2019 11:35:00 13.9 C 10.43 g/m*3 13.9 C 6.4 km/h
141 16-10-2019 11:40:00 13.9 C 10.31 g/m*3 13.9 C 9.7 km/h
142 16-10-2019 11:45:00 14.1 C 10.44 g/m*3 14.1 C 8.1 km/h
143 16-10-2019 11:50:00 14.2 C 10.38 g/m*3 14.2 C 11.3 km/h
144 16-10-2019 11:55:00 14.3 C 10.32 g/m*3 14.3 C 11.3 km/h
145 16-10-2019 12:00:00 14.3 C 10.32 g/m*3 14.3 C 8.1 km/h
146 16-10-2019 12:05:00 14.4 C 10.38 g/m*3 14.4 C 8.1 km/h
147 16-10-2019 12:10:00 14.4 C 10.38 g/m*3 14.4 C 6.4 km/h
148 16-10-2019 12:15:00 14.6 C 10.51 g/m*3 14.6 C 8.1 km/h
149 16-10-2019 12:20:00 14.6 C 10.51 g/m*3 14.6 C 1.6 km/h
150 16-10-2019 12:25:00 14.7 C 10.45 g/m*3 14.7 C 8.1 km/h
Sensor: Nr:Datum:Temp:Abs-Feuchte:Windchill:Wind:
Aussen-T/F 151 16-10-2019 12:30:00 14.7 C 10.45 g/m*3 14.7 C 9.7 km/h
152 16-10-2019 12:35:00 14.7 C 10.7 g/m*3 14.7 C 4.8 km/h
153 16-10-2019 12:40:00 14.6 C 10.64 g/m*3 14.6 C 4.8 km/h
154 16-10-2019 12:45:00 14.6 C 10.51 g/m*3 14.6 C 6.4 km/h
155 16-10-2019 12:50:00 14.5 C 10.7 g/m*3 14.5 C 1.6 km/h
156 16-10-2019 12:55:00 14.5 C 10.94 g/m*3 14.5 C 0 km/h
157 16-10-2019 13:00:00 14.4 C 10.88 g/m*3 14.4 C 0 km/h
158 16-10-2019 13:05:00 14.4 C 11 g/m*3 14.4 C 0 km/h
159 16-10-2019 13:10:00 14.3 C 11.06 g/m*3 14.3 C 0 km/h
160 16-10-2019 13:15:00 14.2 C 11.11 g/m*3 14.2 C 0 km/h
161 16-10-2019 13:20:00 14.2 C 11.11 g/m*3 14.2 C 1.6 km/h
162 16-10-2019 13:25:00 14.1 C 11.17 g/m*3 14.1 C 0 km/h
163 16-10-2019 13:30:00 14 C 10.98 g/m*3 14 C 1.6 km/h
164 16-10-2019 13:35:00 13.9 C 11.03 g/m*3 13.9 C 0 km/h
165 16-10-2019 13:40:00 13.9 C 11.03 g/m*3 13.9 C 0 km/h
166 16-10-2019 13:45:00 13.9 C 11.15 g/m*3 13.9 C 0 km/h
167 16-10-2019 13:50:00 13.9 C 11.15 g/m*3 13.9 C 0 km/h
168 16-10-2019 13:55:00 13.8 C 10.96 g/m*3 13.8 C 3.2 km/h
169 16-10-2019 14:00:00 13.7 C 11.01 g/m*3 13.7 C 1.6 km/h
170 16-10-2019 14:05:00 13.7 C 11.01 g/m*3 13.7 C 3.2 km/h
171 16-10-2019 14:10:00 13.6 C 10.95 g/m*3 13.6 C 0 km/h
172 16-10-2019 14:15:00 13.6 C 11.06 g/m*3 13.6 C 1.6 km/h
173 16-10-2019 14:20:00 13.5 C 10.99 g/m*3 13.5 C 1.6 km/h
174 16-10-2019 14:25:00 13.4 C 10.93 g/m*3 13.4 C 3.2 km/h
175 16-10-2019 14:30:00 13.4 C 10.93 g/m*3 13.4 C 1.6 km/h
Sensor: Nr:Datum:Temp:Abs-Feuchte:Windchill:Wind:
Aussen-T/F 176 16-10-2019 14:35:00 13.5 C 11.11 g/m*3 13.5 C 1.6 km/h
177 16-10-2019 14:40:00 13.4 C 11.04 g/m*3 13.4 C 0 km/h
178 16-10-2019 14:45:00 13.4 C 10.93 g/m*3 13.4 C 1.6 km/h
179 16-10-2019 14:50:00 13.5 C 11.11 g/m*3 13.5 C 1.6 km/h
180 16-10-2019 14:55:00 13.5 C 11.11 g/m*3 13.5 C 9.7 km/h
181 16-10-2019 15:00:00 13.6 C 11.18 g/m*3 13.6 C 0 km/h
182 16-10-2019 15:05:00 13.7 C 11.25 g/m*3 13.7 C 3.2 km/h
183 16-10-2019 15:10:00 13.8 C 11.32 g/m*3 13.8 C 4.8 km/h
184 16-10-2019 15:15:00 13.8 C 11.32 g/m*3 13.8 C 3.2 km/h
185 16-10-2019 15:20:00 13.9 C 11.39 g/m*3 13.9 C 0 km/h
186 16-10-2019 15:25:00 13.9 C 11.39 g/m*3 13.9 C 1.6 km/h
187 16-10-2019 15:30:00 13.9 C 11.39 g/m*3 13.9 C 3.2 km/h
188 16-10-2019 15:35:00 14 C 11.34 g/m*3 14 C 1.6 km/h
189 16-10-2019 15:40:00 14.1 C 11.53 g/m*3 14.1 C 1.6 km/h
190 16-10-2019 15:45:00 14.1 C 11.41 g/m*3 14.1 C 1.6 km/h
191 16-10-2019 15:50:00 14.1 C 11.53 g/m*3 14.1 C 0 km/h
192 16-10-2019 15:55:00 14.1 C 11.41 g/m*3 14.1 C 0 km/h
193 16-10-2019 16:00:00 14.1 C 11.41 g/m*3 14.1 C 0 km/h
194 16-10-2019 16:05:00 14.1 C 11.41 g/m*3 14.1 C 3.2 km/h
195 16-10-2019 16:10:00 14.1 C 11.41 g/m*3 14.1 C 4.8 km/h
196 16-10-2019 16:15:00 14.1 C 11.41 g/m*3 14.1 C 6.4 km/h
197 16-10-2019 16:20:00 14.2 C 11.6 g/m*3 14.2 C 0 km/h
198 16-10-2019 16:25:00 14.4 C 11.74 g/m*3 14.4 C 1.6 km/h
199 16-10-2019 16:30:00 14.6 C 11.89 g/m*3 14.6 C 0 km/h
200 16-10-2019 16:35:00 14.6 C 11.76 g/m*3 14.6 C 3.2 km/h
Sensor: Nr:Datum:Temp:Abs-Feuchte:Windchill:Wind:
Aussen-T/F 201 16-10-2019 16:40:00 14.4 C 11.5 g/m*3 14.4 C 6.4 km/h
202 16-10-2019 16:45:00 14.4 C 11.62 g/m*3 14.4 C 0 km/h
203 16-10-2019 16:50:00 14.5 C 11.69 g/m*3 14.5 C 0 km/h
204 16-10-2019 16:55:00 14.6 C 11.76 g/m*3 14.6 C 3.2 km/h
205 16-10-2019 17:00:00 14.6 C 11.76 g/m*3 14.6 C 0 km/h
206 16-10-2019 17:05:00 14.5 C 11.69 g/m*3 14.5 C 3.2 km/h
207 16-10-2019 17:10:00 14.4 C 11.62 g/m*3 14.4 C 0 km/h
208 16-10-2019 17:15:00 14.4 C 11.62 g/m*3 14.4 C 0 km/h
209 16-10-2019 17:20:00 14.4 C 11.62 g/m*3 14.4 C 0 km/h
210 16-10-2019 17:25:00 14.3 C 11.55 g/m*3 14.3 C 0 km/h
211 16-10-2019 17:30:00 14.3 C 11.67 g/m*3 14.3 C 0 km/h
212 16-10-2019 17:35:00 14.3 C 11.67 g/m*3 14.3 C 0 km/h
213 16-10-2019 17:40:00 14.3 C 11.67 g/m*3 14.3 C 0 km/h
214 16-10-2019 17:45:00 14.3 C 11.67 g/m*3 14.3 C 0 km/h
215 16-10-2019 17:50:00 14.3 C 11.67 g/m*3 14.3 C 0 km/h
216 16-10-2019 17:55:00 14.3 C 11.67 g/m*3 14.3 C 0 km/h
217 16-10-2019 18:00:00 14.3 C 11.67 g/m*3 14.3 C 0 km/h
218 16-10-2019 18:05:00 14.2 C 11.6 g/m*3 14.2 C 0 km/h
219 16-10-2019 18:10:00 14.1 C 11.53 g/m*3 14.1 C 0 km/h
220 16-10-2019 18:15:00 14.1 C 11.53 g/m*3 14.1 C 1.6 km/h
221 16-10-2019 18:20:00 13.9 C 11.39 g/m*3 13.9 C 0 km/h
222 16-10-2019 18:25:00 13.9 C 11.39 g/m*3 13.9 C 0 km/h
223 16-10-2019 18:30:00 13.8 C 11.32 g/m*3 13.8 C 0 km/h
224 16-10-2019 18:35:00 13.8 C 11.32 g/m*3 13.8 C 0 km/h
225 16-10-2019 18:40:00 13.7 C 11.25 g/m*3 13.7 C 0 km/h
Sensor: Nr:Datum:Temp:Abs-Feuchte:Windchill:Wind:
Aussen-T/F 226 16-10-2019 18:45:00 13.7 C 11.25 g/m*3 13.7 C 0 km/h
227 16-10-2019 18:50:00 13.7 C 11.25 g/m*3 13.7 C 0 km/h
228 16-10-2019 18:55:00 13.7 C 11.25 g/m*3 13.7 C 0 km/h
229 16-10-2019 19:00:00 13.6 C 11.3 g/m*3 13.6 C 0 km/h
230 16-10-2019 19:05:00 13.6 C 11.3 g/m*3 13.6 C 0 km/h
231 16-10-2019 19:10:00 13.6 C 11.3 g/m*3 13.6 C 0 km/h
232 16-10-2019 19:15:00 13.6 C 11.3 g/m*3 13.6 C 0 km/h
233 16-10-2019 19:20:00 13.6 C 11.3 g/m*3 13.6 C 0 km/h
234 16-10-2019 19:25:00 13.6 C 11.3 g/m*3 13.6 C 0 km/h
235 16-10-2019 19:30:00 13.5 C 11.23 g/m*3 13.5 C 0 km/h
236 16-10-2019 19:35:00 13.5 C 11.23 g/m*3 13.5 C 0 km/h
237 16-10-2019 19:40:00 13.5 C 11.23 g/m*3 13.5 C 0 km/h
238 16-10-2019 19:45:00 13.5 C 11.23 g/m*3 13.5 C 0 km/h
239 16-10-2019 19:50:00 13.4 C 11.16 g/m*3 13.4 C 0 km/h
240 16-10-2019 19:55:00 13.4 C 11.16 g/m*3 13.4 C 0 km/h
241 16-10-2019 20:00:00 13.4 C 11.16 g/m*3 13.4 C 0 km/h
242 16-10-2019 20:05:00 13.4 C 11.16 g/m*3 13.4 C 0 km/h
243 16-10-2019 20:10:00 13.4 C 11.16 g/m*3 13.4 C 1.6 km/h
244 16-10-2019 20:15:00 13.4 C 11.16 g/m*3 13.4 C 0 km/h
245 16-10-2019 20:20:00 13.3 C 11.09 g/m*3 13.3 C 1.6 km/h
246 16-10-2019 20:25:00 13.3 C 11.09 g/m*3 13.3 C 0 km/h
247 16-10-2019 20:30:00 13.2 C 11.02 g/m*3 13.2 C 0 km/h
248 16-10-2019 20:35:00 13.2 C 11.02 g/m*3 13.2 C 0 km/h
249 16-10-2019 20:40:00 13.2 C 11.02 g/m*3 13.2 C 0 km/h
250 16-10-2019 20:45:00 13.1 C 10.95 g/m*3 13.1 C 0 km/h
Sensor: Nr:Datum:Temp:Abs-Feuchte:Windchill:Wind:
Aussen-T/F 251 16-10-2019 20:50:00 13.1 C 10.95 g/m*3 13.1 C 0 km/h
252 16-10-2019 20:55:00 13 C 10.89 g/m*3 13 C 0 km/h
253 16-10-2019 21:00:00 12.9 C 10.82 g/m*3 12.9 C 1.6 km/h
254 16-10-2019 21:05:00 12.9 C 10.82 g/m*3 12.9 C 0 km/h
255 16-10-2019 21:10:00 12.9 C 10.82 g/m*3 12.9 C 0 km/h
256 16-10-2019 21:15:00 12.8 C 10.75 g/m*3 12.8 C 0 km/h
257 16-10-2019 21:20:00 12.8 C 10.75 g/m*3 12.8 C 0 km/h
258 16-10-2019 21:25:00 12.7 C 10.69 g/m*3 12.7 C 0 km/h
259 16-10-2019 21:30:00 12.7 C 10.69 g/m*3 12.7 C 0 km/h
260 16-10-2019 21:35:00 12.6 C 10.62 g/m*3 12.6 C 0 km/h
261 16-10-2019 21:40:00 12.6 C 10.62 g/m*3 12.6 C 0 km/h
262 16-10-2019 21:45:00 12.5 C 10.55 g/m*3 12.5 C 1.6 km/h
263 16-10-2019 21:50:00 12.6 C 10.62 g/m*3 12.6 C 0 km/h
264 16-10-2019 21:55:00 12.6 C 10.62 g/m*3 12.6 C 0 km/h
265 16-10-2019 22:00:00 12.6 C 10.62 g/m*3 12.6 C 1.6 km/h
266 16-10-2019 22:05:00 12.6 C 10.62 g/m*3 12.6 C 1.6 km/h
267 16-10-2019 22:10:00 12.6 C 10.62 g/m*3 12.6 C 0 km/h
268 16-10-2019 22:15:00 12.6 C 10.62 g/m*3 12.6 C 0 km/h
269 16-10-2019 22:20:00 12.6 C 10.62 g/m*3 12.6 C 0 km/h
270 16-10-2019 22:25:00 12.6 C 10.62 g/m*3 12.6 C 0 km/h
271 16-10-2019 22:30:00 12.6 C 10.62 g/m*3 12.6 C 0 km/h
272 16-10-2019 22:35:00 12.6 C 10.62 g/m*3 12.6 C 0 km/h
273 16-10-2019 22:40:00 12.5 C 10.55 g/m*3 12.5 C 0 km/h
274 16-10-2019 22:45:00 12.5 C 10.55 g/m*3 12.5 C 0 km/h
275 16-10-2019 22:50:00 12.5 C 10.55 g/m*3 12.5 C 0 km/h
Sensor: Nr:Datum:Temp:Abs-Feuchte:Windchill:Wind:
Aussen-T/F 276 16-10-2019 22:55:00 12.4 C 10.49 g/m*3 12.4 C 0 km/h
277 16-10-2019 23:00:00 12.4 C 10.49 g/m*3 12.4 C 0 km/h
278 16-10-2019 23:05:00 12.4 C 10.49 g/m*3 12.4 C 0 km/h
279 16-10-2019 23:10:00 12.4 C 10.49 g/m*3 12.4 C 0 km/h
280 16-10-2019 23:15:00 12.4 C 10.49 g/m*3 12.4 C 0 km/h
281 16-10-2019 23:20:00 12.4 C 10.6 g/m*3 12.4 C 0 km/h
282 16-10-2019 23:25:00 12.4 C 10.49 g/m*3 12.4 C 0 km/h
283 16-10-2019 23:30:00 12.4 C 10.6 g/m*3 12.4 C 0 km/h
284 16-10-2019 23:35:00 12.4 C 10.6 g/m*3 12.4 C 0 km/h
285 16-10-2019 23:40:00 12.4 C 10.6 g/m*3 12.4 C 0 km/h
286 16-10-2019 23:45:00 12.4 C 10.6 g/m*3 12.4 C 6.4 km/h
287 16-10-2019 23:50:00 12.4 C 10.49 g/m*3 12.4 C 1.6 km/h
288 16-10-2019 23:55:00 12.4 C 10.49 g/m*3 12.4 C 0 km/h
289 17-10-2019 00:00:00 12.5 C 10.55 g/m*3 12.5 C 1.6 km/h
290 17-10-2019 00:05:00 12.5 C 10.55 g/m*3 12.5 C 1.6 km/h
291 17-10-2019 00:10:00 12.6 C 10.62 g/m*3 12.6 C 0 km/h
292 17-10-2019 00:15:00 12.6 C 10.62 g/m*3 12.6 C 0 km/h
293 17-10-2019 00:20:00 12.6 C 10.62 g/m*3 12.6 C 0 km/h
294 17-10-2019 00:25:00 12.7 C 10.69 g/m*3 12.7 C 0 km/h
295 17-10-2019 00:30:00 12.7 C 10.69 g/m*3 12.7 C 0 km/h
296 17-10-2019 00:35:00 12.7 C 10.69 g/m*3 12.7 C 0 km/h
297 17-10-2019 00:40:00 12.7 C 10.69 g/m*3 12.7 C 0 km/h
298 17-10-2019 00:45:00 12.7 C 10.69 g/m*3 12.7 C 0 km/h
299 17-10-2019 00:50:00 12.7 C 10.69 g/m*3 12.7 C 0 km/h
300 17-10-2019 00:55:00 12.7 C 10.69 g/m*3 12.7 C 0 km/h
Sensor: Nr:Datum:Temp:Abs-Feuchte:Windchill:Wind:
Aussen-T/F 301 17-10-2019 01:00:00 12.7 C 10.69 g/m*3 12.7 C 0 km/h
302 17-10-2019 01:05:00 12.7 C 10.69 g/m*3 12.7 C 0 km/h
303 17-10-2019 01:10:00 12.7 C 10.69 g/m*3 12.7 C 1.6 km/h
304 17-10-2019 01:15:00 12.7 C 10.69 g/m*3 12.7 C 1.6 km/h
305 17-10-2019 01:20:00 12.7 C 10.69 g/m*3 12.7 C 0 km/h
306 17-10-2019 01:25:00 12.7 C 10.69 g/m*3 12.7 C 0 km/h
307 17-10-2019 01:30:00 12.7 C 10.69 g/m*3 12.7 C 0 km/h
308 17-10-2019 01:35:00 12.7 C 10.69 g/m*3 12.7 C 0 km/h
309 17-10-2019 01:40:00 12.6 C 10.62 g/m*3 12.6 C 0 km/h
310 17-10-2019 01:45:00 12.5 C 10.55 g/m*3 12.5 C 0 km/h
311 17-10-2019 01:50:00 12.4 C 10.49 g/m*3 12.4 C 0 km/h
312 17-10-2019 01:55:00 12.3 C 10.42 g/m*3 12.3 C 0 km/h
313 17-10-2019 02:00:00 12.2 C 10.36 g/m*3 12.2 C 0 km/h
314 17-10-2019 02:05:00 12.2 C 10.36 g/m*3 12.2 C 0 km/h
315 17-10-2019 02:10:00 12.2 C 10.36 g/m*3 12.2 C 0 km/h
316 17-10-2019 02:15:00 12.3 C 10.42 g/m*3 12.3 C 0 km/h
317 17-10-2019 02:20:00 12.3 C 10.42 g/m*3 12.3 C 1.6 km/h
318 17-10-2019 02:25:00 12.3 C 10.42 g/m*3 12.3 C 1.6 km/h
319 17-10-2019 02:30:00 12.3 C 10.42 g/m*3 12.3 C 0 km/h
320 17-10-2019 02:35:00 12.4 C 10.49 g/m*3 12.4 C 0 km/h
321 17-10-2019 02:40:00 12.5 C 10.55 g/m*3 12.5 C 0 km/h
322 17-10-2019 02:45:00 12.6 C 10.62 g/m*3 12.6 C 0 km/h
323 17-10-2019 02:50:00 12.6 C 10.62 g/m*3 12.6 C 0 km/h
324 17-10-2019 02:55:00 12.6 C 10.62 g/m*3 12.6 C 0 km/h
325 17-10-2019 03:00:00 12.7 C 10.69 g/m*3 12.7 C 1.6 km/h
Sensor: Nr:Datum:Temp:Abs-Feuchte:Windchill:Wind:
Aussen-T/F 326 17-10-2019 03:05:00 12.7 C 10.69 g/m*3 12.7 C 0 km/h
327 17-10-2019 03:10:00 12.7 C 10.69 g/m*3 12.7 C 0 km/h
328 17-10-2019 03:15:00 12.7 C 10.69 g/m*3 12.7 C 0 km/h
329 17-10-2019 03:20:00 12.7 C 10.69 g/m*3 12.7 C 0 km/h
330 17-10-2019 03:25:00 12.7 C 10.69 g/m*3 12.7 C 0 km/h
331 17-10-2019 03:30:00 12.7 C 10.69 g/m*3 12.7 C 0 km/h
332 17-10-2019 03:35:00 12.7 C 10.58 g/m*3 12.7 C 0 km/h
333 17-10-2019 03:40:00 12.7 C 10.58 g/m*3 12.7 C 3.2 km/h
334 17-10-2019 03:45:00 12.9 C 10.71 g/m*3 12.9 C 3.2 km/h
335 17-10-2019 03:50:00 12.9 C 10.71 g/m*3 12.9 C 4.8 km/h
336 17-10-2019 03:55:00 13.1 C 10.73 g/m*3 13.1 C 1.6 km/h
337 17-10-2019 04:00:00 13.1 C 10.73 g/m*3 13.1 C 0 km/h
338 17-10-2019 04:05:00 13.3 C 10.74 g/m*3 13.3 C 1.6 km/h
339 17-10-2019 04:10:00 13.4 C 10.81 g/m*3 13.4 C 1.6 km/h
340 17-10-2019 04:15:00 13.5 C 10.88 g/m*3 13.5 C 1.6 km/h
341 17-10-2019 04:20:00 13.6 C 10.95 g/m*3 13.6 C 0 km/h
342 17-10-2019 04:25:00 13.5 C 10.88 g/m*3 13.5 C 1.6 km/h
343 17-10-2019 04:30:00 13.6 C 10.83 g/m*3 13.6 C 4.8 km/h
344 17-10-2019 04:35:00 13.7 C 10.89 g/m*3 13.7 C 0 km/h
345 17-10-2019 04:40:00 13.7 C 10.89 g/m*3 13.7 C 1.6 km/h
346 17-10-2019 04:45:00 13.8 C 10.96 g/m*3 13.8 C 0 km/h
347 17-10-2019 04:50:00 13.8 C 10.96 g/m*3 13.8 C 3.2 km/h
348 17-10-2019 04:55:00 13.9 C 10.79 g/m*3 13.9 C 3.2 km/h
349 17-10-2019 05:00:00 14 C 10.98 g/m*3 14 C 0 km/h
350 17-10-2019 05:05:00 14 C 10.98 g/m*3 14 C 0 km/h
Sensor: Nr:Datum:Temp:Abs-Feuchte:Windchill:Wind:
Aussen-T/F 351 17-10-2019 05:10:00 14 C 10.86 g/m*3 14 C 0 km/h
352 17-10-2019 05:15:00 14.1 C 10.92 g/m*3 14.1 C 3.2 km/h
353 17-10-2019 05:20:00 14.1 C 10.92 g/m*3 14.1 C 6.4 km/h
354 17-10-2019 05:25:00 14.2 C 10.87 g/m*3 14.2 C 6.4 km/h
355 17-10-2019 05:30:00 14.3 C 10.93 g/m*3 14.3 C 6.4 km/h
356 17-10-2019 05:35:00 14.3 C 10.93 g/m*3 14.3 C 8.1 km/h
357 17-10-2019 05:40:00 14.3 C 10.81 g/m*3 14.3 C 1.6 km/h
358 17-10-2019 05:45:00 14.3 C 10.93 g/m*3 14.3 C 0 km/h
359 17-10-2019 05:50:00 14.3 C 10.81 g/m*3 14.3 C 3.2 km/h
360 17-10-2019 05:55:00 14.4 C 10.88 g/m*3 14.4 C 3.2 km/h
361 17-10-2019 06:00:00 14.4 C 11 g/m*3 14.4 C 1.6 km/h
362 17-10-2019 06:05:00 14.3 C 10.81 g/m*3 14.3 C 3.2 km/h
363 17-10-2019 06:10:00 14.3 C 10.93 g/m*3 14.3 C 3.2 km/h
364 17-10-2019 06:15:00 14.2 C 10.87 g/m*3 14.2 C 3.2 km/h
365 17-10-2019 06:20:00 14.2 C 10.87 g/m*3 14.2 C 3.2 km/h
366 17-10-2019 06:25:00 14.2 C 10.87 g/m*3 14.2 C 6.4 km/h
367 17-10-2019 06:30:00 14.2 C 10.87 g/m*3 14.2 C 3.2 km/h
368 17-10-2019 06:35:00 14.2 C 10.87 g/m*3 14.2 C 3.2 km/h
369 17-10-2019 06:40:00 14.2 C 10.87 g/m*3 14.2 C 3.2 km/h
370 17-10-2019 06:45:00 14.2 C 10.87 g/m*3 14.2 C 9.7 km/h
371 17-10-2019 06:50:00 14.2 C 10.87 g/m*3 14.2 C 6.4 km/h
372 17-10-2019 06:55:00 14.2 C 10.87 g/m*3 14.2 C 1.6 km/h
373 17-10-2019 07:00:00 14.2 C 10.87 g/m*3 14.2 C 1.6 km/h
374 17-10-2019 07:05:00 14.2 C 10.87 g/m*3 14.2 C 3.2 km/h
375 17-10-2019 07:10:00 14.2 C 10.87 g/m*3 14.2 C 1.6 km/h
Sensor: Nr:Datum:Temp:Abs-Feuchte:Windchill:Wind:
Aussen-T/F 376 17-10-2019 07:15:00 14.2 C 10.87 g/m*3 14.2 C 1.6 km/h
377 17-10-2019 07:20:00 14.3 C 11.06 g/m*3 14.3 C 8.1 km/h
378 17-10-2019 07:25:00 14.3 C 11.06 g/m*3 14.3 C 1.6 km/h
379 17-10-2019 07:30:00 14.3 C 11.06 g/m*3 14.3 C 0 km/h
380 17-10-2019 07:35:00 14.2 C 10.99 g/m*3 14.2 C 1.6 km/h
381 17-10-2019 07:40:00 14.2 C 10.99 g/m*3 14.2 C 1.6 km/h
382 17-10-2019 07:45:00 14.2 C 10.99 g/m*3 14.2 C 8.1 km/h
383 17-10-2019 07:50:00 14.3 C 11.06 g/m*3 14.3 C 3.2 km/h
384 17-10-2019 07:55:00 14.3 C 10.93 g/m*3 14.3 C 0 km/h
385 17-10-2019 08:00:00 14.2 C 10.87 g/m*3 14.2 C 1.6 km/h
386 17-10-2019 08:05:00 14.2 C 10.87 g/m*3 14.2 C 0 km/h
387 17-10-2019 08:10:00 14.2 C 10.87 g/m*3 14.2 C 0 km/h
388 17-10-2019 08:15:00 14.2 C 10.99 g/m*3 14.2 C 0 km/h
389 17-10-2019 08:20:00 14.2 C 10.99 g/m*3 14.2 C 4.8 km/h
390 17-10-2019 08:25:00 14.2 C 10.99 g/m*3 14.2 C 6.4 km/h
391 17-10-2019 08:30:00 14.5 C 10.94 g/m*3 14.5 C 12.9 km/h
392 17-10-2019 08:35:00 14.8 C 10.89 g/m*3 14.8 C 9.7 km/h
393 17-10-2019 08:40:00 15 C 11.03 g/m*3 15 C 12.9 km/h
394 17-10-2019 08:45:00 15.1 C 10.97 g/m*3 15.1 C 11.3 km/h
395 17-10-2019 08:50:00 15.2 C 11.03 g/m*3 15.2 C 9.7 km/h
396 17-10-2019 08:55:00 15.2 C 11.03 g/m*3 15.2 C 12.9 km/h
397 17-10-2019 09:00:00 15.3 C 11.1 g/m*3 15.3 C 9.7 km/h
398 17-10-2019 09:05:00 15.3 C 11.1 g/m*3 15.3 C 11.3 km/h
399 17-10-2019 09:10:00 15.3 C 11.1 g/m*3 15.3 C 6.4 km/h
400 17-10-2019 09:15:00 15.3 C 11.1 g/m*3 15.3 C 8.1 km/h
Sensor: Nr:Datum:Temp:Abs-Feuchte:Windchill:Wind:
Aussen-T/F 401 17-10-2019 09:20:00 15.3 C 11.1 g/m*3 15.3 C 4.8 km/h
402 17-10-2019 09:25:00 15.3 C 10.97 g/m*3 15.3 C 8.1 km/h
403 17-10-2019 09:30:00 15.4 C 11.17 g/m*3 15.4 C 9.7 km/h
404 17-10-2019 09:35:00 15.4 C 11.17 g/m*3 15.4 C 8.1 km/h
405 17-10-2019 09:40:00 15.4 C 11.17 g/m*3 15.4 C 6.4 km/h
406 17-10-2019 09:45:00 15.4 C 11.04 g/m*3 15.4 C 11.3 km/h
407 17-10-2019 09:50:00 15.5 C 11.24 g/m*3 15.5 C 3.2 km/h
408 17-10-2019 09:55:00 15.5 C 11.24 g/m*3 15.5 C 1.6 km/h
409 17-10-2019 10:00:00 15.4 C 11.04 g/m*3 15.4 C 9.7 km/h
410 17-10-2019 10:05:00 15.5 C 11.1 g/m*3 15.5 C 12.9 km/h
411 17-10-2019 10:10:00 15.6 C 11.17 g/m*3 15.6 C 6.4 km/h
412 17-10-2019 10:15:00 15.6 C 11.3 g/m*3 15.6 C 4.8 km/h
413 17-10-2019 10:20:00 15.7 C 11.24 g/m*3 15.7 C 6.4 km/h
414 17-10-2019 10:25:00 15.8 C 11.31 g/m*3 15.8 C 8.1 km/h
415 17-10-2019 10:30:00 15.9 C 11.24 g/m*3 15.9 C 12.9 km/h
416 17-10-2019 10:35:00 16.1 C 11.24 g/m*3 16.1 C 16.1 km/h
417 17-10-2019 10:40:00 16.1 C 11.24 g/m*3 16.1 C 4.8 km/h
418 17-10-2019 10:45:00 16.2 C 11.31 g/m*3 16.2 C 14.5 km/h
419 17-10-2019 10:50:00 16.2 C 11.31 g/m*3 16.2 C 9.7 km/h
420 17-10-2019 10:55:00 16.3 C 11.38 g/m*3 16.3 C 6.4 km/h
421 17-10-2019 11:00:00 16.3 C 11.38 g/m*3 16.3 C 3.2 km/h
422 17-10-2019 11:05:00 16.4 C 11.45 g/m*3 16.4 C 4.8 km/h
423 17-10-2019 11:10:00 16.5 C 11.51 g/m*3 16.5 C 8.1 km/h
424 17-10-2019 11:15:00 16.6 C 11.44 g/m*3 16.6 C 4.8 km/h
425 17-10-2019 11:20:00 16.6 C 11.58 g/m*3 16.6 C 8.1 km/h
Sensor: Nr:Datum:Temp:Abs-Feuchte:Windchill:Wind:
Aussen-T/F 426 17-10-2019 11:25:00 16.7 C 11.51 g/m*3 16.7 C 6.4 km/h
427 17-10-2019 11:30:00 16.7 C 11.65 g/m*3 16.7 C 6.4 km/h
428 17-10-2019 11:35:00 16.8 C 11.87 g/m*3 16.8 C 1.6 km/h
429 17-10-2019 11:40:00 16.8 C 11.87 g/m*3 16.8 C 0 km/h
430 17-10-2019 11:45:00 16.9 C 11.94 g/m*3 16.9 C 0 km/h
431 17-10-2019 11:50:00 16.8 C 11.58 g/m*3 16.8 C 3.2 km/h
432 17-10-2019 11:55:00 16.8 C 11.58 g/m*3 16.8 C 0 km/h
433 17-10-2019 12:00:00 16.7 C 11.8 g/m*3 16.7 C 4.8 km/h
434 17-10-2019 12:05:00 16.7 C 11.65 g/m*3 16.7 C 3.2 km/h
435 17-10-2019 12:10:00 16.7 C 11.94 g/m*3 16.7 C 0 km/h
436 17-10-2019 12:15:00 16.7 C 12.08 g/m*3 16.7 C 0 km/h
437 17-10-2019 12:20:00 16.7 C 12.22 g/m*3 16.7 C 0 km/h
438 17-10-2019 12:25:00 16.7 C 12.22 g/m*3 16.7 C 0 km/h
439 17-10-2019 12:30:00 16.6 C 11.72 g/m*3 16.6 C 3.2 km/h
440 17-10-2019 12:35:00 16.6 C 11.87 g/m*3 16.6 C 1.6 km/h
441 17-10-2019 12:40:00 16.6 C 11.87 g/m*3 16.6 C 1.6 km/h
442 17-10-2019 12:45:00 16.6 C 12.01 g/m*3 16.6 C 0 km/h
443 17-10-2019 12:50:00 16.6 C 11.72 g/m*3 16.6 C 6.4 km/h
444 17-10-2019 12:55:00 16.7 C 11.94 g/m*3 16.7 C 6.4 km/h
445 17-10-2019 13:00:00 16.8 C 11.72 g/m*3 16.8 C 9.7 km/h
446 17-10-2019 13:05:00 16.9 C 11.94 g/m*3 16.9 C 8.1 km/h
447 17-10-2019 13:10:00 16.9 C 11.79 g/m*3 16.9 C 8.1 km/h
448 17-10-2019 13:15:00 16.8 C 11.72 g/m*3 16.8 C 11.3 km/h
449 17-10-2019 13:20:00 16.7 C 11.8 g/m*3 16.7 C 11.3 km/h
450 17-10-2019 13:25:00 16.7 C 11.94 g/m*3 16.7 C 0 km/h
Sensor: Nr:Datum:Temp:Abs-Feuchte:Windchill:Wind:
Aussen-T/F 451 17-10-2019 13:30:00 16.7 C 11.8 g/m*3 16.7 C 4.8 km/h
452 17-10-2019 13:35:00 16.8 C 12.01 g/m*3 16.8 C 1.6 km/h
453 17-10-2019 13:40:00 16.8 C 11.87 g/m*3 16.8 C 6.4 km/h
454 17-10-2019 13:45:00 16.9 C 12.08 g/m*3 16.9 C 0 km/h
455 17-10-2019 13:50:00 16.9 C 11.94 g/m*3 16.9 C 1.6 km/h
456 17-10-2019 13:55:00 16.9 C 11.94 g/m*3 16.9 C 3.2 km/h
457 17-10-2019 14:00:00 16.9 C 12.08 g/m*3 16.9 C 1.6 km/h
458 17-10-2019 14:05:00 16.9 C 11.94 g/m*3 16.9 C 4.8 km/h
459 17-10-2019 14:10:00 16.9 C 12.08 g/m*3 16.9 C 0 km/h
460 17-10-2019 14:15:00 16.9 C 12.23 g/m*3 16.9 C 0 km/h
461 17-10-2019 14:20:00 16.9 C 12.23 g/m*3 16.9 C 0 km/h
462 17-10-2019 14:25:00 16.9 C 12.37 g/m*3 16.9 C 0 km/h
463 17-10-2019 14:30:00 16.9 C 12.37 g/m*3 16.9 C 0 km/h
464 17-10-2019 14:35:00 16.8 C 12.44 g/m*3 16.8 C 0 km/h
465 17-10-2019 14:40:00 16.8 C 12.44 g/m*3 16.8 C 0 km/h
466 17-10-2019 14:45:00 16.8 C 12.58 g/m*3 16.8 C 1.6 km/h
467 17-10-2019 14:50:00 16.7 C 12.36 g/m*3 16.7 C 3.2 km/h
468 17-10-2019 14:55:00 16.7 C 12.36 g/m*3 16.7 C 0 km/h
469 17-10-2019 15:00:00 16.7 C 12.36 g/m*3 16.7 C 0 km/h
470 17-10-2019 15:05:00 16.7 C 12.22 g/m*3 16.7 C 4.8 km/h
471 17-10-2019 15:10:00 16.7 C 12.36 g/m*3 16.7 C 0 km/h
472 17-10-2019 15:15:00 16.7 C 12.36 g/m*3 16.7 C 1.6 km/h
473 17-10-2019 15:20:00 16.7 C 12.36 g/m*3 16.7 C 0 km/h
474 17-10-2019 15:25:00 16.7 C 12.36 g/m*3 16.7 C 0 km/h
475 17-10-2019 15:30:00 16.7 C 12.36 g/m*3 16.7 C 0 km/h
Sensor: Nr:Datum:Temp:Abs-Feuchte:Windchill:Wind:
Aussen-T/F 476 17-10-2019 15:35:00 16.7 C 12.36 g/m*3 16.7 C 0 km/h
477 17-10-2019 15:40:00 16.6 C 12.15 g/m*3 16.6 C 1.6 km/h
478 17-10-2019 15:45:00 16.6 C 12.29 g/m*3 16.6 C 1.6 km/h
479 17-10-2019 15:50:00 16.4 C 12.28 g/m*3 16.4 C 0 km/h
480 17-10-2019 15:55:00 16.4 C 12.28 g/m*3 16.4 C 0 km/h
481 17-10-2019 16:00:00 16.3 C 12.35 g/m*3 16.3 C 0 km/h
482 17-10-2019 16:05:00 16.2 C 12.27 g/m*3 16.2 C 0 km/h
483 17-10-2019 16:10:00 16.1 C 12.34 g/m*3 16.1 C 0 km/h
484 17-10-2019 16:15:00 16 C 12.26 g/m*3 16 C 0 km/h
485 17-10-2019 16:20:00 15.9 C 12.32 g/m*3 15.9 C 3.2 km/h
486 17-10-2019 16:25:00 15.9 C 12.32 g/m*3 15.9 C 0 km/h
487 17-10-2019 16:30:00 15.8 C 12.38 g/m*3 15.8 C 0 km/h
488 17-10-2019 16:35:00 15.8 C 12.38 g/m*3 15.8 C 0 km/h
489 17-10-2019 16:40:00 15.7 C 12.31 g/m*3 15.7 C 0 km/h
490 17-10-2019 16:45:00 15.6 C 12.23 g/m*3 15.6 C 0 km/h
491 17-10-2019 16:50:00 15.5 C 12.29 g/m*3 15.5 C 0 km/h
492 17-10-2019 16:55:00 15.4 C 12.22 g/m*3 15.4 C 0 km/h
493 17-10-2019 17:00:00 15.4 C 12.22 g/m*3 15.4 C 0 km/h
494 17-10-2019 17:05:00 15.3 C 12.14 g/m*3 15.3 C 0 km/h
495 17-10-2019 17:10:00 15.3 C 12.14 g/m*3 15.3 C 0 km/h
496 17-10-2019 17:15:00 15.3 C 12.28 g/m*3 15.3 C 0 km/h
497 17-10-2019 17:20:00 15.2 C 12.2 g/m*3 15.2 C 0 km/h
498 17-10-2019 17:25:00 15.2 C 12.2 g/m*3 15.2 C 0 km/h
499 17-10-2019 17:30:00 15.1 C 12.13 g/m*3 15.1 C 0 km/h
500 17-10-2019 17:35:00 15.1 C 12.13 g/m*3 15.1 C 0 km/h
Sensor: Nr:Datum:Temp:Abs-Feuchte:Windchill:Wind:
Aussen-T/F 501 17-10-2019 17:40:00 15 C 12.05 g/m*3 15 C 0 km/h
502 17-10-2019 17:45:00 15 C 12.05 g/m*3 15 C 1.6 km/h
503 17-10-2019 17:50:00 14.9 C 12.11 g/m*3 14.9 C 0 km/h
504 17-10-2019 17:55:00 14.9 C 12.11 g/m*3 14.9 C 0 km/h
505 17-10-2019 18:00:00 14.9 C 12.11 g/m*3 14.9 C 0 km/h
506 17-10-2019 18:05:00 14.8 C 12.03 g/m*3 14.8 C 0 km/h
507 17-10-2019 18:10:00 14.8 C 12.03 g/m*3 14.8 C 0 km/h
508 17-10-2019 18:15:00 14.7 C 11.96 g/m*3 14.7 C 0 km/h
509 17-10-2019 18:20:00 14.7 C 11.96 g/m*3 14.7 C 0 km/h
510 17-10-2019 18:25:00 14.7 C 11.96 g/m*3 14.7 C 0 km/h
511 17-10-2019 18:30:00 14.6 C 11.89 g/m*3 14.6 C 0 km/h
512 17-10-2019 18:35:00 14.6 C 11.89 g/m*3 14.6 C 0 km/h
513 17-10-2019 18:40:00 14.5 C 11.82 g/m*3 14.5 C 0 km/h
514 17-10-2019 18:45:00 14.4 C 11.74 g/m*3 14.4 C 3.2 km/h
515 17-10-2019 18:50:00 14.4 C 11.74 g/m*3 14.4 C 0 km/h
516 17-10-2019 18:55:00 14.3 C 11.67 g/m*3 14.3 C 0 km/h
517 17-10-2019 19:00:00 14.3 C 11.67 g/m*3 14.3 C 0 km/h
518 17-10-2019 19:05:00 14.3 C 11.67 g/m*3 14.3 C 0 km/h
519 17-10-2019 19:10:00 14.2 C 11.6 g/m*3 14.2 C 0 km/h
520 17-10-2019 19:15:00 14.2 C 11.6 g/m*3 14.2 C 0 km/h
521 17-10-2019 19:20:00 14.2 C 11.72 g/m*3 14.2 C 0 km/h
522 17-10-2019 19:25:00 14.1 C 11.65 g/m*3 14.1 C 0 km/h
523 17-10-2019 19:30:00 14.1 C 11.65 g/m*3 14.1 C 0 km/h
524 17-10-2019 19:35:00 14.1 C 11.65 g/m*3 14.1 C 0 km/h
525 17-10-2019 19:40:00 14.1 C 11.65 g/m*3 14.1 C 0 km/h
Sensor: Nr:Datum:Temp:Abs-Feuchte:Windchill:Wind:
Aussen-T/F 526 17-10-2019 19:45:00 14.1 C 11.65 g/m*3 14.1 C 0 km/h
527 17-10-2019 19:50:00 14.1 C 11.65 g/m*3 14.1 C 0 km/h
528 17-10-2019 19:55:00 14.1 C 11.65 g/m*3 14.1 C 0 km/h
529 17-10-2019 20:00:00 14.1 C 11.65 g/m*3 14.1 C 0 km/h
530 17-10-2019 20:05:00 14.1 C 11.65 g/m*3 14.1 C 0 km/h
531 17-10-2019 20:10:00 14.1 C 11.65 g/m*3 14.1 C 0 km/h
532 17-10-2019 20:15:00 14.1 C 11.65 g/m*3 14.1 C 4.8 km/h
533 17-10-2019 20:20:00 14.1 C 11.65 g/m*3 14.1 C 0 km/h
534 17-10-2019 20:25:00 14.1 C 11.65 g/m*3 14.1 C 0 km/h
535 17-10-2019 20:30:00 14.1 C 11.65 g/m*3 14.1 C 0 km/h
536 17-10-2019 20:35:00 14.1 C 11.65 g/m*3 14.1 C 0 km/h
537 17-10-2019 20:40:00 14.1 C 11.65 g/m*3 14.1 C 0 km/h
538 17-10-2019 20:45:00 14.1 C 11.65 g/m*3 14.1 C 0 km/h
539 17-10-2019 20:50:00 14 C 11.58 g/m*3 14 C 0 km/h
540 17-10-2019 20:55:00 14 C 11.58 g/m*3 14 C 0 km/h
541 17-10-2019 21:00:00 13.9 C 11.51 g/m*3 13.9 C 0 km/h
542 17-10-2019 21:05:00 13.9 C 11.51 g/m*3 13.9 C 1.6 km/h
543 17-10-2019 21:10:00 13.9 C 11.63 g/m*3 13.9 C 0 km/h
544 17-10-2019 21:15:00 13.9 C 11.51 g/m*3 13.9 C 0 km/h
545 17-10-2019 21:20:00 13.9 C 11.63 g/m*3 13.9 C 0 km/h
546 17-10-2019 21:25:00 13.9 C 11.63 g/m*3 13.9 C 1.6 km/h
547 17-10-2019 21:30:00 13.9 C 11.63 g/m*3 13.9 C 0 km/h
548 17-10-2019 21:35:00 13.9 C 11.63 g/m*3 13.9 C 0 km/h
549 17-10-2019 21:40:00 13.9 C 11.63 g/m*3 13.9 C 3.2 km/h
550 17-10-2019 21:45:00 13.9 C 11.63 g/m*3 13.9 C 0 km/h
Sensor: Nr:Datum:Temp:Abs-Feuchte:Windchill:Wind:
Aussen-T/F 551 17-10-2019 21:50:00 13.9 C 11.63 g/m*3 13.9 C 0 km/h
552 17-10-2019 21:55:00 13.9 C 11.63 g/m*3 13.9 C 0 km/h
553 17-10-2019 22:00:00 13.9 C 11.63 g/m*3 13.9 C 0 km/h
554 17-10-2019 22:05:00 13.9 C 11.63 g/m*3 13.9 C 0 km/h
555 17-10-2019 22:10:00 13.9 C 11.63 g/m*3 13.9 C 0 km/h
556 17-10-2019 22:15:00 13.9 C 11.63 g/m*3 13.9 C 0 km/h
557 17-10-2019 22:20:00 13.9 C 11.63 g/m*3 13.9 C 0 km/h
558 17-10-2019 22:25:00 13.9 C 11.63 g/m*3 13.9 C 0 km/h
559 17-10-2019 22:30:00 13.8 C 11.56 g/m*3 13.8 C 0 km/h
560 17-10-2019 22:35:00 13.8 C 11.56 g/m*3 13.8 C 0 km/h
561 17-10-2019 22:40:00 13.8 C 11.56 g/m*3 13.8 C 0 km/h
562 17-10-2019 22:45:00 13.8 C 11.56 g/m*3 13.8 C 0 km/h
563 17-10-2019 22:50:00 13.8 C 11.56 g/m*3 13.8 C 0 km/h
564 17-10-2019 22:55:00 13.8 C 11.56 g/m*3 13.8 C 1.6 km/h
565 17-10-2019 23:00:00 13.8 C 11.56 g/m*3 13.8 C 0 km/h
566 17-10-2019 23:05:00 13.9 C 11.63 g/m*3 13.9 C 0 km/h
567 17-10-2019 23:10:00 13.9 C 11.63 g/m*3 13.9 C 0 km/h
568 17-10-2019 23:15:00 13.9 C 11.63 g/m*3 13.9 C 1.6 km/h
569 17-10-2019 23:20:00 13.9 C 11.63 g/m*3 13.9 C 0 km/h
570 17-10-2019 23:25:00 13.9 C 11.63 g/m*3 13.9 C 4.8 km/h
571 17-10-2019 23:30:00 13.9 C 11.63 g/m*3 13.9 C 0 km/h
572 17-10-2019 23:35:00 13.9 C 11.63 g/m*3 13.9 C 0 km/h
573 17-10-2019 23:40:00 13.9 C 11.63 g/m*3 13.9 C 1.6 km/h
574 17-10-2019 23:45:00 13.9 C 11.63 g/m*3 13.9 C 0 km/h
575 17-10-2019 23:50:00 13.9 C 11.63 g/m*3 13.9 C 0 km/h
Sensor: Nr:Datum:Temp:Abs-Feuchte:Windchill:Wind:
Aussen-T/F 576 17-10-2019 23:55:00 13.9 C 11.63 g/m*3 13.9 C 0 km/h
577 18-10-2019 00:00:00 13.9 C 11.63 g/m*3 13.9 C 0 km/h
578 18-10-2019 00:05:00 13.9 C 11.63 g/m*3 13.9 C 0 km/h
579 18-10-2019 00:10:00 13.9 C 11.63 g/m*3 13.9 C 0 km/h
580 18-10-2019 00:15:00 13.9 C 11.63 g/m*3 13.9 C 0 km/h
581 18-10-2019 00:20:00 13.9 C 11.63 g/m*3 13.9 C 6.4 km/h
582 18-10-2019 00:25:00 13.9 C 11.63 g/m*3 13.9 C 1.6 km/h
583 18-10-2019 00:30:00 13.8 C 11.56 g/m*3 13.8 C 0 km/h
584 18-10-2019 00:35:00 13.8 C 11.56 g/m*3 13.8 C 0 km/h
585 18-10-2019 00:40:00 13.8 C 11.56 g/m*3 13.8 C 0 km/h
586 18-10-2019 00:45:00 13.8 C 11.56 g/m*3 13.8 C 3.2 km/h
587 18-10-2019 00:50:00 13.7 C 11.49 g/m*3 13.7 C 0 km/h
588 18-10-2019 00:55:00 13.6 C 11.42 g/m*3 13.6 C 0 km/h
589 18-10-2019 01:00:00 13.4 C 11.28 g/m*3 13.4 C 1.6 km/h
590 18-10-2019 01:05:00 13.3 C 11.21 g/m*3 13.3 C 0 km/h
591 18-10-2019 01:10:00 13.2 C 11.14 g/m*3 13.2 C 0 km/h
592 18-10-2019 01:15:00 13 C 10.89 g/m*3 13 C 3.2 km/h
593 18-10-2019 01:20:00 12.9 C 10.93 g/m*3 12.9 C 0 km/h
594 18-10-2019 01:25:00 12.8 C 10.87 g/m*3 12.8 C 0 km/h
595 18-10-2019 01:30:00 12.7 C 10.8 g/m*3 12.7 C 0 km/h
596 18-10-2019 01:35:00 12.7 C 10.8 g/m*3 12.7 C 0 km/h
597 18-10-2019 01:40:00 12.6 C 10.73 g/m*3 12.6 C 0 km/h
598 18-10-2019 01:45:00 12.5 C 10.66 g/m*3 12.5 C 0 km/h
599 18-10-2019 01:50:00 12.5 C 10.66 g/m*3 12.5 C 0 km/h
600 18-10-2019 01:55:00 12.4 C 10.6 g/m*3 12.4 C 0 km/h
Sensor: Nr:Datum:Temp:Abs-Feuchte:Windchill:Wind:
Aussen-T/F 601 18-10-2019 02:00:00 12.4 C 10.6 g/m*3 12.4 C 0 km/h
602 18-10-2019 02:05:00 12.3 C 10.53 g/m*3 12.3 C 0 km/h
603 18-10-2019 02:10:00 12.3 C 10.53 g/m*3 12.3 C 0 km/h
604 18-10-2019 02:15:00 12.3 C 10.53 g/m*3 12.3 C 0 km/h
605 18-10-2019 02:20:00 12.2 C 10.47 g/m*3 12.2 C 0 km/h
606 18-10-2019 02:25:00 12.2 C 10.47 g/m*3 12.2 C 0 km/h
607 18-10-2019 02:30:00 12.1 C 10.4 g/m*3 12.1 C 0 km/h
608 18-10-2019 02:35:00 12.1 C 10.4 g/m*3 12.1 C 0 km/h
609 18-10-2019 02:40:00 12 C 10.34 g/m*3 12 C 0 km/h
610 18-10-2019 02:45:00 11.9 C 10.27 g/m*3 11.9 C 0 km/h
611 18-10-2019 02:50:00 11.9 C 10.27 g/m*3 11.9 C 0 km/h
612 18-10-2019 02:55:00 11.8 C 10.21 g/m*3 11.8 C 0 km/h
613 18-10-2019 03:00:00 11.8 C 10.21 g/m*3 11.8 C 3.2 km/h
614 18-10-2019 03:05:00 11.8 C 10.21 g/m*3 11.8 C 1.6 km/h
615 18-10-2019 03:10:00 11.8 C 10.21 g/m*3 11.8 C 0 km/h
616 18-10-2019 03:15:00 11.7 C 10.15 g/m*3 11.7 C 0 km/h
617 18-10-2019 03:20:00 11.7 C 10.15 g/m*3 11.7 C 0 km/h
618 18-10-2019 03:25:00 11.6 C 10.08 g/m*3 11.6 C 0 km/h
619 18-10-2019 03:30:00 11.6 C 10.08 g/m*3 11.6 C 0 km/h
620 18-10-2019 03:35:00 11.5 C 10.02 g/m*3 11.5 C 0 km/h
621 18-10-2019 03:40:00 11.4 C 9.96 g/m*3 11.4 C 0 km/h
622 18-10-2019 03:45:00 11.4 C 9.96 g/m*3 11.4 C 0 km/h
623 18-10-2019 03:50:00 11.4 C 9.96 g/m*3 11.4 C 0 km/h
624 18-10-2019 03:55:00 11.3 C 9.89 g/m*3 11.3 C 0 km/h
625 18-10-2019 04:00:00 11.4 C 9.96 g/m*3 11.4 C 0 km/h
Sensor: Nr:Datum:Temp:Abs-Feuchte:Windchill:Wind:
Aussen-T/F 626 18-10-2019 04:05:00 11.4 C 9.96 g/m*3 11.4 C 0 km/h
627 18-10-2019 04:10:00 11.4 C 9.96 g/m*3 11.4 C 0 km/h
628 18-10-2019 04:15:00 11.4 C 9.96 g/m*3 11.4 C 0 km/h
629 18-10-2019 04:20:00 11.4 C 9.96 g/m*3 11.4 C 0 km/h
630 18-10-2019 04:25:00 11.4 C 9.96 g/m*3 11.4 C 0 km/h
631 18-10-2019 04:30:00 11.5 C 10.02 g/m*3 11.5 C 1.6 km/h
632 18-10-2019 04:35:00 11.6 C 10.08 g/m*3 11.6 C 0 km/h
633 18-10-2019 04:40:00 11.6 C 10.08 g/m*3 11.6 C 1.6 km/h
634 18-10-2019 04:45:00 11.6 C 10.08 g/m*3 11.6 C 0 km/h
635 18-10-2019 04:50:00 11.6 C 10.08 g/m*3 11.6 C 0 km/h
636 18-10-2019 04:55:00 11.6 C 10.08 g/m*3 11.6 C 0 km/h
637 18-10-2019 05:00:00 11.6 C 10.08 g/m*3 11.6 C 0 km/h
638 18-10-2019 05:05:00 11.6 C 10.08 g/m*3 11.6 C 0 km/h
639 18-10-2019 05:10:00 11.6 C 10.08 g/m*3 11.6 C 0 km/h
640 18-10-2019 05:15:00 11.6 C 10.08 g/m*3 11.6 C 0 km/h
641 18-10-2019 05:20:00 11.6 C 10.08 g/m*3 11.6 C 0 km/h
642 18-10-2019 05:25:00 11.6 C 10.08 g/m*3 11.6 C 0 km/h
643 18-10-2019 05:30:00 11.7 C 10.15 g/m*3 11.7 C 0 km/h
644 18-10-2019 05:35:00 11.8 C 10.21 g/m*3 11.8 C 0 km/h
645 18-10-2019 05:40:00 11.9 C 10.38 g/m*3 11.9 C 0 km/h
646 18-10-2019 05:45:00 12.1 C 10.51 g/m*3 12.1 C 0 km/h
647 18-10-2019 05:50:00 12.2 C 10.58 g/m*3 12.2 C 4.8 km/h
648 18-10-2019 05:55:00 12.4 C 10.71 g/m*3 12.4 C 3.2 km/h
649 18-10-2019 06:00:00 12.6 C 10.84 g/m*3 12.6 C 1.6 km/h
650 18-10-2019 06:05:00 12.7 C 10.91 g/m*3 12.7 C 3.2 km/h
Sensor: Nr:Datum:Temp:Abs-Feuchte:Windchill:Wind:
Aussen-T/F 651 18-10-2019 06:10:00 12.7 C 10.91 g/m*3 12.7 C 4.8 km/h
652 18-10-2019 06:15:00 12.8 C 10.98 g/m*3 12.8 C 0 km/h
653 18-10-2019 06:20:00 12.7 C 10.91 g/m*3 12.7 C 0 km/h
654 18-10-2019 06:25:00 12.7 C 10.91 g/m*3 12.7 C 0 km/h
655 18-10-2019 06:30:00 12.7 C 10.91 g/m*3 12.7 C 3.2 km/h
656 18-10-2019 06:35:00 12.7 C 10.91 g/m*3 12.7 C 1.6 km/h
657 18-10-2019 06:40:00 12.7 C 10.91 g/m*3 12.7 C 1.6 km/h
658 18-10-2019 06:45:00 12.7 C 10.91 g/m*3 12.7 C 0 km/h
659 18-10-2019 06:50:00 12.7 C 10.91 g/m*3 12.7 C 1.6 km/h
660 18-10-2019 06:55:00 12.7 C 10.91 g/m*3 12.7 C 1.6 km/h
661 18-10-2019 07:00:00 12.8 C 10.98 g/m*3 12.8 C 0 km/h
662 18-10-2019 07:05:00 12.7 C 10.91 g/m*3 12.7 C 0 km/h
663 18-10-2019 07:10:00 12.7 C 10.91 g/m*3 12.7 C 0 km/h
664 18-10-2019 07:15:00 12.7 C 10.91 g/m*3 12.7 C 0 km/h
665 18-10-2019 07:20:00 12.7 C 10.91 g/m*3 12.7 C 0 km/h
666 18-10-2019 07:25:00 12.7 C 10.91 g/m*3 12.7 C 0 km/h
667 18-10-2019 07:30:00 12.6 C 10.84 g/m*3 12.6 C 0 km/h
668 18-10-2019 07:35:00 12.5 C 10.66 g/m*3 12.5 C 0 km/h
669 18-10-2019 07:40:00 12.4 C 10.6 g/m*3 12.4 C 0 km/h
670 18-10-2019 07:45:00 12.4 C 10.6 g/m*3 12.4 C 0 km/h
671 18-10-2019 07:50:00 12.5 C 10.66 g/m*3 12.5 C 1.6 km/h
672 18-10-2019 07:55:00 12.6 C 10.84 g/m*3 12.6 C 0 km/h
673 18-10-2019 08:00:00 12.6 C 10.84 g/m*3 12.6 C 0 km/h
674 18-10-2019 08:05:00 12.6 C 10.84 g/m*3 12.6 C 0 km/h
675 18-10-2019 08:10:00 12.6 C 10.84 g/m*3 12.6 C 0 km/h
Sensor: Nr:Datum:Temp:Abs-Feuchte:Windchill:Wind:
Aussen-T/F 676 18-10-2019 08:15:00 12.7 C 10.91 g/m*3 12.7 C 0 km/h
677 18-10-2019 08:20:00 12.8 C 10.98 g/m*3 12.8 C 1.6 km/h
678 18-10-2019 08:25:00 12.9 C 11.05 g/m*3 12.9 C 1.6 km/h
679 18-10-2019 08:30:00 12.9 C 11.05 g/m*3 12.9 C 0 km/h
680 18-10-2019 08:35:00 12.9 C 11.05 g/m*3 12.9 C 0 km/h
681 18-10-2019 08:40:00 12.9 C 11.05 g/m*3 12.9 C 0 km/h
682 18-10-2019 08:45:00 12.9 C 11.05 g/m*3 12.9 C 0 km/h
683 18-10-2019 08:50:00 12.9 C 11.05 g/m*3 12.9 C 0 km/h
684 18-10-2019 08:55:00 12.9 C 11.05 g/m*3 12.9 C 0 km/h
685 18-10-2019 09:00:00 13.1 C 11.18 g/m*3 13.1 C 0 km/h
686 18-10-2019 09:05:00 13.1 C 11.18 g/m*3 13.1 C 0 km/h
687 18-10-2019 09:10:00 13.2 C 11.25 g/m*3 13.2 C 0 km/h
688 18-10-2019 09:15:00 13.2 C 11.25 g/m*3 13.2 C 0 km/h
689 18-10-2019 09:20:00 13.2 C 11.25 g/m*3 13.2 C 0 km/h
690 18-10-2019 09:25:00 13.3 C 11.32 g/m*3 13.3 C 0 km/h
691 18-10-2019 09:30:00 13.4 C 11.39 g/m*3 13.4 C 0 km/h
692 18-10-2019 09:35:00 13.4 C 11.39 g/m*3 13.4 C 0 km/h
693 18-10-2019 09:40:00 13.6 C 11.53 g/m*3 13.6 C 0 km/h
694 18-10-2019 09:45:00 13.7 C 11.6 g/m*3 13.7 C 0 km/h
695 18-10-2019 09:50:00 13.8 C 11.68 g/m*3 13.8 C 0 km/h
696 18-10-2019 09:55:00 13.8 C 11.68 g/m*3 13.8 C 0 km/h
697 18-10-2019 10:00:00 14 C 11.82 g/m*3 14 C 0 km/h
698 18-10-2019 10:05:00 14.1 C 11.89 g/m*3 14.1 C 0 km/h
699 18-10-2019 10:10:00 14.2 C 11.97 g/m*3 14.2 C 4.8 km/h
700 18-10-2019 10:15:00 14.3 C 12.04 g/m*3 14.3 C 6.4 km/h
Sensor: Nr:Datum:Temp:Abs-Feuchte:Windchill:Wind:
Aussen-T/F 701 18-10-2019 10:20:00 14.2 C 11.97 g/m*3 14.2 C 3.2 km/h
702 18-10-2019 10:25:00 14.2 C 11.97 g/m*3 14.2 C 0 km/h
703 18-10-2019 10:30:00 14.3 C 12.04 g/m*3 14.3 C 0 km/h
704 18-10-2019 10:35:00 14.5 C 12.19 g/m*3 14.5 C 0 km/h
705 18-10-2019 10:40:00 14.6 C 12.26 g/m*3 14.6 C 0 km/h
706 18-10-2019 10:45:00 14.7 C 12.34 g/m*3 14.7 C 0 km/h
707 18-10-2019 10:50:00 14.8 C 12.41 g/m*3 14.8 C 0 km/h
708 18-10-2019 10:55:00 14.7 C 12.34 g/m*3 14.7 C 1.6 km/h
709 18-10-2019 11:00:00 14.8 C 12.41 g/m*3 14.8 C 1.6 km/h
710 18-10-2019 11:05:00 14.7 C 12.34 g/m*3 14.7 C 1.6 km/h
711 18-10-2019 11:10:00 14.6 C 12.26 g/m*3 14.6 C 6.4 km/h
712 18-10-2019 11:15:00 14.5 C 12.19 g/m*3 14.5 C 1.6 km/h
713 18-10-2019 11:20:00 14.6 C 12.26 g/m*3 14.6 C 0 km/h
714 18-10-2019 11:25:00 14.6 C 12.26 g/m*3 14.6 C 4.8 km/h
715 18-10-2019 11:30:00 14.5 C 12.06 g/m*3 14.5 C 1.6 km/h
716 18-10-2019 11:35:00 14.7 C 12.34 g/m*3 14.7 C 0 km/h
717 18-10-2019 11:40:00 14.8 C 12.29 g/m*3 14.8 C 8.1 km/h
718 18-10-2019 11:45:00 14.8 C 12.29 g/m*3 14.8 C 6.4 km/h
719 18-10-2019 11:50:00 14.7 C 12.09 g/m*3 14.7 C 4.8 km/h
720 18-10-2019 11:55:00 14.7 C 11.96 g/m*3 14.7 C 9.7 km/h
721 18-10-2019 12:00:00 14.7 C 11.96 g/m*3 14.7 C 1.6 km/h
722 18-10-2019 12:05:00 14.7 C 11.83 g/m*3 14.7 C 11.3 km/h
723 18-10-2019 12:10:00 14.8 C 11.91 g/m*3 14.8 C 4.8 km/h
724 18-10-2019 12:15:00 14.9 C 11.85 g/m*3 14.9 C 9.7 km/h
725 18-10-2019 12:20:00 15.1 C 11.74 g/m*3 15.1 C 8.1 km/h
Sensor: Nr:Datum:Temp:Abs-Feuchte:Windchill:Wind:
Aussen-T/F 726 18-10-2019 12:25:00 15.4 C 11.82 g/m*3 15.4 C 6.4 km/h
727 18-10-2019 12:30:00 15.6 C 11.84 g/m*3 15.6 C 8.1 km/h
728 18-10-2019 12:35:00 15.8 C 11.71 g/m*3 15.8 C 4.8 km/h
729 18-10-2019 12:40:00 16 C 11.72 g/m*3 16 C 4.8 km/h
730 18-10-2019 12:45:00 16.1 C 11.79 g/m*3 16.1 C 6.4 km/h
731 18-10-2019 12:50:00 16.2 C 11.45 g/m*3 16.2 C 12.9 km/h
732 18-10-2019 12:55:00 16.3 C 11.65 g/m*3 16.3 C 8.1 km/h
733 18-10-2019 13:00:00 16.3 C 11.38 g/m*3 16.3 C 3.2 km/h
734 18-10-2019 13:05:00 16.4 C 11.86 g/m*3 16.4 C 12.9 km/h
735 18-10-2019 13:10:00 16.4 C 11.31 g/m*3 16.4 C 12.9 km/h
736 18-10-2019 13:15:00 16.6 C 11.44 g/m*3 16.6 C 8.1 km/h
737 18-10-2019 13:20:00 16.6 C 11.44 g/m*3 16.6 C 9.7 km/h
738 18-10-2019 13:25:00 16.7 C 11.65 g/m*3 16.7 C 11.3 km/h
739 18-10-2019 13:30:00 15.4 C 10.25 g/m*3 15.4 C 51.5 km/h
740 18-10-2019 13:35:00 13.9 C 9.95 g/m*3 13.9 C 25.7 km/h
741 18-10-2019 13:40:00 13.2 C 9.87 g/m*3 13.2 C 9.7 km/h
742 18-10-2019 13:45:00 12.8 C 9.86 g/m*3 12.8 C 12.9 km/h
743 18-10-2019 13:50:00 12.7 C 10.02 g/m*3 12.7 C 9.7 km/h
744 18-10-2019 13:55:00 12.5 C 9.89 g/m*3 12.5 C 14.5 km/h
745 18-10-2019 14:00:00 12.4 C 9.72 g/m*3 12.4 C 9.7 km/h
746 18-10-2019 14:05:00 12.4 C 9.83 g/m*3 12.4 C 8.1 km/h
747 18-10-2019 14:10:00 12.5 C 9.78 g/m*3 12.5 C 12.9 km/h
748 18-10-2019 14:15:00 12.7 C 9.91 g/m*3 12.7 C 8.1 km/h
749 18-10-2019 14:20:00 12.8 C 9.86 g/m*3 12.8 C 20.9 km/h
750 18-10-2019 14:25:00 13.1 C 9.93 g/m*3 13.1 C 17.7 km/h
Sensor: Nr:Datum:Temp:Abs-Feuchte:Windchill:Wind:
Aussen-T/F 751 18-10-2019 14:30:00 13.1 C 9.59 g/m*3 13.1 C 22.5 km/h
752 18-10-2019 14:35:00 13.2 C 9.42 g/m*3 13.2 C 29 km/h
753 18-10-2019 14:40:00 13.2 C 9.53 g/m*3 13.2 C 17.7 km/h
754 18-10-2019 14:45:00 13.1 C 9.24 g/m*3 13.1 C 17.7 km/h
755 18-10-2019 14:50:00 13.2 C 9.42 g/m*3 13.2 C 16.1 km/h
756 18-10-2019 14:55:00 13.3 C 9.36 g/m*3 13.3 C 17.7 km/h
757 18-10-2019 15:00:00 13.4 C 9.53 g/m*3 13.4 C 9.7 km/h
758 18-10-2019 15:05:00 13.6 C 9.65 g/m*3 13.6 C 12.9 km/h
759 18-10-2019 15:10:00 13.6 C 9.77 g/m*3 13.6 C 9.7 km/h
760 18-10-2019 15:15:00 13.7 C 9.83 g/m*3 13.7 C 6.4 km/h
761 18-10-2019 15:20:00 13.8 C 9.53 g/m*3 13.8 C 16.1 km/h
762 18-10-2019 15:25:00 13.8 C 9.53 g/m*3 13.8 C 14.5 km/h
763 18-10-2019 15:30:00 13.9 C 9.47 g/m*3 13.9 C 20.9 km/h
764 18-10-2019 15:35:00 13.9 C 9.59 g/m*3 13.9 C 12.9 km/h
765 18-10-2019 15:40:00 14.1 C 9.71 g/m*3 14.1 C 8.1 km/h
766 18-10-2019 15:45:00 14 C 9.53 g/m*3 14 C 16.1 km/h
767 18-10-2019 15:50:00 13.9 C 9.47 g/m*3 13.9 C 14.5 km/h
768 18-10-2019 15:55:00 13.9 C 9.59 g/m*3 13.9 C 12.9 km/h
769 18-10-2019 16:00:00 13.9 C 9.47 g/m*3 13.9 C 16.1 km/h
770 18-10-2019 16:05:00 14 C 9.41 g/m*3 14 C 16.1 km/h
771 18-10-2019 16:10:00 14 C 9.29 g/m*3 14 C 25.7 km/h
772 18-10-2019 16:15:00 14.1 C 9.1 g/m*3 14.1 C 17.7 km/h
773 18-10-2019 16:20:00 14.1 C 9.34 g/m*3 14.1 C 12.9 km/h
774 18-10-2019 16:25:00 14.2 C 9.16 g/m*3 14.2 C 14.5 km/h
775 18-10-2019 16:30:00 14.3 C 9.09 g/m*3 14.3 C 12.9 km/h
Sensor: Nr:Datum:Temp:Abs-Feuchte:Windchill:Wind:
Aussen-T/F 776 18-10-2019 16:35:00 14.4 C 9.27 g/m*3 14.4 C 20.9 km/h
777 18-10-2019 16:40:00 14.5 C 9.2 g/m*3 14.5 C 17.7 km/h
778 18-10-2019 16:45:00 14.5 C 9.58 g/m*3 14.5 C 3.2 km/h
779 18-10-2019 16:50:00 14.4 C 9.39 g/m*3 14.4 C 12.9 km/h
780 18-10-2019 16:55:00 14.4 C 9.15 g/m*3 14.4 C 14.5 km/h
781 18-10-2019 17:00:00 14.4 C 9.02 g/m*3 14.4 C 11.3 km/h
782 18-10-2019 17:05:00 14.4 C 9.15 g/m*3 14.4 C 8.1 km/h
783 18-10-2019 17:10:00 14.4 C 8.9 g/m*3 14.4 C 14.5 km/h
784 18-10-2019 17:15:00 14.5 C 9.2 g/m*3 14.5 C 3.2 km/h
785 18-10-2019 17:20:00 14.4 C 9.02 g/m*3 14.4 C 12.9 km/h
786 18-10-2019 17:25:00 14.4 C 8.78 g/m*3 14.4 C 12.9 km/h
787 18-10-2019 17:30:00 14.4 C 8.65 g/m*3 14.4 C 16.1 km/h
788 18-10-2019 17:35:00 14.5 C 9.33 g/m*3 14.5 C 6.4 km/h
789 18-10-2019 17:40:00 14.4 C 9.02 g/m*3 14.4 C 8.1 km/h
790 18-10-2019 17:45:00 14.4 C 9.15 g/m*3 14.4 C 12.9 km/h
791 18-10-2019 17:50:00 14.4 C 9.15 g/m*3 14.4 C 6.4 km/h
792 18-10-2019 17:55:00 14.3 C 9.34 g/m*3 14.3 C 4.8 km/h
793 18-10-2019 18:00:00 14.2 C 9.04 g/m*3 14.2 C 9.7 km/h
794 18-10-2019 18:05:00 14 C 9.17 g/m*3 14 C 9.7 km/h
795 18-10-2019 18:10:00 13.7 C 9.12 g/m*3 13.7 C 3.2 km/h
796 18-10-2019 18:15:00 13.3 C 8.9 g/m*3 13.3 C 6.4 km/h
797 18-10-2019 18:20:00 13 C 8.96 g/m*3 13 C 0 km/h
798 18-10-2019 18:25:00 12.7 C 9.02 g/m*3 12.7 C 0 km/h
799 18-10-2019 18:30:00 12.3 C 8.8 g/m*3 12.3 C 0 km/h
800 18-10-2019 18:35:00 12.1 C 8.9 g/m*3 12.1 C 0 km/h
Sensor: Nr:Datum:Temp:Abs-Feuchte:Windchill:Wind:
Aussen-T/F 801 18-10-2019 18:40:00 11.9 C 8.79 g/m*3 11.9 C 0 km/h
802 18-10-2019 18:45:00 11.7 C 8.79 g/m*3 11.7 C 0 km/h
803 18-10-2019 18:50:00 11.5 C 8.78 g/m*3 11.5 C 0 km/h
804 18-10-2019 18:55:00 11.3 C 8.77 g/m*3 11.3 C 0 km/h
805 18-10-2019 19:00:00 11.2 C 8.82 g/m*3 11.2 C 0 km/h
806 18-10-2019 19:05:00 11.1 C 8.76 g/m*3 11.1 C 0 km/h
807 18-10-2019 19:10:00 10.9 C 8.75 g/m*3 10.9 C 1.6 km/h
808 18-10-2019 19:15:00 10.8 C 8.7 g/m*3 10.8 C 0 km/h
809 18-10-2019 19:20:00 10.8 C 8.7 g/m*3 10.8 C 0 km/h
810 18-10-2019 19:25:00 10.7 C 8.74 g/m*3 10.7 C 1.6 km/h
811 18-10-2019 19:30:00 10.6 C 8.69 g/m*3 10.6 C 0 km/h
812 18-10-2019 19:35:00 10.5 C 8.63 g/m*3 10.5 C 0 km/h
813 18-10-2019 19:40:00 10.4 C 8.67 g/m*3 10.4 C 0 km/h
814 18-10-2019 19:45:00 10.3 C 8.62 g/m*3 10.3 C 0 km/h
815 18-10-2019 19:50:00 10.2 C 8.56 g/m*3 10.2 C 0 km/h
816 18-10-2019 19:55:00 10.1 C 8.51 g/m*3 10.1 C 0 km/h
817 18-10-2019 20:00:00 10 C 8.55 g/m*3 10 C 0 km/h
818 18-10-2019 20:05:00 9.9 C 8.5 g/m*3 9.9 C 0 km/h
819 18-10-2019 20:10:00 9.8 C 8.44 g/m*3 9.8 C 0 km/h
820 18-10-2019 20:15:00 9.8 C 8.44 g/m*3 9.8 C 0 km/h
821 18-10-2019 20:20:00 9.8 C 8.54 g/m*3 9.8 C 0 km/h
822 18-10-2019 20:25:00 9.8 C 8.54 g/m*3 9.8 C 0 km/h
823 18-10-2019 20:30:00 9.8 C 8.54 g/m*3 9.8 C 0 km/h
824 18-10-2019 20:35:00 9.7 C 8.48 g/m*3 9.7 C 0 km/h
825 18-10-2019 20:40:00 9.7 C 8.48 g/m*3 9.7 C 0 km/h
Sensor: Nr:Datum:Temp:Abs-Feuchte:Windchill:Wind:
Aussen-T/F 826 18-10-2019 20:45:00 9.6 C 8.43 g/m*3 9.6 C 0 km/h
827 18-10-2019 20:50:00 9.6 C 8.52 g/m*3 9.6 C 0 km/h
828 18-10-2019 20:55:00 9.6 C 8.52 g/m*3 9.6 C 0 km/h
829 18-10-2019 21:00:00 9.5 C 8.37 g/m*3 9.5 C 0 km/h
830 18-10-2019 21:05:00 9.4 C 8.41 g/m*3 9.4 C 0 km/h
831 18-10-2019 21:10:00 9.3 C 8.36 g/m*3 9.3 C 0 km/h
832 18-10-2019 21:15:00 9.3 C 8.36 g/m*3 9.3 C 0 km/h
833 18-10-2019 21:20:00 9.2 C 8.3 g/m*3 9.2 C 0 km/h
834 18-10-2019 21:25:00 9.2 C 8.3 g/m*3 9.2 C 0 km/h
835 18-10-2019 21:30:00 9.1 C 8.25 g/m*3 9.1 C 0 km/h
836 18-10-2019 21:35:00 9.1 C 8.34 g/m*3 9.1 C 0 km/h
837 18-10-2019 21:40:00 9.1 C 8.34 g/m*3 9.1 C 0 km/h
838 18-10-2019 21:45:00 9.1 C 8.34 g/m*3 9.1 C 0 km/h
839 18-10-2019 21:50:00 9.1 C 8.34 g/m*3 9.1 C 0 km/h
840 18-10-2019 21:55:00 9.1 C 8.34 g/m*3 9.1 C 0 km/h
841 18-10-2019 22:00:00 9.2 C 8.39 g/m*3 9.2 C 0 km/h
842 18-10-2019 22:05:00 9.2 C 8.48 g/m*3 9.2 C 0 km/h
843 18-10-2019 22:10:00 9.2 C 8.48 g/m*3 9.2 C 0 km/h
844 18-10-2019 22:15:00 9.2 C 8.48 g/m*3 9.2 C 0 km/h
845 18-10-2019 22:20:00 9.3 C 8.54 g/m*3 9.3 C 0 km/h
846 18-10-2019 22:25:00 9.3 C 8.54 g/m*3 9.3 C 0 km/h
847 18-10-2019 22:30:00 9.3 C 8.54 g/m*3 9.3 C 0 km/h
848 18-10-2019 22:35:00 9.3 C 8.54 g/m*3 9.3 C 0 km/h
849 18-10-2019 22:40:00 9.2 C 8.48 g/m*3 9.2 C 0 km/h
850 18-10-2019 22:45:00 9.2 C 8.48 g/m*3 9.2 C 0 km/h
Sensor: Nr:Datum:Temp:Abs-Feuchte:Windchill:Wind:
Aussen-T/F 851 18-10-2019 22:50:00 9.2 C 8.48 g/m*3 9.2 C 0 km/h
852 18-10-2019 22:55:00 9.2 C 8.48 g/m*3 9.2 C 0 km/h
853 18-10-2019 23:00:00 9.2 C 8.48 g/m*3 9.2 C 0 km/h
854 18-10-2019 23:05:00 9.1 C 8.43 g/m*3 9.1 C 0 km/h
855 18-10-2019 23:10:00 9.1 C 8.43 g/m*3 9.1 C 0 km/h
856 18-10-2019 23:15:00 9.1 C 8.43 g/m*3 9.1 C 0 km/h
857 18-10-2019 23:20:00 9.2 C 8.48 g/m*3 9.2 C 0 km/h
858 18-10-2019 23:25:00 9.2 C 8.48 g/m*3 9.2 C 0 km/h
859 18-10-2019 23:30:00 9.2 C 8.48 g/m*3 9.2 C 0 km/h
860 18-10-2019 23:35:00 9.2 C 8.48 g/m*3 9.2 C 0 km/h
861 18-10-2019 23:40:00 9.2 C 8.48 g/m*3 9.2 C 0 km/h
862 18-10-2019 23:45:00 9.1 C 8.43 g/m*3 9.1 C 0 km/h
863 18-10-2019 23:50:00 9.1 C 8.43 g/m*3 9.1 C 0 km/h
864 18-10-2019 23:55:00 9 C 8.38 g/m*3 9 C 0 km/h
865 19-10-2019 00:00:00 8.9 C 8.32 g/m*3 8.9 C 0 km/h
866 19-10-2019 00:05:00 8.9 C 8.32 g/m*3 8.9 C 0 km/h
867 19-10-2019 00:10:00 8.9 C 8.32 g/m*3 8.9 C 1.6 km/h
868 19-10-2019 00:15:00 8.9 C 8.32 g/m*3 8.9 C 0 km/h
869 19-10-2019 00:20:00 9 C 8.38 g/m*3 9 C 0 km/h
870 19-10-2019 00:25:00 9.1 C 8.52 g/m*3 9.1 C 0 km/h
871 19-10-2019 00:30:00 9.3 C 8.63 g/m*3 9.3 C 0 km/h
872 19-10-2019 00:35:00 9.3 C 8.63 g/m*3 9.3 C 1.6 km/h
873 19-10-2019 00:40:00 9.3 C 8.54 g/m*3 9.3 C 1.6 km/h
874 19-10-2019 00:45:00 9.3 C 8.54 g/m*3 9.3 C 0 km/h
875 19-10-2019 00:50:00 9.4 C 8.59 g/m*3 9.4 C 1.6 km/h
Sensor: Nr:Datum:Temp:Abs-Feuchte:Windchill:Wind:
Aussen-T/F 876 19-10-2019 00:55:00 9.4 C 8.59 g/m*3 9.4 C 1.6 km/h
877 19-10-2019 01:00:00 9.4 C 8.59 g/m*3 9.4 C 0 km/h
878 19-10-2019 01:05:00 9.4 C 8.59 g/m*3 9.4 C 1.6 km/h
879 19-10-2019 01:10:00 9.5 C 8.65 g/m*3 9.5 C 0 km/h
880 19-10-2019 01:15:00 9.6 C 8.7 g/m*3 9.6 C 0 km/h
881 19-10-2019 01:20:00 9.6 C 8.7 g/m*3 9.6 C 0 km/h
882 19-10-2019 01:25:00 9.7 C 8.76 g/m*3 9.7 C 1.6 km/h
883 19-10-2019 01:30:00 9.8 C 8.72 g/m*3 9.8 C 0 km/h
884 19-10-2019 01:35:00 9.8 C 8.72 g/m*3 9.8 C 0 km/h
885 19-10-2019 01:40:00 9.8 C 8.72 g/m*3 9.8 C 0 km/h
886 19-10-2019 01:45:00 9.7 C 8.67 g/m*3 9.7 C 0 km/h
887 19-10-2019 01:50:00 9.7 C 8.67 g/m*3 9.7 C 1.6 km/h
888 19-10-2019 01:55:00 9.7 C 8.67 g/m*3 9.7 C 0 km/h
889 19-10-2019 02:00:00 9.6 C 8.61 g/m*3 9.6 C 0 km/h
890 19-10-2019 02:05:00 9.6 C 8.61 g/m*3 9.6 C 0 km/h
891 19-10-2019 02:10:00 9.6 C 8.61 g/m*3 9.6 C 0 km/h
892 19-10-2019 02:15:00 9.6 C 8.61 g/m*3 9.6 C 0 km/h
893 19-10-2019 02:20:00 9.6 C 8.61 g/m*3 9.6 C 0 km/h
894 19-10-2019 02:25:00 9.6 C 8.61 g/m*3 9.6 C 0 km/h
895 19-10-2019 02:30:00 9.7 C 8.67 g/m*3 9.7 C 0 km/h
896 19-10-2019 02:35:00 9.7 C 8.76 g/m*3 9.7 C 0 km/h
897 19-10-2019 02:40:00 9.7 C 8.76 g/m*3 9.7 C 0 km/h
898 19-10-2019 02:45:00 9.7 C 8.76 g/m*3 9.7 C 0 km/h
899 19-10-2019 02:50:00 9.7 C 8.67 g/m*3 9.7 C 0 km/h
900 19-10-2019 02:55:00 9.8 C 8.72 g/m*3 9.8 C 0 km/h
Sensor: Nr:Datum:Temp:Abs-Feuchte:Windchill:Wind:
Aussen-T/F 901 19-10-2019 03:00:00 9.8 C 8.72 g/m*3 9.8 C 0 km/h
902 19-10-2019 03:05:00 9.8 C 8.72 g/m*3 9.8 C 0 km/h
903 19-10-2019 03:10:00 9.8 C 8.72 g/m*3 9.8 C 0 km/h
904 19-10-2019 03:15:00 9.8 C 8.72 g/m*3 9.8 C 0 km/h
905 19-10-2019 03:20:00 9.8 C 8.72 g/m*3 9.8 C 0 km/h
906 19-10-2019 03:25:00 9.9 C 8.78 g/m*3 9.9 C 0 km/h
907 19-10-2019 03:30:00 9.9 C 8.78 g/m*3 9.9 C 0 km/h
908 19-10-2019 03:35:00 9.9 C 8.78 g/m*3 9.9 C 0 km/h
909 19-10-2019 03:40:00 9.9 C 8.78 g/m*3 9.9 C 0 km/h
910 19-10-2019 03:45:00 9.9 C 8.78 g/m*3 9.9 C 0 km/h
911 19-10-2019 03:50:00 10 C 8.83 g/m*3 10 C 0 km/h
912 19-10-2019 03:55:00 10 C 8.83 g/m*3 10 C 0 km/h
913 19-10-2019 04:00:00 10 C 8.83 g/m*3 10 C 0 km/h
914 19-10-2019 04:05:00 10 C 8.83 g/m*3 10 C 1.6 km/h
915 19-10-2019 04:10:00 10 C 8.83 g/m*3 10 C 0 km/h
916 19-10-2019 04:15:00 10 C 8.83 g/m*3 10 C 0 km/h
917 19-10-2019 04:20:00 10 C 8.83 g/m*3 10 C 0 km/h
918 19-10-2019 04:25:00 10.1 C 8.89 g/m*3 10.1 C 0 km/h
919 19-10-2019 04:30:00 10.1 C 8.89 g/m*3 10.1 C 0 km/h
920 19-10-2019 04:35:00 10.2 C 8.95 g/m*3 10.2 C 0 km/h
921 19-10-2019 04:40:00 10.2 C 8.95 g/m*3 10.2 C 0 km/h
922 19-10-2019 04:45:00 10.2 C 8.95 g/m*3 10.2 C 1.6 km/h
923 19-10-2019 04:50:00 10.2 C 8.95 g/m*3 10.2 C 3.2 km/h
924 19-10-2019 04:55:00 10.3 C 9 g/m*3 10.3 C 0 km/h
925 19-10-2019 05:00:00 10.4 C 9.06 g/m*3 10.4 C 0 km/h
Sensor: Nr:Datum:Temp:Abs-Feuchte:Windchill:Wind:
Aussen-T/F 926 19-10-2019 05:05:00 10.4 C 9.06 g/m*3 10.4 C 3.2 km/h
927 19-10-2019 05:10:00 10.6 C 9.17 g/m*3 10.6 C 1.6 km/h
928 19-10-2019 05:15:00 10.6 C 9.17 g/m*3 10.6 C 0 km/h
929 19-10-2019 05:20:00 10.7 C 9.23 g/m*3 10.7 C 0 km/h
930 19-10-2019 05:25:00 10.7 C 9.23 g/m*3 10.7 C 4.8 km/h
931 19-10-2019 05:30:00 10.8 C 9.29 g/m*3 10.8 C 1.6 km/h
932 19-10-2019 05:35:00 10.8 C 9.29 g/m*3 10.8 C 0 km/h
933 19-10-2019 05:40:00 10.8 C 9.29 g/m*3 10.8 C 0 km/h
934 19-10-2019 05:45:00 10.8 C 9.29 g/m*3 10.8 C 0 km/h
935 19-10-2019 05:50:00 10.8 C 9.19 g/m*3 10.8 C 0 km/h
936 19-10-2019 05:55:00 10.8 C 9.19 g/m*3 10.8 C 0 km/h
937 19-10-2019 06:00:00 10.8 C 9.19 g/m*3 10.8 C 0 km/h
938 19-10-2019 06:05:00 10.8 C 9.19 g/m*3 10.8 C 0 km/h
939 19-10-2019 06:10:00 10.8 C 9.29 g/m*3 10.8 C 0 km/h
940 19-10-2019 06:15:00 10.8 C 9.29 g/m*3 10.8 C 0 km/h
941 19-10-2019 06:20:00 10.8 C 9.29 g/m*3 10.8 C 0 km/h
942 19-10-2019 06:25:00 10.7 C 9.13 g/m*3 10.7 C 0 km/h
943 19-10-2019 06:30:00 10.7 C 9.13 g/m*3 10.7 C 0 km/h
944 19-10-2019 06:35:00 10.7 C 9.13 g/m*3 10.7 C 0 km/h
945 19-10-2019 06:40:00 10.6 C 9.08 g/m*3 10.6 C 0 km/h
946 19-10-2019 06:45:00 10.6 C 9.17 g/m*3 10.6 C 0 km/h
947 19-10-2019 06:50:00 10.6 C 9.17 g/m*3 10.6 C 0 km/h
948 19-10-2019 06:55:00 10.6 C 9.17 g/m*3 10.6 C 0 km/h
949 19-10-2019 07:00:00 10.6 C 9.17 g/m*3 10.6 C 0 km/h
950 19-10-2019 07:05:00 10.6 C 9.17 g/m*3 10.6 C 0 km/h
Sensor: Nr:Datum:Temp:Abs-Feuchte:Windchill:Wind:
Aussen-T/F 951 19-10-2019 07:10:00 10.6 C 9.17 g/m*3 10.6 C 0 km/h
952 19-10-2019 07:15:00 10.6 C 9.17 g/m*3 10.6 C 0 km/h
953 19-10-2019 07:20:00 10.6 C 9.17 g/m*3 10.6 C 0 km/h
954 19-10-2019 07:25:00 10.6 C 9.17 g/m*3 10.6 C 0 km/h
955 19-10-2019 07:30:00 10.6 C 9.17 g/m*3 10.6 C 0 km/h
956 19-10-2019 07:35:00 10.6 C 9.17 g/m*3 10.6 C 0 km/h
957 19-10-2019 07:40:00 10.7 C 9.33 g/m*3 10.7 C 0 km/h
958 19-10-2019 07:45:00 10.7 C 9.33 g/m*3 10.7 C 0 km/h
959 19-10-2019 07:50:00 10.7 C 9.33 g/m*3 10.7 C 0 km/h
960 19-10-2019 07:55:00 10.8 C 9.39 g/m*3 10.8 C 0 km/h
961 19-10-2019 08:00:00 10.8 C 9.39 g/m*3 10.8 C 0 km/h
962 19-10-2019 08:05:00 10.8 C 9.39 g/m*3 10.8 C 0 km/h
963 19-10-2019 08:10:00 10.8 C 9.39 g/m*3 10.8 C 0 km/h
964 19-10-2019 08:15:00 10.8 C 9.39 g/m*3 10.8 C 0 km/h
965 19-10-2019 08:20:00 10.9 C 9.45 g/m*3 10.9 C 1.6 km/h
966 19-10-2019 08:25:00 11 C 9.51 g/m*3 11 C 1.6 km/h
967 19-10-2019 08:30:00 11.1 C 9.57 g/m*3 11.1 C 0 km/h
968 19-10-2019 08:35:00 11.2 C 9.63 g/m*3 11.2 C 0 km/h
969 19-10-2019 08:40:00 11.2 C 9.63 g/m*3 11.2 C 0 km/h
970 19-10-2019 08:45:00 11.3 C 9.69 g/m*3 11.3 C 0 km/h
971 19-10-2019 08:50:00 11.3 C 9.69 g/m*3 11.3 C 0 km/h
972 19-10-2019 08:55:00 11.4 C 9.75 g/m*3 11.4 C 0 km/h
973 19-10-2019 09:00:00 11.4 C 9.75 g/m*3 11.4 C 0 km/h
974 19-10-2019 09:05:00 11.5 C 9.81 g/m*3 11.5 C 0 km/h
975 19-10-2019 09:10:00 11.6 C 9.87 g/m*3 11.6 C 0 km/h
Sensor: Nr:Datum:Temp:Abs-Feuchte:Windchill:Wind:
Aussen-T/F 976 19-10-2019 09:15:00 11.6 C 9.87 g/m*3 11.6 C 1.6 km/h
977 19-10-2019 09:20:00 11.7 C 9.94 g/m*3 11.7 C 1.6 km/h
978 19-10-2019 09:25:00 11.8 C 9.89 g/m*3 11.8 C 1.6 km/h
979 19-10-2019 09:30:00 11.9 C 9.96 g/m*3 11.9 C 0 km/h
980 19-10-2019 09:35:00 12 C 10.02 g/m*3 12 C 0 km/h
981 19-10-2019 09:40:00 12.2 C 10.14 g/m*3 12.2 C 0 km/h
982 19-10-2019 09:45:00 12.2 C 10.14 g/m*3 12.2 C 0 km/h
983 19-10-2019 09:50:00 12.3 C 10.1 g/m*3 12.3 C 0 km/h
984 19-10-2019 09:55:00 12.3 C 10.1 g/m*3 12.3 C 0 km/h
985 19-10-2019 10:00:00 12.4 C 10.16 g/m*3 12.4 C 1.6 km/h
986 19-10-2019 10:05:00 12.6 C 10.18 g/m*3 12.6 C 4.8 km/h
987 19-10-2019 10:10:00 12.8 C 10.19 g/m*3 12.8 C 4.8 km/h
988 19-10-2019 10:15:00 12.8 C 10.19 g/m*3 12.8 C 1.6 km/h
989 19-10-2019 10:20:00 12.9 C 10.26 g/m*3 12.9 C 0 km/h
990 19-10-2019 10:25:00 13.1 C 10.27 g/m*3 13.1 C 0 km/h
991 19-10-2019 10:30:00 13.2 C 10.33 g/m*3 13.2 C 1.6 km/h
992 19-10-2019 10:35:00 13.2 C 10.33 g/m*3 13.2 C 0 km/h
993 19-10-2019 10:40:00 13.3 C 10.4 g/m*3 13.3 C 0 km/h
994 19-10-2019 10:45:00 13.3 C 10.4 g/m*3 13.3 C 0 km/h
995 19-10-2019 10:50:00 13.3 C 10.4 g/m*3 13.3 C 0 km/h
996 19-10-2019 10:55:00 13.4 C 10.46 g/m*3 13.4 C 0 km/h
997 19-10-2019 11:00:00 13.5 C 10.64 g/m*3 13.5 C 1.6 km/h
998 19-10-2019 11:05:00 13.5 C 10.64 g/m*3 13.5 C 1.6 km/h
999 19-10-2019 11:10:00 13.6 C 10.83 g/m*3 13.6 C 1.6 km/h
1000 19-10-2019 11:15:00 13.7 C 10.89 g/m*3 13.7 C 1.6 km/h
Sensor: Nr:Datum:Temp:Abs-Feuchte:Windchill:Wind:
Aussen-T/F 1001 19-10-2019 11:20:00 13.7 C 10.89 g/m*3 13.7 C 1.6 km/h
1002 19-10-2019 11:25:00 13.7 C 10.89 g/m*3 13.7 C 0 km/h
1003 19-10-2019 11:30:00 13.8 C 10.96 g/m*3 13.8 C 1.6 km/h
1004 19-10-2019 11:35:00 13.8 C 10.96 g/m*3 13.8 C 11.3 km/h
1005 19-10-2019 11:40:00 13.9 C 10.91 g/m*3 13.9 C 9.7 km/h
1006 19-10-2019 11:45:00 14.1 C 11.04 g/m*3 14.1 C 3.2 km/h
1007 19-10-2019 11:50:00 14.2 C 10.99 g/m*3 14.2 C 4.8 km/h
1008 19-10-2019 11:55:00 14.4 C 11.13 g/m*3 14.4 C 1.6 km/h
1009 19-10-2019 12:00:00 14.6 C 11.14 g/m*3 14.6 C 3.2 km/h
1010 19-10-2019 12:05:00 14.8 C 11.15 g/m*3 14.8 C 3.2 km/h
1011 19-10-2019 12:10:00 15.1 C 11.09 g/m*3 15.1 C 8.1 km/h
1012 19-10-2019 12:15:00 15.2 C 11.29 g/m*3 15.2 C 3.2 km/h
1013 19-10-2019 12:20:00 15.3 C 11.23 g/m*3 15.3 C 4.8 km/h
1014 19-10-2019 12:25:00 15.5 C 11.24 g/m*3 15.5 C 4.8 km/h
1015 19-10-2019 12:30:00 15.6 C 11.3 g/m*3 15.6 C 1.6 km/h
1016 19-10-2019 12:35:00 15.7 C 11.37 g/m*3 15.7 C 3.2 km/h
1017 19-10-2019 12:40:00 15.7 C 11.11 g/m*3 15.7 C 1.6 km/h
1018 19-10-2019 12:45:00 15.8 C 11.31 g/m*3 15.8 C 4.8 km/h
1019 19-10-2019 12:50:00 15.8 C 11.31 g/m*3 15.8 C 1.6 km/h
1020 19-10-2019 12:55:00 15.8 C 11.31 g/m*3 15.8 C 0 km/h
1021 19-10-2019 13:00:00 15.8 C 11.31 g/m*3 15.8 C 8.1 km/h
1022 19-10-2019 13:05:00 15.9 C 11.24 g/m*3 15.9 C 3.2 km/h
1023 19-10-2019 13:10:00 15.9 C 11.24 g/m*3 15.9 C 3.2 km/h
1024 19-10-2019 13:15:00 16.1 C 11.38 g/m*3 16.1 C 4.8 km/h
1025 19-10-2019 13:20:00 16.2 C 11.31 g/m*3 16.2 C 8.1 km/h
Sensor: Nr:Datum:Temp:Abs-Feuchte:Windchill:Wind:
Aussen-T/F 1026 19-10-2019 13:25:00 16.2 C 11.31 g/m*3 16.2 C 1.6 km/h
1027 19-10-2019 13:30:00 16.2 C 11.17 g/m*3 16.2 C 9.7 km/h
1028 19-10-2019 13:35:00 16.2 C 11.31 g/m*3 16.2 C 6.4 km/h
1029 19-10-2019 13:40:00 16.3 C 11.52 g/m*3 16.3 C 1.6 km/h
1030 19-10-2019 13:45:00 16.4 C 11.31 g/m*3 16.4 C 4.8 km/h
1031 19-10-2019 13:50:00 16.5 C 11.37 g/m*3 16.5 C 1.6 km/h
1032 19-10-2019 13:55:00 16.7 C 11.37 g/m*3 16.7 C 6.4 km/h
1033 19-10-2019 14:00:00 16.8 C 11.44 g/m*3 16.8 C 4.8 km/h
1034 19-10-2019 14:05:00 16.8 C 11.44 g/m*3 16.8 C 6.4 km/h
1035 19-10-2019 14:55:00 17.1 C 11.35 g/m*3 17.1 C 11.3 km/h
1036 19-10-2019 15:00:00 17.1 C 11.21 g/m*3 17.1 C 11.3 km/h
1037 19-10-2019 15:05:00 17.1 C 11.5 g/m*3 17.1 C 0 km/h
1038 19-10-2019 15:10:00 17.1 C 11.5 g/m*3 17.1 C 1.6 km/h
1039 19-10-2019 15:15:00 17.2 C 11.42 g/m*3 17.2 C 3.2 km/h
1040 19-10-2019 15:20:00 17.3 C 11.34 g/m*3 17.3 C 1.6 km/h
1041 19-10-2019 15:25:00 17.3 C 11.34 g/m*3 17.3 C 9.7 km/h
1042 19-10-2019 15:30:00 17.4 C 11.26 g/m*3 17.4 C 17.7 km/h
1043 19-10-2019 15:35:00 17.4 C 11.56 g/m*3 17.4 C 3.2 km/h
1044 19-10-2019 15:40:00 17.4 C 11.41 g/m*3 17.4 C 3.2 km/h
1045 19-10-2019 15:45:00 17.3 C 11.2 g/m*3 17.3 C 9.7 km/h
1046 19-10-2019 15:50:00 17.2 C 11.28 g/m*3 17.2 C 6.4 km/h
1047 19-10-2019 15:55:00 17.1 C 10.92 g/m*3 17.1 C 8.1 km/h
1048 19-10-2019 16:00:00 17.1 C 11.5 g/m*3 17.1 C 0 km/h
1049 19-10-2019 16:05:00 17.1 C 11.5 g/m*3 17.1 C 0 km/h
1050 19-10-2019 16:10:00 17.1 C 11.5 g/m*3 17.1 C 3.2 km/h
Sensor: Nr:Datum:Temp:Abs-Feuchte:Windchill:Wind:
Aussen-T/F 1051 19-10-2019 16:15:00 17.1 C 11.06 g/m*3 17.1 C 1.6 km/h
1052 19-10-2019 16:20:00 17.2 C 11.57 g/m*3 17.2 C 0 km/h
1053 19-10-2019 16:25:00 17.2 C 11.42 g/m*3 17.2 C 0 km/h
1054 19-10-2019 16:30:00 17.1 C 11.21 g/m*3 17.1 C 8.1 km/h
1055 19-10-2019 16:35:00 17.1 C 11.35 g/m*3 17.1 C 0 km/h
1056 19-10-2019 16:40:00 17.1 C 11.5 g/m*3 17.1 C 0 km/h
1057 19-10-2019 16:45:00 17.2 C 11.42 g/m*3 17.2 C 0 km/h
1058 19-10-2019 16:50:00 17.2 C 11.42 g/m*3 17.2 C 1.6 km/h
1059 19-10-2019 16:55:00 17.3 C 11.34 g/m*3 17.3 C 3.2 km/h
1060 19-10-2019 17:00:00 17.4 C 11.41 g/m*3 17.4 C 1.6 km/h
1061 19-10-2019 17:05:00 17.3 C 11.34 g/m*3 17.3 C 4.8 km/h
1062 19-10-2019 17:10:00 17.2 C 10.98 g/m*3 17.2 C 8.1 km/h
1063 19-10-2019 17:15:00 17.2 C 11.57 g/m*3 17.2 C 0 km/h
1064 19-10-2019 17:20:00 17.1 C 11.65 g/m*3 17.1 C 3.2 km/h
1065 19-10-2019 17:25:00 17 C 11.58 g/m*3 17 C 0 km/h
1066 19-10-2019 17:30:00 16.9 C 11.79 g/m*3 16.9 C 0 km/h
1067 19-10-2019 17:35:00 16.7 C 11.8 g/m*3 16.7 C 0 km/h
1068 19-10-2019 17:40:00 16.6 C 11.87 g/m*3 16.6 C 0 km/h
1069 19-10-2019 17:45:00 16.4 C 11.72 g/m*3 16.4 C 0 km/h
1070 19-10-2019 17:50:00 16.2 C 11.58 g/m*3 16.2 C 6.4 km/h
1071 19-10-2019 17:55:00 16.1 C 11.79 g/m*3 16.1 C 0 km/h
1072 19-10-2019 18:00:00 15.9 C 11.78 g/m*3 15.9 C 0 km/h
1073 19-10-2019 18:05:00 15.8 C 11.71 g/m*3 15.8 C 0 km/h
1074 19-10-2019 18:10:00 15.7 C 11.77 g/m*3 15.7 C 0 km/h
1075 19-10-2019 18:15:00 15.5 C 11.76 g/m*3 15.5 C 0 km/h
Sensor: Nr:Datum:Temp:Abs-Feuchte:Windchill:Wind:
Aussen-T/F 1076 19-10-2019 18:20:00 15.3 C 11.62 g/m*3 15.3 C 1.6 km/h
1077 19-10-2019 18:25:00 15.2 C 11.68 g/m*3 15.2 C 1.6 km/h
1078 19-10-2019 18:30:00 14.9 C 11.47 g/m*3 14.9 C 3.2 km/h
1079 19-10-2019 18:35:00 14.8 C 11.53 g/m*3 14.8 C 1.6 km/h
1080 19-10-2019 18:40:00 14.7 C 11.46 g/m*3 14.7 C 1.6 km/h
1081 19-10-2019 18:45:00 14.6 C 11.51 g/m*3 14.6 C 0 km/h
1082 19-10-2019 18:50:00 14.4 C 11.37 g/m*3 14.4 C 0 km/h
1083 19-10-2019 19:00:00 14.3 C 11.3 g/m*3 14.3 C 0 km/h
1084 19-10-2019 19:05:00 14.2 C 11.36 g/m*3 14.2 C 0 km/h
1085 19-10-2019 19:10:00 14.2 C 11.36 g/m*3 14.2 C 0 km/h
1086 19-10-2019 19:15:00 14.2 C 11.36 g/m*3 14.2 C 0 km/h
1087 19-10-2019 19:20:00 14.1 C 11.41 g/m*3 14.1 C 0 km/h
1088 19-10-2019 19:25:00 14.1 C 11.41 g/m*3 14.1 C 0 km/h
1089 19-10-2019 19:30:00 14 C 11.34 g/m*3 14 C 0 km/h
1090 19-10-2019 19:35:00 13.9 C 11.27 g/m*3 13.9 C 0 km/h
1091 19-10-2019 19:40:00 13.9 C 11.27 g/m*3 13.9 C 0 km/h
1092 19-10-2019 19:45:00 13.9 C 11.27 g/m*3 13.9 C 0 km/h
1093 19-10-2019 19:50:00 13.8 C 11.2 g/m*3 13.8 C 0 km/h
1094 19-10-2019 19:55:00 13.8 C 11.32 g/m*3 13.8 C 0 km/h
1095 19-10-2019 20:00:00 13.8 C 11.2 g/m*3 13.8 C 0 km/h
1096 19-10-2019 20:05:00 13.7 C 11.25 g/m*3 13.7 C 0 km/h
1097 19-10-2019 20:10:00 13.7 C 11.25 g/m*3 13.7 C 0 km/h
1098 19-10-2019 20:15:00 13.7 C 11.25 g/m*3 13.7 C 0 km/h
1099 19-10-2019 20:20:00 13.7 C 11.25 g/m*3 13.7 C 0 km/h
1100 19-10-2019 20:25:00 13.7 C 11.25 g/m*3 13.7 C 0 km/h
Sensor: Nr:Datum:Temp:Abs-Feuchte:Windchill:Wind:
Aussen-T/F 1101 19-10-2019 20:30:00 13.6 C 11.18 g/m*3 13.6 C 0 km/h
1102 19-10-2019 20:35:00 13.6 C 11.18 g/m*3 13.6 C 0 km/h
1103 19-10-2019 20:40:00 13.5 C 11.11 g/m*3 13.5 C 0 km/h
1104 19-10-2019 20:45:00 13.5 C 11.11 g/m*3 13.5 C 0 km/h
1105 19-10-2019 20:50:00 13.5 C 11.11 g/m*3 13.5 C 0 km/h
1106 19-10-2019 20:55:00 13.5 C 11.11 g/m*3 13.5 C 0 km/h
1107 19-10-2019 21:00:00 13.5 C 11.11 g/m*3 13.5 C 1.6 km/h
1108 19-10-2019 21:05:00 13.5 C 11.11 g/m*3 13.5 C 1.6 km/h
1109 19-10-2019 21:10:00 13.5 C 11.11 g/m*3 13.5 C 0 km/h
1110 19-10-2019 21:15:00 13.5 C 11.11 g/m*3 13.5 C 0 km/h
1111 19-10-2019 21:20:00 13.4 C 11.16 g/m*3 13.4 C 1.6 km/h
1112 19-10-2019 21:25:00 13.4 C 11.16 g/m*3 13.4 C 0 km/h
1113 19-10-2019 21:30:00 13.4 C 11.16 g/m*3 13.4 C 1.6 km/h
1114 19-10-2019 21:35:00 13.4 C 11.16 g/m*3 13.4 C 0 km/h
1115 19-10-2019 21:40:00 13.4 C 11.16 g/m*3 13.4 C 0 km/h
1116 19-10-2019 21:45:00 13.4 C 11.16 g/m*3 13.4 C 0 km/h
1117 19-10-2019 21:50:00 13.4 C 11.16 g/m*3 13.4 C 0 km/h
1118 19-10-2019 21:55:00 13.4 C 11.16 g/m*3 13.4 C 0 km/h
1119 19-10-2019 22:00:00 13.3 C 11.09 g/m*3 13.3 C 0 km/h
1120 19-10-2019 22:05:00 13.3 C 11.09 g/m*3 13.3 C 0 km/h
1121 19-10-2019 22:10:00 13.3 C 11.09 g/m*3 13.3 C 0 km/h
1122 19-10-2019 22:15:00 13.3 C 11.09 g/m*3 13.3 C 0 km/h
1123 19-10-2019 22:20:00 13.3 C 11.09 g/m*3 13.3 C 0 km/h
1124 19-10-2019 22:25:00 13.2 C 11.02 g/m*3 13.2 C 0 km/h
1125 19-10-2019 22:30:00 13.2 C 11.02 g/m*3 13.2 C 0 km/h
Sensor: Nr:Datum:Temp:Abs-Feuchte:Windchill:Wind:
Aussen-T/F 1126 19-10-2019 22:35:00 13.2 C 11.02 g/m*3 13.2 C 0 km/h
1127 19-10-2019 22:40:00 13.2 C 11.02 g/m*3 13.2 C 0 km/h
1128 19-10-2019 22:45:00 13.1 C 10.95 g/m*3 13.1 C 0 km/h
1129 19-10-2019 22:50:00 13.1 C 10.95 g/m*3 13.1 C 0 km/h
1130 19-10-2019 22:55:00 13.1 C 10.95 g/m*3 13.1 C 0 km/h
1131 19-10-2019 23:00:00 13.1 C 10.95 g/m*3 13.1 C 0 km/h
1132 19-10-2019 23:05:00 13.1 C 10.95 g/m*3 13.1 C 0 km/h
1133 19-10-2019 23:10:00 13.1 C 10.95 g/m*3 13.1 C 0 km/h
1134 19-10-2019 23:15:00 13.1 C 10.95 g/m*3 13.1 C 0 km/h
1135 19-10-2019 23:20:00 13 C 10.89 g/m*3 13 C 0 km/h
1136 19-10-2019 23:25:00 13 C 10.89 g/m*3 13 C 0 km/h
1137 19-10-2019 23:30:00 13 C 10.89 g/m*3 13 C 0 km/h
1138 19-10-2019 23:35:00 12.9 C 10.82 g/m*3 12.9 C 0 km/h
1139 19-10-2019 23:40:00 13 C 10.89 g/m*3 13 C 0 km/h
1140 19-10-2019 23:45:00 12.9 C 10.82 g/m*3 12.9 C 0 km/h
1141 19-10-2019 23:50:00 12.9 C 10.82 g/m*3 12.9 C 0 km/h
1142 19-10-2019 23:55:00 13 C 10.89 g/m*3 13 C 0 km/h
1143 20-10-2019 00:00:00 12.9 C 10.82 g/m*3 12.9 C 0 km/h
1144 20-10-2019 00:05:00 13 C 10.89 g/m*3 13 C 0 km/h
1145 20-10-2019 00:10:00 13 C 10.89 g/m*3 13 C 0 km/h
1146 20-10-2019 00:15:00 13 C 11 g/m*3 13 C 0 km/h
1147 20-10-2019 00:20:00 13 C 10.89 g/m*3 13 C 0 km/h
1148 20-10-2019 00:25:00 13 C 11 g/m*3 13 C 0 km/h
1149 20-10-2019 00:30:00 13 C 11 g/m*3 13 C 0 km/h
1150 20-10-2019 00:35:00 13 C 11 g/m*3 13 C 0 km/h
Sensor: Nr:Datum:Temp:Abs-Feuchte:Windchill:Wind:
Aussen-T/F 1151 20-10-2019 00:40:00 13 C 11 g/m*3 13 C 0 km/h
1152 20-10-2019 00:45:00 13 C 11 g/m*3 13 C 0 km/h
1153 20-10-2019 00:50:00 13 C 11 g/m*3 13 C 0 km/h
1154 20-10-2019 00:55:00 13.1 C 11.07 g/m*3 13.1 C 0 km/h
1155 20-10-2019 01:00:00 13.1 C 11.07 g/m*3 13.1 C 0 km/h
1156 20-10-2019 01:05:00 13.1 C 11.07 g/m*3 13.1 C 0 km/h
1157 20-10-2019 01:10:00 13.1 C 11.07 g/m*3 13.1 C 0 km/h
1158 20-10-2019 01:15:00 13.1 C 11.07 g/m*3 13.1 C 0 km/h
1159 20-10-2019 01:20:00 13.1 C 11.07 g/m*3 13.1 C 0 km/h
1160 20-10-2019 01:25:00 13.1 C 11.07 g/m*3 13.1 C 0 km/h
1161 20-10-2019 01:30:00 13.1 C 11.07 g/m*3 13.1 C 0 km/h
1162 20-10-2019 01:35:00 13.1 C 11.07 g/m*3 13.1 C 0 km/h
1163 20-10-2019 01:40:00 13.2 C 11.14 g/m*3 13.2 C 0 km/h
1164 20-10-2019 01:45:00 13.2 C 11.14 g/m*3 13.2 C 0 km/h
1165 20-10-2019 01:50:00 13.2 C 11.14 g/m*3 13.2 C 0 km/h
1166 20-10-2019 01:55:00 13.2 C 11.14 g/m*3 13.2 C 0 km/h
1167 20-10-2019 02:00:00 13.2 C 11.14 g/m*3 13.2 C 0 km/h
1168 20-10-2019 02:05:00 13.2 C 11.14 g/m*3 13.2 C 0 km/h
1169 20-10-2019 02:10:00 13.1 C 11.07 g/m*3 13.1 C 0 km/h
1170 20-10-2019 02:15:00 13.1 C 11.07 g/m*3 13.1 C 0 km/h
1171 20-10-2019 02:20:00 13.1 C 11.07 g/m*3 13.1 C 0 km/h
1172 20-10-2019 02:25:00 13.1 C 11.07 g/m*3 13.1 C 0 km/h
1173 20-10-2019 02:30:00 13.1 C 11.07 g/m*3 13.1 C 0 km/h
1174 20-10-2019 02:35:00 13.1 C 11.07 g/m*3 13.1 C 0 km/h
1175 20-10-2019 02:40:00 13.1 C 11.07 g/m*3 13.1 C 0 km/h
Sensor: Nr:Datum:Temp:Abs-Feuchte:Windchill:Wind:
Aussen-T/F 1176 20-10-2019 02:45:00 13.1 C 11.07 g/m*3 13.1 C 0 km/h
1177 20-10-2019 02:50:00 13.1 C 11.07 g/m*3 13.1 C 0 km/h
1178 20-10-2019 02:55:00 13.1 C 11.07 g/m*3 13.1 C 0 km/h
1179 20-10-2019 03:00:00 13.1 C 11.07 g/m*3 13.1 C 0 km/h
1180 20-10-2019 03:05:00 13.1 C 11.07 g/m*3 13.1 C 0 km/h
1181 20-10-2019 03:10:00 13.1 C 11.07 g/m*3 13.1 C 0 km/h
1182 20-10-2019 03:15:00 13.1 C 11.07 g/m*3 13.1 C 0 km/h
1183 20-10-2019 03:20:00 13.1 C 11.07 g/m*3 13.1 C 0 km/h
1184 20-10-2019 03:25:00 13.1 C 11.07 g/m*3 13.1 C 0 km/h
1185 20-10-2019 03:30:00 13.1 C 11.07 g/m*3 13.1 C 0 km/h
1186 20-10-2019 03:35:00 13.1 C 11.07 g/m*3 13.1 C 0 km/h
1187 20-10-2019 03:40:00 13.1 C 11.07 g/m*3 13.1 C 0 km/h
1188 20-10-2019 03:45:00 13.1 C 11.07 g/m*3 13.1 C 0 km/h
1189 20-10-2019 03:50:00 13.1 C 11.07 g/m*3 13.1 C 0 km/h
1190 20-10-2019 03:55:00 13.1 C 11.07 g/m*3 13.1 C 0 km/h
1191 20-10-2019 04:00:00 13.1 C 11.07 g/m*3 13.1 C 0 km/h
1192 20-10-2019 04:05:00 13.2 C 11.14 g/m*3 13.2 C 0 km/h
1193 20-10-2019 04:10:00 13.2 C 11.14 g/m*3 13.2 C 0 km/h
1194 20-10-2019 04:15:00 13.2 C 11.14 g/m*3 13.2 C 0 km/h
1195 20-10-2019 04:20:00 13.2 C 11.14 g/m*3 13.2 C 0 km/h
1196 20-10-2019 04:25:00 13.2 C 11.14 g/m*3 13.2 C 0 km/h
1197 20-10-2019 04:30:00 13.2 C 11.14 g/m*3 13.2 C 0 km/h
1198 20-10-2019 04:35:00 13.2 C 11.14 g/m*3 13.2 C 0 km/h
1199 20-10-2019 04:40:00 13.2 C 11.14 g/m*3 13.2 C 0 km/h
1200 20-10-2019 04:45:00 13.1 C 11.07 g/m*3 13.1 C 0 km/h
Sensor: Nr:Datum:Temp:Abs-Feuchte:Windchill:Wind:
Aussen-T/F 1201 20-10-2019 04:50:00 13.1 C 11.07 g/m*3 13.1 C 0 km/h
1202 20-10-2019 04:55:00 13.1 C 11.07 g/m*3 13.1 C 0 km/h
1203 20-10-2019 05:00:00 13.1 C 11.07 g/m*3 13.1 C 0 km/h
1204 20-10-2019 05:05:00 13.1 C 11.07 g/m*3 13.1 C 0 km/h
1205 20-10-2019 05:10:00 13.1 C 11.07 g/m*3 13.1 C 0 km/h
1206 20-10-2019 05:15:00 13.1 C 11.07 g/m*3 13.1 C 3.2 km/h
1207 20-10-2019 05:20:00 13 C 11 g/m*3 13 C 0 km/h
1208 20-10-2019 05:25:00 12.9 C 10.93 g/m*3 12.9 C 0 km/h
1209 20-10-2019 05:30:00 12.9 C 10.93 g/m*3 12.9 C 0 km/h
1210 20-10-2019 05:35:00 12.9 C 10.93 g/m*3 12.9 C 0 km/h
1211 20-10-2019 05:40:00 12.9 C 10.93 g/m*3 12.9 C 0 km/h
1212 20-10-2019 05:45:00 12.9 C 10.93 g/m*3 12.9 C 0 km/h
1213 20-10-2019 05:50:00 12.9 C 10.93 g/m*3 12.9 C 0 km/h
1214 20-10-2019 05:55:00 12.8 C 10.87 g/m*3 12.8 C 0 km/h
1215 20-10-2019 06:00:00 12.8 C 10.87 g/m*3 12.8 C 0 km/h
1216 20-10-2019 06:05:00 12.8 C 10.87 g/m*3 12.8 C 0 km/h
1217 20-10-2019 06:10:00 12.8 C 10.87 g/m*3 12.8 C 0 km/h
1218 20-10-2019 06:15:00 12.8 C 10.87 g/m*3 12.8 C 0 km/h
1219 20-10-2019 06:20:00 12.8 C 10.87 g/m*3 12.8 C 0 km/h
1220 20-10-2019 06:25:00 12.7 C 10.8 g/m*3 12.7 C 0 km/h
1221 20-10-2019 06:30:00 12.7 C 10.8 g/m*3 12.7 C 0 km/h
1222 20-10-2019 06:35:00 12.7 C 10.8 g/m*3 12.7 C 0 km/h
1223 20-10-2019 06:40:00 12.7 C 10.8 g/m*3 12.7 C 0 km/h
1224 20-10-2019 06:45:00 12.7 C 10.8 g/m*3 12.7 C 0 km/h
1225 20-10-2019 06:50:00 12.7 C 10.8 g/m*3 12.7 C 0 km/h
Sensor: Nr:Datum:Temp:Abs-Feuchte:Windchill:Wind:
Aussen-T/F 1226 20-10-2019 06:55:00 12.7 C 10.8 g/m*3 12.7 C 0 km/h
1227 20-10-2019 07:00:00 12.7 C 10.8 g/m*3 12.7 C 0 km/h
1228 20-10-2019 07:05:00 12.7 C 10.8 g/m*3 12.7 C 0 km/h
1229 20-10-2019 07:10:00 12.7 C 10.8 g/m*3 12.7 C 0 km/h
1230 20-10-2019 07:15:00 12.7 C 10.8 g/m*3 12.7 C 0 km/h
1231 20-10-2019 07:20:00 12.7 C 10.8 g/m*3 12.7 C 0 km/h
1232 20-10-2019 07:25:00 12.7 C 10.8 g/m*3 12.7 C 0 km/h
1233 20-10-2019 07:30:00 12.6 C 10.73 g/m*3 12.6 C 0 km/h
1234 20-10-2019 07:35:00 12.6 C 10.73 g/m*3 12.6 C 0 km/h
1235 20-10-2019 07:40:00 12.6 C 10.73 g/m*3 12.6 C 0 km/h
1236 20-10-2019 07:45:00 12.6 C 10.73 g/m*3 12.6 C 0 km/h
1237 20-10-2019 07:50:00 12.6 C 10.73 g/m*3 12.6 C 0 km/h
1238 20-10-2019 07:55:00 12.6 C 10.73 g/m*3 12.6 C 0 km/h
1239 20-10-2019 08:00:00 12.6 C 10.73 g/m*3 12.6 C 0 km/h
1240 20-10-2019 08:05:00 12.7 C 10.8 g/m*3 12.7 C 0 km/h
1241 20-10-2019 08:10:00 12.7 C 10.8 g/m*3 12.7 C 0 km/h
1242 20-10-2019 08:15:00 12.7 C 10.8 g/m*3 12.7 C 0 km/h
1243 20-10-2019 08:20:00 12.7 C 10.8 g/m*3 12.7 C 0 km/h
1244 20-10-2019 08:25:00 12.7 C 10.8 g/m*3 12.7 C 0 km/h
1245 20-10-2019 08:30:00 12.7 C 10.8 g/m*3 12.7 C 0 km/h
1246 20-10-2019 08:35:00 12.7 C 10.8 g/m*3 12.7 C 0 km/h
1247 20-10-2019 08:40:00 12.7 C 10.8 g/m*3 12.7 C 0 km/h
1248 20-10-2019 08:45:00 12.7 C 10.8 g/m*3 12.7 C 0 km/h
1249 20-10-2019 08:50:00 12.8 C 10.87 g/m*3 12.8 C 0 km/h
1250 20-10-2019 08:55:00 12.8 C 10.87 g/m*3 12.8 C 0 km/h
Sensor: Nr:Datum:Temp:Abs-Feuchte:Windchill:Wind:
Aussen-T/F 1251 20-10-2019 09:00:00 12.8 C 10.87 g/m*3 12.8 C 0 km/h
1252 20-10-2019 09:05:00 12.8 C 10.87 g/m*3 12.8 C 0 km/h
1253 20-10-2019 09:10:00 12.8 C 10.87 g/m*3 12.8 C 0 km/h
1254 20-10-2019 09:15:00 12.8 C 10.98 g/m*3 12.8 C 0 km/h
1255 20-10-2019 09:20:00 12.8 C 10.87 g/m*3 12.8 C 0 km/h
1256 20-10-2019 09:25:00 12.8 C 10.87 g/m*3 12.8 C 0 km/h
1257 20-10-2019 09:30:00 12.8 C 10.98 g/m*3 12.8 C 1.6 km/h
1258 20-10-2019 09:35:00 12.9 C 11.05 g/m*3 12.9 C 0 km/h
1259 20-10-2019 09:40:00 12.9 C 11.05 g/m*3 12.9 C 0 km/h
1260 20-10-2019 09:45:00 12.9 C 11.05 g/m*3 12.9 C 0 km/h
1261 20-10-2019 09:50:00 12.9 C 11.05 g/m*3 12.9 C 0 km/h
1262 20-10-2019 09:55:00 12.9 C 11.05 g/m*3 12.9 C 0 km/h
1263 20-10-2019 10:00:00 12.9 C 11.05 g/m*3 12.9 C 0 km/h
1264 20-10-2019 10:05:00 12.9 C 11.05 g/m*3 12.9 C 0 km/h
1265 20-10-2019 10:10:00 13 C 11.11 g/m*3 13 C 0 km/h
1266 20-10-2019 10:15:00 13 C 11.11 g/m*3 13 C 0 km/h
1267 20-10-2019 10:20:00 13.1 C 11.18 g/m*3 13.1 C 0 km/h
1268 20-10-2019 10:25:00 13 C 11.11 g/m*3 13 C 0 km/h
1269 20-10-2019 10:30:00 13.1 C 11.18 g/m*3 13.1 C 1.6 km/h
1270 20-10-2019 10:35:00 13.1 C 11.07 g/m*3 13.1 C 0 km/h
1271 20-10-2019 10:40:00 13.1 C 11.07 g/m*3 13.1 C 0 km/h
1272 20-10-2019 10:45:00 13.1 C 11.07 g/m*3 13.1 C 0 km/h
1273 20-10-2019 10:50:00 13.1 C 11.07 g/m*3 13.1 C 0 km/h
1274 20-10-2019 10:55:00 13.1 C 11.07 g/m*3 13.1 C 0 km/h
1275 20-10-2019 11:00:00 13.1 C 11.07 g/m*3 13.1 C 0 km/h
Sensor: Nr:Datum:Temp:Abs-Feuchte:Windchill:Wind:
Aussen-T/F 1276 20-10-2019 11:05:00 13.2 C 11.25 g/m*3 13.2 C 0 km/h
1277 20-10-2019 11:10:00 13.2 C 11.25 g/m*3 13.2 C 1.6 km/h
1278 20-10-2019 11:15:00 13.2 C 11.14 g/m*3 13.2 C 0 km/h
1279 20-10-2019 11:20:00 13.2 C 11.14 g/m*3 13.2 C 0 km/h
1280 20-10-2019 11:25:00 13.2 C 11.25 g/m*3 13.2 C 1.6 km/h
1281 20-10-2019 11:30:00 13.3 C 11.32 g/m*3 13.3 C 0 km/h
1282 20-10-2019 11:35:00 13.3 C 11.32 g/m*3 13.3 C 0 km/h
1283 20-10-2019 11:40:00 13.3 C 11.32 g/m*3 13.3 C 0 km/h
1284 20-10-2019 11:45:00 13.3 C 11.32 g/m*3 13.3 C 3.2 km/h
1285 20-10-2019 11:50:00 13.4 C 11.39 g/m*3 13.4 C 0 km/h
1286 20-10-2019 11:55:00 13.4 C 11.39 g/m*3 13.4 C 0 km/h
1287 20-10-2019 12:00:00 13.5 C 11.46 g/m*3 13.5 C 0 km/h
1288 20-10-2019 12:05:00 13.5 C 11.46 g/m*3 13.5 C 0 km/h
1289 20-10-2019 12:10:00 13.6 C 11.53 g/m*3 13.6 C 0 km/h
1290 20-10-2019 12:15:00 13.6 C 11.53 g/m*3 13.6 C 0 km/h
1291 20-10-2019 12:20:00 13.6 C 11.53 g/m*3 13.6 C 0 km/h
1292 20-10-2019 12:25:00 13.7 C 11.6 g/m*3 13.7 C 0 km/h
1293 20-10-2019 12:30:00 13.7 C 11.6 g/m*3 13.7 C 0 km/h
1294 20-10-2019 12:35:00 13.7 C 11.6 g/m*3 13.7 C 0 km/h
1295 20-10-2019 12:40:00 13.8 C 11.68 g/m*3 13.8 C 0 km/h
1296 20-10-2019 12:45:00 13.8 C 11.68 g/m*3 13.8 C 0 km/h
1297 20-10-2019 12:50:00 13.9 C 11.75 g/m*3 13.9 C 0 km/h
1298 20-10-2019 12:55:00 13.9 C 11.75 g/m*3 13.9 C 0 km/h
1299 20-10-2019 13:00:00 14 C 11.82 g/m*3 14 C 0 km/h
1300 20-10-2019 13:05:00 13.9 C 11.75 g/m*3 13.9 C 1.6 km/h
Sensor: Nr:Datum:Temp:Abs-Feuchte:Windchill:Wind:
Aussen-T/F 1301 20-10-2019 13:10:00 13.9 C 11.75 g/m*3 13.9 C 0 km/h
1302 20-10-2019 13:15:00 13.9 C 11.75 g/m*3 13.9 C 0 km/h
1303 20-10-2019 13:20:00 13.9 C 11.75 g/m*3 13.9 C 0 km/h
1304 20-10-2019 13:25:00 13.9 C 11.75 g/m*3 13.9 C 0 km/h
1305 20-10-2019 13:30:00 13.9 C 11.75 g/m*3 13.9 C 0 km/h
1306 20-10-2019 13:35:00 13.9 C 11.75 g/m*3 13.9 C 0 km/h
1307 20-10-2019 13:40:00 14 C 11.82 g/m*3 14 C 0 km/h
1308 20-10-2019 13:45:00 14 C 11.82 g/m*3 14 C 0 km/h
1309 20-10-2019 13:50:00 14.1 C 11.89 g/m*3 14.1 C 0 km/h
1310 20-10-2019 13:55:00 14.2 C 11.97 g/m*3 14.2 C 0 km/h
1311 20-10-2019 14:00:00 14.3 C 12.04 g/m*3 14.3 C 1.6 km/h
1312 20-10-2019 14:05:00 14.2 C 11.97 g/m*3 14.2 C 1.6 km/h
1313 20-10-2019 14:10:00 14.2 C 11.97 g/m*3 14.2 C 0 km/h
1314 20-10-2019 14:15:00 14.2 C 11.97 g/m*3 14.2 C 0 km/h
1315 20-10-2019 14:20:00 14.2 C 11.97 g/m*3 14.2 C 3.2 km/h
1316 20-10-2019 14:25:00 14.2 C 11.97 g/m*3 14.2 C 0 km/h
1317 20-10-2019 14:30:00 14.3 C 12.04 g/m*3 14.3 C 0 km/h
1318 20-10-2019 14:35:00 14.3 C 12.04 g/m*3 14.3 C 0 km/h
1319 20-10-2019 14:40:00 14.3 C 12.04 g/m*3 14.3 C 0 km/h
1320 20-10-2019 14:45:00 14.3 C 12.04 g/m*3 14.3 C 0 km/h
1321 20-10-2019 14:50:00 14.4 C 12.11 g/m*3 14.4 C 0 km/h
1322 20-10-2019 14:55:00 14.4 C 12.11 g/m*3 14.4 C 0 km/h
1323 20-10-2019 15:00:00 14.4 C 12.11 g/m*3 14.4 C 0 km/h
1324 20-10-2019 15:05:00 14.4 C 12.11 g/m*3 14.4 C 0 km/h
1325 20-10-2019 15:10:00 14.4 C 12.11 g/m*3 14.4 C 0 km/h
Sensor: Nr:Datum:Temp:Abs-Feuchte:Windchill:Wind:
Aussen-T/F 1326 20-10-2019 15:15:00 14.5 C 12.19 g/m*3 14.5 C 0 km/h
1327 20-10-2019 15:20:00 14.5 C 12.19 g/m*3 14.5 C 0 km/h
1328 20-10-2019 15:25:00 14.5 C 12.19 g/m*3 14.5 C 0 km/h
1329 20-10-2019 15:30:00 14.6 C 12.26 g/m*3 14.6 C 0 km/h
1330 20-10-2019 15:35:00 14.6 C 12.26 g/m*3 14.6 C 0 km/h
1331 20-10-2019 15:40:00 14.6 C 12.26 g/m*3 14.6 C 0 km/h
1332 20-10-2019 15:45:00 14.6 C 12.26 g/m*3 14.6 C 0 km/h
1333 20-10-2019 15:50:00 14.6 C 12.26 g/m*3 14.6 C 0 km/h
1334 20-10-2019 15:55:00 14.6 C 12.26 g/m*3 14.6 C 0 km/h
1335 20-10-2019 16:00:00 14.6 C 12.26 g/m*3 14.6 C 0 km/h
1336 20-10-2019 16:05:00 14.7 C 12.34 g/m*3 14.7 C 0 km/h
1337 20-10-2019 16:10:00 14.7 C 12.34 g/m*3 14.7 C 0 km/h
1338 20-10-2019 16:15:00 14.8 C 12.41 g/m*3 14.8 C 0 km/h
1339 20-10-2019 16:20:00 14.8 C 12.41 g/m*3 14.8 C 0 km/h
1340 20-10-2019 16:25:00 14.9 C 12.49 g/m*3 14.9 C 1.6 km/h
1341 20-10-2019 16:30:00 14.9 C 12.49 g/m*3 14.9 C 0 km/h
1342 20-10-2019 16:35:00 14.9 C 12.49 g/m*3 14.9 C 1.6 km/h
1343 20-10-2019 16:40:00 14.9 C 12.49 g/m*3 14.9 C 0 km/h
1344 20-10-2019 16:45:00 14.9 C 12.49 g/m*3 14.9 C 0 km/h
1345 20-10-2019 16:50:00 14.9 C 12.49 g/m*3 14.9 C 0 km/h
1346 20-10-2019 16:55:00 15 C 12.57 g/m*3 15 C 0 km/h
1347 20-10-2019 17:00:00 15 C 12.57 g/m*3 15 C 0 km/h
1348 20-10-2019 17:05:00 15 C 12.57 g/m*3 15 C 0 km/h
1349 20-10-2019 17:10:00 15 C 12.57 g/m*3 15 C 0 km/h
1350 20-10-2019 17:15:00 15 C 12.57 g/m*3 15 C 0 km/h
Sensor: Nr:Datum:Temp:Abs-Feuchte:Windchill:Wind:
Aussen-T/F 1351 20-10-2019 17:20:00 14.9 C 12.49 g/m*3 14.9 C 0 km/h
1352 20-10-2019 17:25:00 14.9 C 12.49 g/m*3 14.9 C 0 km/h
1353 20-10-2019 17:30:00 14.8 C 12.41 g/m*3 14.8 C 0 km/h
1354 20-10-2019 17:35:00 14.8 C 12.41 g/m*3 14.8 C 0 km/h
1355 20-10-2019 17:40:00 14.8 C 12.41 g/m*3 14.8 C 0 km/h
1356 20-10-2019 17:45:00 14.7 C 12.34 g/m*3 14.7 C 0 km/h
1357 20-10-2019 17:50:00 14.7 C 12.34 g/m*3 14.7 C 0 km/h
1358 20-10-2019 17:55:00 14.6 C 12.26 g/m*3 14.6 C 0 km/h
1359 20-10-2019 18:00:00 14.6 C 12.26 g/m*3 14.6 C 0 km/h
1360 20-10-2019 18:05:00 14.6 C 12.26 g/m*3 14.6 C 0 km/h
1361 20-10-2019 18:10:00 14.6 C 12.26 g/m*3 14.6 C 0 km/h
1362 20-10-2019 18:15:00 14.6 C 12.26 g/m*3 14.6 C 0 km/h
1363 20-10-2019 18:20:00 14.5 C 12.19 g/m*3 14.5 C 0 km/h
1364 20-10-2019 18:25:00 14.5 C 12.19 g/m*3 14.5 C 0 km/h
1365 20-10-2019 18:30:00 14.4 C 12.11 g/m*3 14.4 C 0 km/h
1366 20-10-2019 18:35:00 14.4 C 12.11 g/m*3 14.4 C 0 km/h
1367 20-10-2019 18:40:00 14.4 C 12.11 g/m*3 14.4 C 0 km/h
1368 20-10-2019 18:45:00 14.3 C 12.04 g/m*3 14.3 C 0 km/h
1369 20-10-2019 18:50:00 14.3 C 12.04 g/m*3 14.3 C 0 km/h
1370 20-10-2019 18:55:00 14.3 C 12.04 g/m*3 14.3 C 0 km/h
1371 20-10-2019 19:00:00 14.3 C 12.04 g/m*3 14.3 C 0 km/h
1372 20-10-2019 19:05:00 14.3 C 12.04 g/m*3 14.3 C 0 km/h
1373 20-10-2019 19:10:00 14.2 C 11.97 g/m*3 14.2 C 0 km/h
1374 20-10-2019 19:15:00 14.2 C 11.97 g/m*3 14.2 C 0 km/h
1375 20-10-2019 19:20:00 14.2 C 11.97 g/m*3 14.2 C 0 km/h
Sensor: Nr:Datum:Temp:Abs-Feuchte:Windchill:Wind:
Aussen-T/F 1376 20-10-2019 19:25:00 14.2 C 11.97 g/m*3 14.2 C 0 km/h
1377 20-10-2019 19:30:00 14.2 C 11.97 g/m*3 14.2 C 0 km/h
1378 20-10-2019 19:35:00 14.1 C 11.89 g/m*3 14.1 C 0 km/h
1379 20-10-2019 19:40:00 14.2 C 11.97 g/m*3 14.2 C 0 km/h
1380 20-10-2019 19:45:00 14.2 C 11.97 g/m*3 14.2 C 0 km/h
1381 20-10-2019 19:50:00 14.2 C 11.97 g/m*3 14.2 C 0 km/h
1382 20-10-2019 19:55:00 14.2 C 11.97 g/m*3 14.2 C 0 km/h
1383 20-10-2019 20:00:00 14.2 C 11.97 g/m*3 14.2 C 0 km/h
1384 20-10-2019 20:05:00 14.2 C 11.97 g/m*3 14.2 C 0 km/h
1385 20-10-2019 20:10:00 14.2 C 11.97 g/m*3 14.2 C 0 km/h
1386 20-10-2019 20:15:00 14.2 C 11.97 g/m*3 14.2 C 0 km/h
1387 20-10-2019 20:20:00 14.2 C 11.97 g/m*3 14.2 C 0 km/h
1388 20-10-2019 20:25:00 14.1 C 11.89 g/m*3 14.1 C 0 km/h
1389 20-10-2019 20:30:00 14.1 C 11.89 g/m*3 14.1 C 0 km/h
1390 20-10-2019 20:35:00 13.9 C 11.75 g/m*3 13.9 C 0 km/h
1391 20-10-2019 20:40:00 13.8 C 11.68 g/m*3 13.8 C 0 km/h
1392 20-10-2019 20:45:00 13.8 C 11.68 g/m*3 13.8 C 0 km/h
1393 20-10-2019 20:50:00 13.8 C 11.68 g/m*3 13.8 C 0 km/h
1394 20-10-2019 20:55:00 13.9 C 11.75 g/m*3 13.9 C 0 km/h
1395 20-10-2019 21:00:00 13.9 C 11.75 g/m*3 13.9 C 0 km/h
1396 20-10-2019 21:05:00 13.9 C 11.75 g/m*3 13.9 C 0 km/h
1397 20-10-2019 21:10:00 14 C 11.82 g/m*3 14 C 0 km/h
1398 20-10-2019 21:15:00 14.1 C 11.89 g/m*3 14.1 C 0 km/h
1399 20-10-2019 21:20:00 14.1 C 11.89 g/m*3 14.1 C 0 km/h
1400 20-10-2019 21:25:00 14 C 11.82 g/m*3 14 C 0 km/h
Sensor: Nr:Datum:Temp:Abs-Feuchte:Windchill:Wind:
Aussen-T/F 1401 20-10-2019 21:30:00 14.1 C 11.89 g/m*3 14.1 C 0 km/h
1402 20-10-2019 21:35:00 14.1 C 11.89 g/m*3 14.1 C 0 km/h
1403 20-10-2019 21:40:00 14.1 C 11.89 g/m*3 14.1 C 1.6 km/h
1404 20-10-2019 21:45:00 14.2 C 11.97 g/m*3 14.2 C 1.6 km/h
1405 20-10-2019 21:50:00 14.1 C 11.89 g/m*3 14.1 C 0 km/h
1406 20-10-2019 21:55:00 14.1 C 11.89 g/m*3 14.1 C 0 km/h
1407 20-10-2019 22:00:00 14.1 C 11.89 g/m*3 14.1 C 0 km/h
1408 20-10-2019 22:05:00 14.1 C 11.89 g/m*3 14.1 C 0 km/h
1409 20-10-2019 22:10:00 14.1 C 11.89 g/m*3 14.1 C 0 km/h
1410 20-10-2019 22:15:00 13.9 C 11.75 g/m*3 13.9 C 0 km/h
1411 20-10-2019 22:20:00 13.9 C 11.75 g/m*3 13.9 C 0 km/h
1412 20-10-2019 22:25:00 13.9 C 11.75 g/m*3 13.9 C 0 km/h
1413 20-10-2019 22:30:00 13.8 C 11.68 g/m*3 13.8 C 0 km/h
1414 20-10-2019 22:35:00 13.8 C 11.68 g/m*3 13.8 C 0 km/h
1415 20-10-2019 22:40:00 13.8 C 11.68 g/m*3 13.8 C 0 km/h
1416 20-10-2019 22:45:00 13.8 C 11.68 g/m*3 13.8 C 0 km/h
1417 20-10-2019 22:50:00 13.8 C 11.68 g/m*3 13.8 C 0 km/h
1418 20-10-2019 23:00:00 13.8 C 11.68 g/m*3 13.8 C 0 km/h
1419 20-10-2019 23:05:00 13.9 C 11.75 g/m*3 13.9 C 0 km/h
1420 20-10-2019 23:10:00 13.9 C 11.75 g/m*3 13.9 C 1.6 km/h
1421 20-10-2019 23:15:00 14 C 11.82 g/m*3 14 C 0 km/h
1422 20-10-2019 23:20:00 14 C 11.82 g/m*3 14 C 0 km/h
1423 20-10-2019 23:25:00 13.9 C 11.75 g/m*3 13.9 C 0 km/h
1424 20-10-2019 23:30:00 13.9 C 11.75 g/m*3 13.9 C 0 km/h
1425 20-10-2019 23:35:00 13.9 C 11.75 g/m*3 13.9 C 0 km/h
Sensor: Nr:Datum:Temp:Abs-Feuchte:Windchill:Wind:
Aussen-T/F 1426 20-10-2019 23:40:00 13.9 C 11.75 g/m*3 13.9 C 1.6 km/h
1427 20-10-2019 23:45:00 13.9 C 11.75 g/m*3 13.9 C 0 km/h
1428 20-10-2019 23:50:00 14 C 11.82 g/m*3 14 C 0 km/h
1429 20-10-2019 23:55:00 14 C 11.82 g/m*3 14 C 0 km/h
1430 21-10-2019 00:00:00 14.1 C 11.89 g/m*3 14.1 C 0 km/h
1431 21-10-2019 00:05:00 14.1 C 11.89 g/m*3 14.1 C 0 km/h
1432 21-10-2019 00:10:00 14.1 C 11.89 g/m*3 14.1 C 1.6 km/h
1433 21-10-2019 00:15:00 14.1 C 11.89 g/m*3 14.1 C 1.6 km/h
1434 21-10-2019 00:20:00 14.1 C 11.89 g/m*3 14.1 C 0 km/h
1435 21-10-2019 00:25:00 14.1 C 11.89 g/m*3 14.1 C 6.4 km/h
1436 21-10-2019 00:30:00 14.3 C 12.04 g/m*3 14.3 C 14.5 km/h
1437 21-10-2019 00:35:00 14.4 C 12.11 g/m*3 14.4 C 11.3 km/h
1438 21-10-2019 00:40:00 14.4 C 12.11 g/m*3 14.4 C 6.4 km/h
1439 21-10-2019 00:45:00 14.4 C 12.11 g/m*3 14.4 C 6.4 km/h
1440 21-10-2019 00:50:00 14.4 C 12.11 g/m*3 14.4 C 8.1 km/h
1441 21-10-2019 00:55:00 14.4 C 12.11 g/m*3 14.4 C 3.2 km/h
1442 21-10-2019 01:00:00 14.4 C 12.11 g/m*3 14.4 C 0 km/h
1443 21-10-2019 01:05:00 14.4 C 12.11 g/m*3 14.4 C 0 km/h
1444 21-10-2019 01:10:00 14.3 C 12.04 g/m*3 14.3 C 0 km/h
1445 21-10-2019 01:15:00 14.3 C 12.04 g/m*3 14.3 C 0 km/h
1446 21-10-2019 01:20:00 14.2 C 11.97 g/m*3 14.2 C 0 km/h
1447 21-10-2019 01:25:00 14.1 C 11.89 g/m*3 14.1 C 0 km/h
1448 21-10-2019 01:30:00 14.1 C 11.89 g/m*3 14.1 C 0 km/h
1449 21-10-2019 01:35:00 14 C 11.82 g/m*3 14 C 0 km/h
1450 21-10-2019 01:40:00 14 C 11.82 g/m*3 14 C 0 km/h
Sensor: Nr:Datum:Temp:Abs-Feuchte:Windchill:Wind:
Aussen-T/F 1451 21-10-2019 01:45:00 14 C 11.82 g/m*3 14 C 0 km/h
1452 21-10-2019 01:50:00 14 C 11.82 g/m*3 14 C 0 km/h
1453 21-10-2019 01:55:00 13.9 C 11.75 g/m*3 13.9 C 0 km/h
1454 21-10-2019 02:00:00 13.9 C 11.75 g/m*3 13.9 C 0 km/h
1455 21-10-2019 02:05:00 13.9 C 11.75 g/m*3 13.9 C 0 km/h
1456 21-10-2019 02:10:00 13.8 C 11.68 g/m*3 13.8 C 0 km/h
1457 21-10-2019 02:15:00 13.8 C 11.68 g/m*3 13.8 C 0 km/h
1458 21-10-2019 02:20:00 13.8 C 11.68 g/m*3 13.8 C 0 km/h
1459 21-10-2019 02:25:00 13.8 C 11.68 g/m*3 13.8 C 0 km/h
1460 21-10-2019 02:30:00 13.7 C 11.6 g/m*3 13.7 C 0 km/h
1461 21-10-2019 02:35:00 13.7 C 11.6 g/m*3 13.7 C 0 km/h
1462 21-10-2019 02:40:00 13.6 C 11.53 g/m*3 13.6 C 0 km/h
1463 21-10-2019 02:45:00 13.6 C 11.53 g/m*3 13.6 C 0 km/h
1464 21-10-2019 02:50:00 13.6 C 11.53 g/m*3 13.6 C 0 km/h
1465 21-10-2019 02:55:00 13.7 C 11.6 g/m*3 13.7 C 0 km/h
1466 21-10-2019 03:00:00 13.7 C 11.6 g/m*3 13.7 C 0 km/h
1467 21-10-2019 03:05:00 13.7 C 11.6 g/m*3 13.7 C 0 km/h
1468 21-10-2019 03:10:00 13.7 C 11.6 g/m*3 13.7 C 0 km/h
1469 21-10-2019 03:15:00 13.8 C 11.68 g/m*3 13.8 C 0 km/h
1470 21-10-2019 03:20:00 13.8 C 11.68 g/m*3 13.8 C 0 km/h
1471 21-10-2019 03:25:00 13.7 C 11.6 g/m*3 13.7 C 0 km/h
1472 21-10-2019 03:30:00 13.7 C 11.6 g/m*3 13.7 C 0 km/h
1473 21-10-2019 03:35:00 13.6 C 11.53 g/m*3 13.6 C 0 km/h
1474 21-10-2019 03:40:00 13.6 C 11.53 g/m*3 13.6 C 0 km/h
1475 21-10-2019 03:45:00 13.6 C 11.53 g/m*3 13.6 C 0 km/h
Sensor: Nr:Datum:Temp:Abs-Feuchte:Windchill:Wind:
Aussen-T/F 1476 21-10-2019 03:50:00 13.6 C 11.53 g/m*3 13.6 C 0 km/h
1477 21-10-2019 03:55:00 13.5 C 11.46 g/m*3 13.5 C 0 km/h
1478 21-10-2019 04:00:00 13.4 C 11.39 g/m*3 13.4 C 0 km/h
1479 21-10-2019 04:05:00 13.4 C 11.39 g/m*3 13.4 C 0 km/h
1480 21-10-2019 04:10:00 13.4 C 11.39 g/m*3 13.4 C 0 km/h
1481 21-10-2019 04:15:00 13.4 C 11.39 g/m*3 13.4 C 0 km/h
1482 21-10-2019 04:20:00 13.3 C 11.32 g/m*3 13.3 C 0 km/h
1483 21-10-2019 04:25:00 13.2 C 11.25 g/m*3 13.2 C 0 km/h
1484 21-10-2019 04:30:00 13.1 C 11.18 g/m*3 13.1 C 0 km/h
1485 21-10-2019 04:35:00 13 C 11.11 g/m*3 13 C 0 km/h
1486 21-10-2019 04:40:00 12.8 C 10.98 g/m*3 12.8 C 0 km/h
1487 21-10-2019 04:45:00 12.8 C 10.98 g/m*3 12.8 C 0 km/h
1488 21-10-2019 04:50:00 12.8 C 10.98 g/m*3 12.8 C 0 km/h
1489 21-10-2019 04:55:00 12.8 C 10.98 g/m*3 12.8 C 0 km/h
1490 21-10-2019 05:00:00 12.8 C 10.98 g/m*3 12.8 C 1.6 km/h
1491 21-10-2019 05:05:00 12.8 C 10.98 g/m*3 12.8 C 0 km/h
1492 21-10-2019 05:10:00 12.8 C 10.98 g/m*3 12.8 C 0 km/h
1493 21-10-2019 05:15:00 12.9 C 11.05 g/m*3 12.9 C 0 km/h
1494 21-10-2019 05:20:00 13.1 C 11.18 g/m*3 13.1 C 0 km/h
1495 21-10-2019 05:25:00 13.2 C 11.25 g/m*3 13.2 C 0 km/h
1496 21-10-2019 05:30:00 13.3 C 11.32 g/m*3 13.3 C 0 km/h
1497 21-10-2019 05:35:00 13.4 C 11.39 g/m*3 13.4 C 0 km/h
1498 21-10-2019 05:40:00 13.5 C 11.46 g/m*3 13.5 C 0 km/h
1499 21-10-2019 05:45:00 13.6 C 11.53 g/m*3 13.6 C 0 km/h
1500 21-10-2019 05:50:00 13.6 C 11.53 g/m*3 13.6 C 0 km/h
Sensor: Nr:Datum:Temp:Abs-Feuchte:Windchill:Wind:
Aussen-T/F 1501 21-10-2019 05:55:00 13.6 C 11.53 g/m*3 13.6 C 0 km/h
1502 21-10-2019 06:00:00 13.6 C 11.53 g/m*3 13.6 C 0 km/h
1503 21-10-2019 06:05:00 13.5 C 11.46 g/m*3 13.5 C 0 km/h
1504 21-10-2019 06:10:00 13.5 C 11.46 g/m*3 13.5 C 0 km/h
1505 21-10-2019 06:15:00 13.5 C 11.46 g/m*3 13.5 C 0 km/h
1506 21-10-2019 06:20:00 13.5 C 11.46 g/m*3 13.5 C 0 km/h
1507 21-10-2019 06:25:00 13.6 C 11.53 g/m*3 13.6 C 0 km/h
1508 21-10-2019 06:30:00 13.6 C 11.53 g/m*3 13.6 C 0 km/h
1509 21-10-2019 06:35:00 13.7 C 11.6 g/m*3 13.7 C 0 km/h
1510 21-10-2019 06:40:00 13.7 C 11.6 g/m*3 13.7 C 0 km/h
1511 21-10-2019 06:45:00 13.7 C 11.6 g/m*3 13.7 C 0 km/h
1512 21-10-2019 06:50:00 13.7 C 11.6 g/m*3 13.7 C 0 km/h
1513 21-10-2019 06:55:00 13.7 C 11.6 g/m*3 13.7 C 0 km/h
1514 21-10-2019 07:00:00 13.7 C 11.6 g/m*3 13.7 C 0 km/h
1515 21-10-2019 07:05:00 13.6 C 11.53 g/m*3 13.6 C 0 km/h
1516 21-10-2019 07:10:00 13.5 C 11.46 g/m*3 13.5 C 0 km/h
1517 21-10-2019 07:15:00 13.4 C 11.39 g/m*3 13.4 C 0 km/h
1518 21-10-2019 07:20:00 13.3 C 11.32 g/m*3 13.3 C 0 km/h
1519 21-10-2019 07:25:00 13.3 C 11.32 g/m*3 13.3 C 0 km/h
1520 21-10-2019 07:30:00 13.2 C 11.25 g/m*3 13.2 C 0 km/h
1521 21-10-2019 07:35:00 13.2 C 11.25 g/m*3 13.2 C 0 km/h
1522 21-10-2019 07:40:00 13.2 C 11.25 g/m*3 13.2 C 0 km/h
1523 21-10-2019 07:45:00 13.2 C 11.25 g/m*3 13.2 C 0 km/h
1524 21-10-2019 07:50:00 13.1 C 11.18 g/m*3 13.1 C 0 km/h
1525 21-10-2019 07:55:00 13.1 C 11.18 g/m*3 13.1 C 0 km/h
Sensor: Nr:Datum:Temp:Abs-Feuchte:Windchill:Wind:
Aussen-T/F 1526 21-10-2019 08:00:00 13.1 C 11.18 g/m*3 13.1 C 0 km/h
1527 21-10-2019 08:05:00 13 C 11.11 g/m*3 13 C 0 km/h
1528 21-10-2019 08:10:00 12.9 C 11.05 g/m*3 12.9 C 0 km/h
1529 21-10-2019 08:15:00 12.8 C 10.98 g/m*3 12.8 C 0 km/h
1530 21-10-2019 08:20:00 12.7 C 10.91 g/m*3 12.7 C 0 km/h
1531 21-10-2019 08:25:00 12.6 C 10.84 g/m*3 12.6 C 0 km/h
1532 21-10-2019 08:30:00 12.4 C 10.71 g/m*3 12.4 C 0 km/h
1533 21-10-2019 08:35:00 12.4 C 10.71 g/m*3 12.4 C 0 km/h
1534 21-10-2019 08:40:00 12.5 C 10.77 g/m*3 12.5 C 0 km/h
1535 21-10-2019 08:45:00 12.6 C 10.84 g/m*3 12.6 C 0 km/h
1536 21-10-2019 08:50:00 12.7 C 10.91 g/m*3 12.7 C 0 km/h
1537 21-10-2019 08:55:00 12.8 C 10.98 g/m*3 12.8 C 0 km/h
1538 21-10-2019 09:00:00 12.9 C 11.05 g/m*3 12.9 C 0 km/h
1539 21-10-2019 09:05:00 12.9 C 11.05 g/m*3 12.9 C 0 km/h
1540 21-10-2019 09:10:00 12.9 C 11.05 g/m*3 12.9 C 0 km/h
1541 21-10-2019 09:15:00 12.9 C 11.05 g/m*3 12.9 C 0 km/h
1542 21-10-2019 09:20:00 12.9 C 11.05 g/m*3 12.9 C 0 km/h
1543 21-10-2019 09:25:00 12.9 C 11.05 g/m*3 12.9 C 0 km/h
1544 21-10-2019 09:30:00 12.9 C 11.05 g/m*3 12.9 C 0 km/h
1545 21-10-2019 09:35:00 12.9 C 11.05 g/m*3 12.9 C 0 km/h
1546 21-10-2019 09:40:00 12.9 C 11.05 g/m*3 12.9 C 0 km/h
1547 21-10-2019 09:45:00 12.9 C 11.05 g/m*3 12.9 C 0 km/h
1548 21-10-2019 09:50:00 12.9 C 11.05 g/m*3 12.9 C 0 km/h
1549 21-10-2019 09:55:00 12.9 C 11.05 g/m*3 12.9 C 0 km/h
1550 21-10-2019 10:00:00 13 C 11.11 g/m*3 13 C 0 km/h
Sensor: Nr:Datum:Temp:Abs-Feuchte:Windchill:Wind:
Aussen-T/F 1551 21-10-2019 10:05:00 13 C 11.11 g/m*3 13 C 0 km/h
1552 21-10-2019 10:10:00 13.1 C 11.18 g/m*3 13.1 C 0 km/h
1553 21-10-2019 10:15:00 13.1 C 11.18 g/m*3 13.1 C 0 km/h
1554 21-10-2019 10:20:00 13.1 C 11.18 g/m*3 13.1 C 0 km/h
1555 21-10-2019 10:25:00 13.2 C 11.25 g/m*3 13.2 C 0 km/h
1556 21-10-2019 10:30:00 13.4 C 11.39 g/m*3 13.4 C 0 km/h
1557 21-10-2019 10:35:00 13.7 C 11.6 g/m*3 13.7 C 0 km/h
1558 21-10-2019 10:40:00 13.9 C 11.75 g/m*3 13.9 C 0 km/h
1559 21-10-2019 10:45:00 14.1 C 12.01 g/m*3 14.1 C 0 km/h
1560 21-10-2019 10:50:00 14.2 C 12.09 g/m*3 14.2 C 3.2 km/h
1561 21-10-2019 10:55:00 14.1 C 12.01 g/m*3 14.1 C 1.6 km/h
1562 21-10-2019 11:00:00 14 C 11.82 g/m*3 14 C 1.6 km/h
1563 21-10-2019 11:05:00 13.9 C 11.75 g/m*3 13.9 C 0 km/h
1564 21-10-2019 11:10:00 13.9 C 11.75 g/m*3 13.9 C 0 km/h
1565 21-10-2019 11:15:00 13.9 C 11.75 g/m*3 13.9 C 0 km/h
1566 21-10-2019 11:20:00 13.9 C 11.75 g/m*3 13.9 C 0 km/h
1567 21-10-2019 11:25:00 13.9 C 11.75 g/m*3 13.9 C 4.8 km/h
1568 21-10-2019 11:30:00 13.9 C 11.75 g/m*3 13.9 C 4.8 km/h
1569 21-10-2019 11:35:00 14 C 11.82 g/m*3 14 C 1.6 km/h
1570 21-10-2019 11:40:00 14.1 C 11.89 g/m*3 14.1 C 4.8 km/h
1571 21-10-2019 11:45:00 14.1 C 11.89 g/m*3 14.1 C 1.6 km/h
1572 21-10-2019 11:50:00 14.2 C 11.97 g/m*3 14.2 C 3.2 km/h
1573 21-10-2019 11:55:00 14.3 C 12.04 g/m*3 14.3 C 1.6 km/h
1574 21-10-2019 12:00:00 14.4 C 12.11 g/m*3 14.4 C 3.2 km/h
1575 21-10-2019 12:05:00 14.4 C 12.11 g/m*3 14.4 C 1.6 km/h
Sensor: Nr:Datum:Temp:Abs-Feuchte:Windchill:Wind:
Aussen-T/F 1576 21-10-2019 12:10:00 14.4 C 12.11 g/m*3 14.4 C 1.6 km/h
1577 21-10-2019 12:15:00 14.4 C 12.11 g/m*3 14.4 C 0 km/h
1578 21-10-2019 12:20:00 14.6 C 12.26 g/m*3 14.6 C 0 km/h
1579 21-10-2019 12:25:00 14.7 C 12.34 g/m*3 14.7 C 1.6 km/h
1580 21-10-2019 12:30:00 14.7 C 12.46 g/m*3 14.7 C 4.8 km/h
1581 21-10-2019 12:35:00 14.8 C 12.54 g/m*3 14.8 C 4.8 km/h
1582 21-10-2019 12:40:00 14.8 C 12.41 g/m*3 14.8 C 1.6 km/h
1583 21-10-2019 12:45:00 14.8 C 12.41 g/m*3 14.8 C 8.1 km/h
1584 21-10-2019 12:50:00 14.6 C 12.26 g/m*3 14.6 C 9.7 km/h
1585 21-10-2019 12:55:00 14.7 C 12.34 g/m*3 14.7 C 3.2 km/h
1586 21-10-2019 13:00:00 14.9 C 12.49 g/m*3 14.9 C 3.2 km/h
1587 21-10-2019 13:05:00 15.1 C 12.64 g/m*3 15.1 C 8.1 km/h
1588 21-10-2019 13:10:00 14.9 C 12.11 g/m*3 14.9 C 11.3 km/h
1589 21-10-2019 13:15:00 15.2 C 12.2 g/m*3 15.2 C 8.1 km/h
1590 21-10-2019 13:20:00 15.4 C 11.96 g/m*3 15.4 C 12.9 km/h
1591 21-10-2019 13:25:00 15.9 C 12.05 g/m*3 15.9 C 12.9 km/h
1592 21-10-2019 13:30:00 16.1 C 11.93 g/m*3 16.1 C 11.3 km/h
1593 21-10-2019 13:35:00 16.4 C 11.58 g/m*3 16.4 C 12.9 km/h
1594 21-10-2019 13:40:00 16.7 C 11.8 g/m*3 16.7 C 17.7 km/h
1595 21-10-2019 13:45:00 16.8 C 11.87 g/m*3 16.8 C 12.9 km/h
1596 21-10-2019 13:50:00 16.8 C 11.87 g/m*3 16.8 C 9.7 km/h
1597 21-10-2019 13:55:00 16.8 C 11.72 g/m*3 16.8 C 11.3 km/h
1598 21-10-2019 14:00:00 16.9 C 11.94 g/m*3 16.9 C 3.2 km/h
1599 21-10-2019 14:05:00 17 C 12.44 g/m*3 17 C 1.6 km/h
1600 21-10-2019 14:10:00 17 C 12.59 g/m*3 17 C 1.6 km/h
Sensor: Nr:Datum:Temp:Abs-Feuchte:Windchill:Wind:
Aussen-T/F 1601 21-10-2019 14:15:00 16.9 C 12.08 g/m*3 16.9 C 3.2 km/h
1602 21-10-2019 14:20:00 16.7 C 11.65 g/m*3 16.7 C 8.1 km/h
1603 21-10-2019 14:25:00 16.7 C 11.65 g/m*3 16.7 C 8.1 km/h
1604 21-10-2019 14:30:00 16.7 C 11.51 g/m*3 16.7 C 6.4 km/h
1605 21-10-2019 14:35:00 16.6 C 11.44 g/m*3 16.6 C 8.1 km/h
1606 21-10-2019 14:40:00 16.6 C 11.3 g/m*3 16.6 C 9.7 km/h
1607 21-10-2019 14:45:00 16.6 C 11.3 g/m*3 16.6 C 11.3 km/h
1608 21-10-2019 14:50:00 16.4 C 11.31 g/m*3 16.4 C 8.1 km/h
1609 21-10-2019 14:55:00 16.4 C 11.17 g/m*3 16.4 C 6.4 km/h
1610 21-10-2019 15:00:00 16.4 C 11.58 g/m*3 16.4 C 4.8 km/h
1611 21-10-2019 15:05:00 16.4 C 11.31 g/m*3 16.4 C 9.7 km/h
1612 21-10-2019 15:10:00 16.3 C 11.24 g/m*3 16.3 C 11.3 km/h
1613 21-10-2019 15:15:00 16.3 C 11.1 g/m*3 16.3 C 6.4 km/h
1614 21-10-2019 15:20:00 16.3 C 11.24 g/m*3 16.3 C 6.4 km/h
1615 21-10-2019 15:25:00 16.3 C 11.38 g/m*3 16.3 C 3.2 km/h
1616 21-10-2019 15:30:00 16.3 C 11.24 g/m*3 16.3 C 6.4 km/h
1617 21-10-2019 15:35:00 16.3 C 11.24 g/m*3 16.3 C 6.4 km/h
1618 21-10-2019 15:40:00 16.3 C 11.1 g/m*3 16.3 C 4.8 km/h
1619 21-10-2019 15:45:00 16.4 C 11.45 g/m*3 16.4 C 3.2 km/h
1620 21-10-2019 15:50:00 16.6 C 11.3 g/m*3 16.6 C 11.3 km/h
1621 21-10-2019 15:55:00 16.6 C 11.02 g/m*3 16.6 C 9.7 km/h
1622 21-10-2019 16:00:00 16.5 C 10.81 g/m*3 16.5 C 14.5 km/h
1623 21-10-2019 16:05:00 16.4 C 11.03 g/m*3 16.4 C 8.1 km/h
1624 21-10-2019 16:10:00 16.3 C 10.96 g/m*3 16.3 C 6.4 km/h
1625 21-10-2019 16:15:00 16.2 C 11.03 g/m*3 16.2 C 1.6 km/h
Sensor: Nr:Datum:Temp:Abs-Feuchte:Windchill:Wind:
Aussen-T/F 1626 21-10-2019 16:20:00 16.1 C 11.24 g/m*3 16.1 C 6.4 km/h
1627 21-10-2019 16:25:00 15.9 C 10.97 g/m*3 15.9 C 6.4 km/h
1628 21-10-2019 16:30:00 15.8 C 10.9 g/m*3 15.8 C 3.2 km/h
1629 21-10-2019 16:35:00 15.6 C 10.91 g/m*3 15.6 C 1.6 km/h
1630 21-10-2019 16:40:00 15.5 C 10.71 g/m*3 15.5 C 4.8 km/h
1631 21-10-2019 16:45:00 15.4 C 10.9 g/m*3 15.4 C 0 km/h
1632 21-10-2019 16:50:00 15.4 C 10.9 g/m*3 15.4 C 3.2 km/h
1633 21-10-2019 16:55:00 15.3 C 10.84 g/m*3 15.3 C 3.2 km/h
1634 21-10-2019 17:00:00 15.3 C 11.1 g/m*3 15.3 C 0 km/h
1635 21-10-2019 17:05:00 15.2 C 11.03 g/m*3 15.2 C 1.6 km/h
1636 21-10-2019 17:10:00 15.1 C 11.09 g/m*3 15.1 C 0 km/h
1637 21-10-2019 17:15:00 15 C 11.16 g/m*3 15 C 4.8 km/h
1638 21-10-2019 17:20:00 14.7 C 10.32 g/m*3 14.7 C 8.1 km/h
1639 21-10-2019 17:25:00 14.7 C 10.45 g/m*3 14.7 C 1.6 km/h
1640 21-10-2019 17:30:00 14.7 C 10.7 g/m*3 14.7 C 0 km/h
1641 21-10-2019 17:35:00 14.6 C 10.76 g/m*3 14.6 C 0 km/h
1642 21-10-2019 17:40:00 14.6 C 10.89 g/m*3 14.6 C 0 km/h
1643 21-10-2019 17:45:00 14.4 C 10.75 g/m*3 14.4 C 0 km/h
1644 21-10-2019 17:50:00 14.3 C 10.57 g/m*3 14.3 C 1.6 km/h
1645 21-10-2019 17:55:00 14.2 C 10.62 g/m*3 14.2 C 1.6 km/h
1646 21-10-2019 18:00:00 14.1 C 10.44 g/m*3 14.1 C 1.6 km/h
1647 21-10-2019 18:05:00 14 C 10.25 g/m*3 14 C 4.8 km/h
1648 21-10-2019 18:10:00 14 C 10.37 g/m*3 14 C 0 km/h
1649 21-10-2019 18:15:00 14 C 10.37 g/m*3 14 C 0 km/h
1650 21-10-2019 18:20:00 13.9 C 10.43 g/m*3 13.9 C 0 km/h
Sensor: Nr:Datum:Temp:Abs-Feuchte:Windchill:Wind:
Aussen-T/F 1651 21-10-2019 18:25:00 13.8 C 10.37 g/m*3 13.8 C 1.6 km/h
1652 21-10-2019 18:30:00 13.7 C 10.42 g/m*3 13.7 C 1.6 km/h
1653 21-10-2019 18:35:00 13.6 C 10.36 g/m*3 13.6 C 0 km/h
1654 21-10-2019 18:40:00 13.4 C 10.23 g/m*3 13.4 C 0 km/h
1655 21-10-2019 18:45:00 13.3 C 10.17 g/m*3 13.3 C 0 km/h
1656 21-10-2019 18:50:00 13.2 C 10.22 g/m*3 13.2 C 0 km/h
1657 21-10-2019 19:00:00 13 C 10.09 g/m*3 13 C 0 km/h
1658 21-10-2019 19:05:00 12.9 C 10.14 g/m*3 12.9 C 0 km/h
1659 21-10-2019 19:10:00 12.8 C 10.08 g/m*3 12.8 C 0 km/h
1660 21-10-2019 19:15:00 12.7 C 10.02 g/m*3 12.7 C 0 km/h
1661 21-10-2019 19:20:00 12.6 C 9.96 g/m*3 12.6 C 0 km/h
1662 21-10-2019 19:25:00 12.5 C 9.89 g/m*3 12.5 C 0 km/h
1663 21-10-2019 19:30:00 12.4 C 9.83 g/m*3 12.4 C 0 km/h
1664 21-10-2019 19:35:00 12.3 C 9.77 g/m*3 12.3 C 0 km/h
1665 21-10-2019 19:40:00 12.2 C 9.82 g/m*3 12.2 C 0 km/h
1666 21-10-2019 19:45:00 12.2 C 9.82 g/m*3 12.2 C 0 km/h
1667 21-10-2019 19:50:00 12.2 C 9.82 g/m*3 12.2 C 0 km/h
1668 21-10-2019 19:55:00 12.1 C 9.76 g/m*3 12.1 C 0 km/h
1669 21-10-2019 20:00:00 12.1 C 9.76 g/m*3 12.1 C 0 km/h
1670 21-10-2019 20:05:00 11.9 C 9.64 g/m*3 11.9 C 0 km/h
1671 21-10-2019 20:10:00 11.9 C 9.74 g/m*3 11.9 C 0 km/h
1672 21-10-2019 20:15:00 11.8 C 9.68 g/m*3 11.8 C 0 km/h
1673 21-10-2019 20:20:00 11.8 C 9.68 g/m*3 11.8 C 0 km/h
1674 21-10-2019 20:25:00 11.8 C 9.68 g/m*3 11.8 C 0 km/h
1675 21-10-2019 20:30:00 11.7 C 9.73 g/m*3 11.7 C 0 km/h
Sensor: Nr:Datum:Temp:Abs-Feuchte:Windchill:Wind:
Aussen-T/F 1676 21-10-2019 20:35:00 11.7 C 9.73 g/m*3 11.7 C 0 km/h
1677 21-10-2019 20:40:00 11.6 C 9.67 g/m*3 11.6 C 0 km/h
1678 21-10-2019 20:45:00 11.6 C 9.67 g/m*3 11.6 C 0 km/h
1679 21-10-2019 20:50:00 11.6 C 9.67 g/m*3 11.6 C 0 km/h
1680 21-10-2019 20:55:00 11.5 C 9.61 g/m*3 11.5 C 0 km/h
1681 21-10-2019 21:00:00 11.4 C 9.55 g/m*3 11.4 C 0 km/h
1682 21-10-2019 21:05:00 11.4 C 9.55 g/m*3 11.4 C 0 km/h
1683 21-10-2019 21:10:00 11.4 C 9.55 g/m*3 11.4 C 0 km/h
1684 21-10-2019 21:15:00 11.4 C 9.55 g/m*3 11.4 C 0 km/h
1685 21-10-2019 21:20:00 11.4 C 9.55 g/m*3 11.4 C 0 km/h
1686 21-10-2019 21:25:00 11.4 C 9.65 g/m*3 11.4 C 0 km/h
1687 21-10-2019 21:30:00 11.4 C 9.65 g/m*3 11.4 C 0 km/h
1688 21-10-2019 21:35:00 11.4 C 9.65 g/m*3 11.4 C 0 km/h
1689 21-10-2019 21:40:00 11.4 C 9.65 g/m*3 11.4 C 0 km/h
1690 21-10-2019 21:45:00 11.4 C 9.65 g/m*3 11.4 C 0 km/h
1691 21-10-2019 21:50:00 11.3 C 9.59 g/m*3 11.3 C 0 km/h
1692 21-10-2019 21:55:00 11.3 C 9.59 g/m*3 11.3 C 0 km/h
1693 21-10-2019 22:00:00 11.3 C 9.59 g/m*3 11.3 C 0 km/h
1694 21-10-2019 22:05:00 11.3 C 9.59 g/m*3 11.3 C 0 km/h
1695 21-10-2019 22:10:00 11.3 C 9.59 g/m*3 11.3 C 0 km/h
1696 21-10-2019 22:15:00 11.3 C 9.59 g/m*3 11.3 C 0 km/h
1697 21-10-2019 22:20:00 11.3 C 9.59 g/m*3 11.3 C 0 km/h
1698 21-10-2019 22:25:00 11.3 C 9.59 g/m*3 11.3 C 0 km/h
1699 21-10-2019 22:30:00 11.3 C 9.59 g/m*3 11.3 C 0 km/h
1700 21-10-2019 22:35:00 11.3 C 9.59 g/m*3 11.3 C 0 km/h
Sensor: Nr:Datum:Temp:Abs-Feuchte:Windchill:Wind:
Aussen-T/F 1701 21-10-2019 22:40:00 11.3 C 9.59 g/m*3 11.3 C 0 km/h
1702 21-10-2019 22:45:00 11.4 C 9.65 g/m*3 11.4 C 0 km/h
1703 21-10-2019 22:50:00 11.4 C 9.65 g/m*3 11.4 C 0 km/h
1704 21-10-2019 22:55:00 11.4 C 9.65 g/m*3 11.4 C 0 km/h
1705 21-10-2019 23:00:00 11.4 C 9.65 g/m*3 11.4 C 0 km/h
1706 21-10-2019 23:05:00 11.4 C 9.65 g/m*3 11.4 C 0 km/h
1707 21-10-2019 23:10:00 11.5 C 9.71 g/m*3 11.5 C 0 km/h
1708 21-10-2019 23:15:00 11.4 C 9.65 g/m*3 11.4 C 0 km/h
1709 21-10-2019 23:20:00 11.4 C 9.65 g/m*3 11.4 C 0 km/h
1710 21-10-2019 23:25:00 11.4 C 9.65 g/m*3 11.4 C 0 km/h
1711 21-10-2019 23:30:00 11.3 C 9.59 g/m*3 11.3 C 0 km/h
1712 21-10-2019 23:35:00 11.1 C 9.37 g/m*3 11.1 C 0 km/h
1713 21-10-2019 23:40:00 11 C 9.31 g/m*3 11 C 0 km/h
1714 21-10-2019 23:45:00 10.9 C 9.35 g/m*3 10.9 C 0 km/h
1715 21-10-2019 23:50:00 10.9 C 9.35 g/m*3 10.9 C 0 km/h
1716 21-10-2019 23:55:00 10.9 C 9.35 g/m*3 10.9 C 0 km/h
1717 22-10-2019 00:00:00 10.8 C 9.29 g/m*3 10.8 C 0 km/h
1718 22-10-2019 00:05:00 10.8 C 9.29 g/m*3 10.8 C 0 km/h
1719 22-10-2019 00:10:00 10.8 C 9.29 g/m*3 10.8 C 0 km/h
1720 22-10-2019 00:15:00 10.8 C 9.29 g/m*3 10.8 C 0 km/h
1721 22-10-2019 00:20:00 10.8 C 9.29 g/m*3 10.8 C 0 km/h
1722 22-10-2019 00:25:00 10.8 C 9.39 g/m*3 10.8 C 0 km/h
1723 22-10-2019 00:30:00 10.8 C 9.39 g/m*3 10.8 C 0 km/h
1724 22-10-2019 00:35:00 10.8 C 9.39 g/m*3 10.8 C 0 km/h
1725 22-10-2019 00:40:00 10.8 C 9.39 g/m*3 10.8 C 0 km/h
Sensor: Nr:Datum:Temp:Abs-Feuchte:Windchill:Wind:
Aussen-T/F 1726 22-10-2019 00:45:00 10.9 C 9.45 g/m*3 10.9 C 0 km/h
1727 22-10-2019 00:50:00 10.9 C 9.45 g/m*3 10.9 C 0 km/h
1728 22-10-2019 00:55:00 10.9 C 9.45 g/m*3 10.9 C 0 km/h
1729 22-10-2019 01:00:00 11 C 9.51 g/m*3 11 C 0 km/h
1730 22-10-2019 01:05:00 10.9 C 9.45 g/m*3 10.9 C 0 km/h
1731 22-10-2019 01:10:00 11 C 9.51 g/m*3 11 C 0 km/h
1732 22-10-2019 01:15:00 11 C 9.51 g/m*3 11 C 0 km/h
1733 22-10-2019 01:20:00 11 C 9.51 g/m*3 11 C 0 km/h
1734 22-10-2019 01:25:00 11 C 9.51 g/m*3 11 C 0 km/h
1735 22-10-2019 01:30:00 11.1 C 9.57 g/m*3 11.1 C 0 km/h
1736 22-10-2019 01:35:00 11.1 C 9.57 g/m*3 11.1 C 0 km/h
1737 22-10-2019 01:40:00 11.1 C 9.57 g/m*3 11.1 C 0 km/h
1738 22-10-2019 01:45:00 11 C 9.51 g/m*3 11 C 0 km/h
1739 22-10-2019 01:50:00 11 C 9.51 g/m*3 11 C 3.2 km/h
1740 22-10-2019 01:55:00 11 C 9.51 g/m*3 11 C 0 km/h
1741 22-10-2019 02:00:00 11.1 C 9.57 g/m*3 11.1 C 0 km/h
1742 22-10-2019 02:05:00 11.1 C 9.57 g/m*3 11.1 C 0 km/h
1743 22-10-2019 02:10:00 11.1 C 9.57 g/m*3 11.1 C 0 km/h
1744 22-10-2019 02:15:00 10.9 C 9.35 g/m*3 10.9 C 0 km/h
1745 22-10-2019 02:20:00 10.9 C 9.45 g/m*3 10.9 C 0 km/h
1746 22-10-2019 02:25:00 10.9 C 9.45 g/m*3 10.9 C 0 km/h
1747 22-10-2019 02:30:00 10.9 C 9.45 g/m*3 10.9 C 0 km/h
1748 22-10-2019 02:35:00 10.9 C 9.45 g/m*3 10.9 C 0 km/h
1749 22-10-2019 02:40:00 10.9 C 9.45 g/m*3 10.9 C 0 km/h
1750 22-10-2019 02:45:00 10.9 C 9.45 g/m*3 10.9 C 0 km/h
Sensor: Nr:Datum:Temp:Abs-Feuchte:Windchill:Wind:
Aussen-T/F 1751 22-10-2019 02:50:00 10.9 C 9.45 g/m*3 10.9 C 0 km/h
1752 22-10-2019 02:55:00 10.8 C 9.39 g/m*3 10.8 C 0 km/h
1753 22-10-2019 03:00:00 10.8 C 9.29 g/m*3 10.8 C 0 km/h
1754 22-10-2019 03:05:00 10.8 C 9.29 g/m*3 10.8 C 0 km/h
1755 22-10-2019 03:10:00 10.8 C 9.39 g/m*3 10.8 C 0 km/h
1756 22-10-2019 03:15:00 10.9 C 9.45 g/m*3 10.9 C 0 km/h
1757 22-10-2019 03:20:00 10.9 C 9.45 g/m*3 10.9 C 0 km/h
1758 22-10-2019 03:25:00 10.9 C 9.45 g/m*3 10.9 C 0 km/h
1759 22-10-2019 03:30:00 10.9 C 9.45 g/m*3 10.9 C 0 km/h
1760 22-10-2019 03:35:00 10.9 C 9.45 g/m*3 10.9 C 0 km/h
1761 22-10-2019 03:40:00 10.9 C 9.45 g/m*3 10.9 C 0 km/h
1762 22-10-2019 03:45:00 10.9 C 9.45 g/m*3 10.9 C 0 km/h
1763 22-10-2019 03:50:00 10.9 C 9.45 g/m*3 10.9 C 0 km/h
1764 22-10-2019 03:55:00 10.9 C 9.45 g/m*3 10.9 C 0 km/h
1765 22-10-2019 04:00:00 10.9 C 9.45 g/m*3 10.9 C 0 km/h
1766 22-10-2019 04:05:00 10.9 C 9.45 g/m*3 10.9 C 0 km/h
1767 22-10-2019 04:10:00 10.8 C 9.39 g/m*3 10.8 C 0 km/h
1768 22-10-2019 04:15:00 10.8 C 9.39 g/m*3 10.8 C 0 km/h
1769 22-10-2019 04:20:00 10.8 C 9.39 g/m*3 10.8 C 0 km/h
1770 22-10-2019 04:25:00 10.8 C 9.39 g/m*3 10.8 C 0 km/h
1771 22-10-2019 04:30:00 10.7 C 9.33 g/m*3 10.7 C 0 km/h
1772 22-10-2019 04:35:00 10.6 C 9.17 g/m*3 10.6 C 0 km/h
1773 22-10-2019 04:40:00 10.5 C 9.12 g/m*3 10.5 C 0 km/h
1774 22-10-2019 04:45:00 10.4 C 9.06 g/m*3 10.4 C 0 km/h
1775 22-10-2019 04:50:00 10.4 C 9.16 g/m*3 10.4 C 0 km/h
Sensor: Nr:Datum:Temp:Abs-Feuchte:Windchill:Wind:
Aussen-T/F 1776 22-10-2019 04:55:00 10.4 C 9.16 g/m*3 10.4 C 0 km/h
1777 22-10-2019 05:00:00 10.3 C 9.1 g/m*3 10.3 C 0 km/h
1778 22-10-2019 05:05:00 10.3 C 9.1 g/m*3 10.3 C 0 km/h
1779 22-10-2019 05:10:00 10.2 C 9.04 g/m*3 10.2 C 0 km/h
1780 22-10-2019 05:15:00 10.1 C 8.89 g/m*3 10.1 C 0 km/h
1781 22-10-2019 05:20:00 10 C 8.93 g/m*3 10 C 0 km/h
1782 22-10-2019 05:25:00 9.9 C 8.78 g/m*3 9.9 C 0 km/h
1783 22-10-2019 05:30:00 9.8 C 8.72 g/m*3 9.8 C 0 km/h
1784 22-10-2019 05:35:00 9.8 C 8.81 g/m*3 9.8 C 0 km/h
1785 22-10-2019 05:40:00 9.8 C 8.81 g/m*3 9.8 C 0 km/h
1786 22-10-2019 05:45:00 9.9 C 8.87 g/m*3 9.9 C 0 km/h
1787 22-10-2019 05:50:00 9.9 C 8.96 g/m*3 9.9 C 0 km/h
1788 22-10-2019 05:55:00 10 C 9.02 g/m*3 10 C 0 km/h
1789 22-10-2019 06:00:00 10.1 C 9.08 g/m*3 10.1 C 0 km/h
1790 22-10-2019 06:05:00 10.1 C 9.08 g/m*3 10.1 C 0 km/h
1791 22-10-2019 06:10:00 10.1 C 9.08 g/m*3 10.1 C 0 km/h
1792 22-10-2019 06:15:00 10.1 C 9.08 g/m*3 10.1 C 0 km/h
1793 22-10-2019 06:20:00 10.1 C 9.08 g/m*3 10.1 C 0 km/h
1794 22-10-2019 06:25:00 10.1 C 9.08 g/m*3 10.1 C 0 km/h
1795 22-10-2019 06:30:00 10.1 C 9.08 g/m*3 10.1 C 0 km/h
1796 22-10-2019 06:35:00 10.1 C 9.08 g/m*3 10.1 C 0 km/h
1797 22-10-2019 06:40:00 10.1 C 9.08 g/m*3 10.1 C 0 km/h
1798 22-10-2019 06:45:00 10.1 C 9.08 g/m*3 10.1 C 0 km/h
1799 22-10-2019 06:50:00 10.1 C 9.08 g/m*3 10.1 C 0 km/h
1800 22-10-2019 06:55:00 10.1 C 9.08 g/m*3 10.1 C 0 km/h
Sensor: Nr:Datum:Temp:Abs-Feuchte:Windchill:Wind:
Aussen-T/F 1801 22-10-2019 07:00:00 10.1 C 9.08 g/m*3 10.1 C 0 km/h
1802 22-10-2019 07:05:00 10.2 C 9.14 g/m*3 10.2 C 0 km/h
1803 22-10-2019 07:10:00 10.2 C 9.14 g/m*3 10.2 C 0 km/h
1804 22-10-2019 07:15:00 10.2 C 9.14 g/m*3 10.2 C 0 km/h
1805 22-10-2019 07:20:00 10.2 C 9.14 g/m*3 10.2 C 0 km/h
1806 22-10-2019 07:25:00 10.1 C 8.98 g/m*3 10.1 C 0 km/h
1807 22-10-2019 07:30:00 9.9 C 8.87 g/m*3 9.9 C 0 km/h
1808 22-10-2019 07:35:00 9.9 C 8.87 g/m*3 9.9 C 0 km/h
1809 22-10-2019 07:40:00 9.8 C 8.81 g/m*3 9.8 C 0 km/h
1810 22-10-2019 07:45:00 9.7 C 8.76 g/m*3 9.7 C 0 km/h
1811 22-10-2019 07:50:00 9.7 C 8.76 g/m*3 9.7 C 0 km/h
1812 22-10-2019 07:55:00 9.7 C 8.76 g/m*3 9.7 C 0 km/h
1813 22-10-2019 08:00:00 9.7 C 8.85 g/m*3 9.7 C 0 km/h
1814 22-10-2019 08:05:00 9.7 C 8.85 g/m*3 9.7 C 0 km/h
1815 22-10-2019 08:10:00 9.8 C 8.91 g/m*3 9.8 C 0 km/h
1816 22-10-2019 08:15:00 9.8 C 8.91 g/m*3 9.8 C 0 km/h
1817 22-10-2019 08:20:00 9.8 C 8.91 g/m*3 9.8 C 0 km/h
1818 22-10-2019 08:25:00 9.8 C 8.91 g/m*3 9.8 C 0 km/h
1819 22-10-2019 08:30:00 9.8 C 8.91 g/m*3 9.8 C 0 km/h
1820 22-10-2019 08:35:00 9.9 C 8.96 g/m*3 9.9 C 0 km/h
1821 22-10-2019 08:40:00 9.9 C 8.96 g/m*3 9.9 C 0 km/h
1822 22-10-2019 08:45:00 10.1 C 9.08 g/m*3 10.1 C 0 km/h
1823 22-10-2019 08:50:00 10.1 C 9.08 g/m*3 10.1 C 0 km/h
1824 22-10-2019 08:55:00 10.1 C 9.08 g/m*3 10.1 C 0 km/h
1825 22-10-2019 09:00:00 10.2 C 9.14 g/m*3 10.2 C 0 km/h
Sensor: Nr:Datum:Temp:Abs-Feuchte:Windchill:Wind:
Aussen-T/F 1826 22-10-2019 09:05:00 10.2 C 9.14 g/m*3 10.2 C 0 km/h
1827 22-10-2019 09:10:00 10.3 C 9.19 g/m*3 10.3 C 0 km/h
1828 22-10-2019 09:15:00 10.3 C 9.19 g/m*3 10.3 C 0 km/h
1829 22-10-2019 09:20:00 10.4 C 9.25 g/m*3 10.4 C 4.8 km/h
1830 22-10-2019 09:25:00 10.4 C 9.25 g/m*3 10.4 C 3.2 km/h
1831 22-10-2019 09:30:00 10.4 C 9.25 g/m*3 10.4 C 4.8 km/h
1832 22-10-2019 09:35:00 10.5 C 9.31 g/m*3 10.5 C 1.6 km/h
1833 22-10-2019 09:40:00 10.6 C 9.37 g/m*3 10.6 C 0 km/h
1834 22-10-2019 09:45:00 10.6 C 9.27 g/m*3 10.6 C 0 km/h
1835 22-10-2019 09:50:00 10.7 C 9.33 g/m*3 10.7 C 0 km/h
1836 22-10-2019 09:55:00 10.7 C 9.33 g/m*3 10.7 C 0 km/h
1837 22-10-2019 10:00:00 10.8 C 9.39 g/m*3 10.8 C 0 km/h
1838 22-10-2019 10:05:00 10.8 C 9.39 g/m*3 10.8 C 1.6 km/h
1839 22-10-2019 10:10:00 10.9 C 9.45 g/m*3 10.9 C 1.6 km/h
1840 22-10-2019 10:15:00 11.1 C 9.57 g/m*3 11.1 C 3.2 km/h
1841 22-10-2019 10:20:00 11.2 C 9.53 g/m*3 11.2 C 3.2 km/h
1842 22-10-2019 10:25:00 11.3 C 9.59 g/m*3 11.3 C 3.2 km/h
1843 22-10-2019 10:30:00 11.3 C 9.59 g/m*3 11.3 C 3.2 km/h
1844 22-10-2019 10:35:00 11.5 C 9.71 g/m*3 11.5 C 3.2 km/h
1845 22-10-2019 10:40:00 11.7 C 9.83 g/m*3 11.7 C 4.8 km/h
1846 22-10-2019 10:45:00 11.8 C 9.79 g/m*3 11.8 C 6.4 km/h
1847 22-10-2019 10:50:00 11.9 C 9.74 g/m*3 11.9 C 6.4 km/h
1848 22-10-2019 10:55:00 12.1 C 9.87 g/m*3 12.1 C 6.4 km/h
1849 22-10-2019 11:00:00 12.2 C 9.82 g/m*3 12.2 C 6.4 km/h
1850 22-10-2019 11:05:00 12.4 C 9.83 g/m*3 12.4 C 6.4 km/h
Sensor: Nr:Datum:Temp:Abs-Feuchte:Windchill:Wind:
Aussen-T/F 1851 22-10-2019 11:10:00 12.6 C 9.96 g/m*3 12.6 C 9.7 km/h
1852 22-10-2019 11:15:00 12.7 C 10.02 g/m*3 12.7 C 3.2 km/h
1853 22-10-2019 11:20:00 12.7 C 9.91 g/m*3 12.7 C 4.8 km/h
1854 22-10-2019 11:25:00 12.7 C 9.8 g/m*3 12.7 C 4.8 km/h
1855 22-10-2019 11:30:00 12.8 C 9.86 g/m*3 12.8 C 4.8 km/h
1856 22-10-2019 11:35:00 12.9 C 9.81 g/m*3 12.9 C 6.4 km/h
1857 22-10-2019 11:40:00 13 C 9.87 g/m*3 13 C 1.6 km/h
1858 22-10-2019 11:45:00 13.1 C 9.93 g/m*3 13.1 C 3.2 km/h
1859 22-10-2019 11:50:00 13.1 C 9.93 g/m*3 13.1 C 3.2 km/h
1860 22-10-2019 11:55:00 13.2 C 9.87 g/m*3 13.2 C 1.6 km/h
1861 22-10-2019 12:00:00 13.2 C 9.87 g/m*3 13.2 C 1.6 km/h
1862 22-10-2019 12:05:00 13.3 C 9.94 g/m*3 13.3 C 3.2 km/h
1863 22-10-2019 12:10:00 13.3 C 10.05 g/m*3 13.3 C 1.6 km/h
1864 22-10-2019 12:15:00 13.4 C 10.11 g/m*3 13.4 C 0 km/h
1865 22-10-2019 12:20:00 13.6 C 10.24 g/m*3 13.6 C 0 km/h
1866 22-10-2019 12:25:00 13.7 C 10.3 g/m*3 13.7 C 0 km/h
1867 22-10-2019 12:30:00 13.7 C 9.95 g/m*3 13.7 C 0 km/h
1868 22-10-2019 12:35:00 13.7 C 9.83 g/m*3 13.7 C 0 km/h
1869 22-10-2019 12:40:00 13.8 C 9.89 g/m*3 13.8 C 0 km/h
1870 22-10-2019 12:45:00 13.8 C 9.89 g/m*3 13.8 C 3.2 km/h
1871 22-10-2019 12:50:00 13.9 C 9.95 g/m*3 13.9 C 0 km/h
1872 22-10-2019 12:55:00 14 C 10.01 g/m*3 14 C 3.2 km/h
1873 22-10-2019 13:00:00 14.1 C 9.95 g/m*3 14.1 C 6.4 km/h
1874 22-10-2019 13:05:00 14.2 C 10.01 g/m*3 14.2 C 1.6 km/h
1875 22-10-2019 13:10:00 14.2 C 10.01 g/m*3 14.2 C 0 km/h
Sensor: Nr:Datum:Temp:Abs-Feuchte:Windchill:Wind:
Aussen-T/F 1876 22-10-2019 13:15:00 14.3 C 10.44 g/m*3 14.3 C 0 km/h
1877 22-10-2019 13:20:00 14.3 C 10.32 g/m*3 14.3 C 1.6 km/h
1878 22-10-2019 13:25:00 14.3 C 10.2 g/m*3 14.3 C 0 km/h
1879 22-10-2019 13:55:00 15.1 C 10.06 g/m*3 15.1 C 3.2 km/h
1880 22-10-2019 14:30:00 15.1 C 9.93 g/m*3 15.1 C 3.2 km/h
1881 22-10-2019 14:35:00 15.1 C 9.93 g/m*3 15.1 C 1.6 km/h
1882 22-10-2019 14:40:00 15.1 C 9.93 g/m*3 15.1 C 1.6 km/h
1883 22-10-2019 14:45:00 15.1 C 9.93 g/m*3 15.1 C 3.2 km/h
1884 22-10-2019 14:50:00 15.1 C 10.06 g/m*3 15.1 C 4.8 km/h
1885 22-10-2019 14:55:00 15 C 10.13 g/m*3 15 C 4.8 km/h
1886 22-10-2019 15:00:00 15 C 10 g/m*3 15 C 0 km/h
1887 22-10-2019 15:05:00 15 C 10.39 g/m*3 15 C 0 km/h
1888 22-10-2019 15:10:00 15 C 10.51 g/m*3 15 C 0 km/h
1889 22-10-2019 15:15:00 14.8 C 10.26 g/m*3 14.8 C 1.6 km/h
1890 22-10-2019 15:20:00 14.7 C 9.95 g/m*3 14.7 C 1.6 km/h
1891 22-10-2019 15:25:00 14.7 C 10.07 g/m*3 14.7 C 0 km/h
1892 22-10-2019 15:30:00 14.7 C 10.32 g/m*3 14.7 C 0 km/h
1893 22-10-2019 15:35:00 14.7 C 10.45 g/m*3 14.7 C 0 km/h
1894 22-10-2019 15:40:00 14.6 C 10.51 g/m*3 14.6 C 0 km/h
1895 22-10-2019 15:45:00 14.4 C 10.38 g/m*3 14.4 C 0 km/h
1896 22-10-2019 15:50:00 14.3 C 10.44 g/m*3 14.3 C 0 km/h
1897 22-10-2019 15:55:00 14.3 C 10.44 g/m*3 14.3 C 0 km/h
1898 22-10-2019 16:00:00 14.2 C 10.38 g/m*3 14.2 C 0 km/h
1899 22-10-2019 16:05:00 14 C 10.37 g/m*3 14 C 0 km/h
1900 22-10-2019 16:10:00 14 C 10.49 g/m*3 14 C 0 km/h
Sensor: Nr:Datum:Temp:Abs-Feuchte:Windchill:Wind:
Aussen-T/F 1901 22-10-2019 16:15:00 13.9 C 10.43 g/m*3 13.9 C 0 km/h
1902 22-10-2019 16:20:00 13.9 C 10.43 g/m*3 13.9 C 0 km/h
1903 22-10-2019 16:25:00 13.8 C 10.37 g/m*3 13.8 C 0 km/h
1904 22-10-2019 16:30:00 13.8 C 10.37 g/m*3 13.8 C 0 km/h
1905 22-10-2019 16:35:00 13.7 C 10.3 g/m*3 13.7 C 0 km/h
1906 22-10-2019 16:40:00 13.6 C 10.36 g/m*3 13.6 C 0 km/h
1907 22-10-2019 16:45:00 13.6 C 10.24 g/m*3 13.6 C 0 km/h
1908 22-10-2019 16:50:00 13.5 C 10.29 g/m*3 13.5 C 0 km/h
1909 22-10-2019 16:55:00 13.4 C 10.23 g/m*3 13.4 C 0 km/h
1910 22-10-2019 17:00:00 13.4 C 10.23 g/m*3 13.4 C 0 km/h
1911 22-10-2019 17:05:00 13.3 C 10.17 g/m*3 13.3 C 0 km/h
1912 22-10-2019 17:10:00 13.3 C 10.17 g/m*3 13.3 C 0 km/h
1913 22-10-2019 17:15:00 13.4 C 10.23 g/m*3 13.4 C 0 km/h
1914 22-10-2019 17:20:00 13.4 C 10.35 g/m*3 13.4 C 0 km/h
1915 22-10-2019 17:25:00 13.5 C 10.41 g/m*3 13.5 C 0 km/h
1916 22-10-2019 17:30:00 13.5 C 10.29 g/m*3 13.5 C 0 km/h
1917 22-10-2019 17:35:00 13.4 C 10.11 g/m*3 13.4 C 0 km/h
1918 22-10-2019 17:40:00 13.3 C 10.05 g/m*3 13.3 C 0 km/h
1919 22-10-2019 17:45:00 13.2 C 9.99 g/m*3 13.2 C 0 km/h
1920 22-10-2019 17:50:00 13.1 C 10.04 g/m*3 13.1 C 0 km/h
1921 22-10-2019 17:55:00 13 C 9.98 g/m*3 13 C 1.6 km/h
1922 22-10-2019 18:00:00 12.9 C 9.92 g/m*3 12.9 C 1.6 km/h
1923 22-10-2019 18:05:00 12.8 C 9.86 g/m*3 12.8 C 3.2 km/h
1924 22-10-2019 18:10:00 12.7 C 9.68 g/m*3 12.7 C 3.2 km/h
1925 22-10-2019 18:15:00 12.7 C 9.68 g/m*3 12.7 C 1.6 km/h
Sensor: Nr:Datum:Temp:Abs-Feuchte:Windchill:Wind:
Aussen-T/F 1926 22-10-2019 18:20:00 12.6 C 9.62 g/m*3 12.6 C 1.6 km/h
1927 22-10-2019 18:25:00 12.6 C 9.62 g/m*3 12.6 C 0 km/h
1928 22-10-2019 18:30:00 12.5 C 9.57 g/m*3 12.5 C 1.6 km/h
1929 22-10-2019 18:35:00 12.4 C 9.51 g/m*3 12.4 C 0 km/h
1930 22-10-2019 18:40:00 12.4 C 9.62 g/m*3 12.4 C 0 km/h
1931 22-10-2019 18:45:00 12.4 C 9.62 g/m*3 12.4 C 1.6 km/h
1932 22-10-2019 18:50:00 12.3 C 9.45 g/m*3 12.3 C 1.6 km/h
1933 22-10-2019 18:55:00 12.3 C 9.56 g/m*3 12.3 C 0 km/h
1934 22-10-2019 19:00:00 12.3 C 9.56 g/m*3 12.3 C 0 km/h
1935 22-10-2019 19:05:00 12.2 C 9.6 g/m*3 12.2 C 0 km/h
1936 22-10-2019 19:10:00 12.1 C 9.54 g/m*3 12.1 C 0 km/h
1937 22-10-2019 19:15:00 12.1 C 9.65 g/m*3 12.1 C 0 km/h
1938 22-10-2019 19:20:00 11.9 C 9.53 g/m*3 11.9 C 0 km/h
1939 22-10-2019 19:25:00 11.8 C 9.47 g/m*3 11.8 C 0 km/h
1940 22-10-2019 19:30:00 11.7 C 9.52 g/m*3 11.7 C 0 km/h
1941 22-10-2019 19:35:00 11.6 C 9.46 g/m*3 11.6 C 0 km/h
1942 22-10-2019 19:40:00 11.4 C 9.34 g/m*3 11.4 C 0 km/h
1943 22-10-2019 19:45:00 11.3 C 9.38 g/m*3 11.3 C 0 km/h
1944 22-10-2019 19:50:00 11.3 C 9.38 g/m*3 11.3 C 0 km/h
1945 22-10-2019 19:55:00 11.2 C 9.33 g/m*3 11.2 C 0 km/h
1946 22-10-2019 20:00:00 11.2 C 9.33 g/m*3 11.2 C 0 km/h
1947 22-10-2019 20:05:00 11.1 C 9.27 g/m*3 11.1 C 0 km/h
1948 22-10-2019 20:10:00 10.9 C 9.15 g/m*3 10.9 C 0 km/h
1949 22-10-2019 20:15:00 10.8 C 9.19 g/m*3 10.8 C 0 km/h
1950 22-10-2019 20:20:00 10.8 C 9.19 g/m*3 10.8 C 0 km/h
Sensor: Nr:Datum:Temp:Abs-Feuchte:Windchill:Wind:
Aussen-T/F 1951 22-10-2019 20:25:00 10.7 C 9.13 g/m*3 10.7 C 0 km/h
1952 22-10-2019 20:30:00 10.6 C 9.08 g/m*3 10.6 C 0 km/h
1953 22-10-2019 20:35:00 10.6 C 9.17 g/m*3 10.6 C 0 km/h
1954 22-10-2019 20:40:00 10.5 C 9.12 g/m*3 10.5 C 0 km/h
1955 22-10-2019 20:45:00 10.5 C 9.12 g/m*3 10.5 C 0 km/h
1956 22-10-2019 20:50:00 10.4 C 9.06 g/m*3 10.4 C 0 km/h
1957 22-10-2019 20:55:00 10.4 C 9.06 g/m*3 10.4 C 0 km/h
1958 22-10-2019 21:00:00 10.4 C 9.06 g/m*3 10.4 C 0 km/h
1959 22-10-2019 21:05:00 10.3 C 9 g/m*3 10.3 C 0 km/h
1960 22-10-2019 21:10:00 10.3 C 9 g/m*3 10.3 C 0 km/h
1961 22-10-2019 21:15:00 10.2 C 8.95 g/m*3 10.2 C 0 km/h
1962 22-10-2019 21:20:00 10.1 C 8.89 g/m*3 10.1 C 0 km/h
1963 22-10-2019 21:25:00 10.1 C 8.98 g/m*3 10.1 C 0 km/h
1964 22-10-2019 21:30:00 10.1 C 8.98 g/m*3 10.1 C 0 km/h
1965 22-10-2019 21:35:00 10.1 C 8.98 g/m*3 10.1 C 0 km/h
1966 22-10-2019 21:40:00 10 C 8.93 g/m*3 10 C 0 km/h
1967 22-10-2019 21:45:00 10 C 8.93 g/m*3 10 C 0 km/h
1968 22-10-2019 21:50:00 10 C 8.93 g/m*3 10 C 0 km/h
1969 22-10-2019 21:55:00 9.9 C 8.87 g/m*3 9.9 C 0 km/h
1970 22-10-2019 22:00:00 10 C 8.93 g/m*3 10 C 0 km/h
1971 22-10-2019 22:05:00 10.1 C 9.08 g/m*3 10.1 C 0 km/h
1972 22-10-2019 22:10:00 10.2 C 9.14 g/m*3 10.2 C 0 km/h
1973 22-10-2019 22:15:00 10.2 C 9.14 g/m*3 10.2 C 0 km/h
1974 22-10-2019 22:20:00 10.3 C 9.19 g/m*3 10.3 C 0 km/h
1975 22-10-2019 22:25:00 10.3 C 9.19 g/m*3 10.3 C 0 km/h
Sensor: Nr:Datum:Temp:Abs-Feuchte:Windchill:Wind:
Aussen-T/F 1976 22-10-2019 22:30:00 10.3 C 9.19 g/m*3 10.3 C 0 km/h
1977 22-10-2019 22:35:00 10.3 C 9.19 g/m*3 10.3 C 0 km/h
1978 22-10-2019 22:40:00 10.2 C 9.14 g/m*3 10.2 C 0 km/h
1979 22-10-2019 22:45:00 10.2 C 9.14 g/m*3 10.2 C 0 km/h
1980 22-10-2019 22:50:00 10.2 C 9.14 g/m*3 10.2 C 0 km/h
1981 22-10-2019 22:55:00 10.2 C 9.14 g/m*3 10.2 C 0 km/h
1982 22-10-2019 23:00:00 10.2 C 9.14 g/m*3 10.2 C 0 km/h
1983 22-10-2019 23:05:00 10.2 C 9.14 g/m*3 10.2 C 0 km/h
1984 22-10-2019 23:10:00 10.2 C 9.14 g/m*3 10.2 C 0 km/h
1985 22-10-2019 23:15:00 10.1 C 9.08 g/m*3 10.1 C 0 km/h
1986 22-10-2019 23:20:00 10.1 C 9.08 g/m*3 10.1 C 0 km/h
1987 22-10-2019 23:25:00 10.1 C 9.08 g/m*3 10.1 C 0 km/h
1988 22-10-2019 23:30:00 9.9 C 8.96 g/m*3 9.9 C 0 km/h
1989 22-10-2019 23:35:00 9.8 C 8.91 g/m*3 9.8 C 0 km/h
1990 22-10-2019 23:40:00 9.7 C 8.76 g/m*3 9.7 C 0 km/h
1991 22-10-2019 23:45:00 9.6 C 8.7 g/m*3 9.6 C 0 km/h
1992 22-10-2019 23:50:00 9.5 C 8.74 g/m*3 9.5 C 0 km/h
1993 22-10-2019 23:55:00 9.4 C 8.59 g/m*3 9.4 C 0 km/h

Legende:
   Min
   Max


Maximal/Minimal-Werte vom 16.10.2019 - 22.10.2019

Sensor Min Max Avg
Temp
(Aussen-T/F)
8.9 °C
19-10-2019  00:00:00
17.4 °C
19-10-2019  15:30:00
13.08 °C
Abs-Feuchte
(Aussen-T/F)
8.25 g/m*3
18-10-2019  21:30:00
12.64 g/m*3
21-10-2019  13:05:00
10.62 g/m*3
Windchill
(Aussen-T/F)
8.9 C
19-10-2019  00:00:00
17.4 C
19-10-2019  15:30:00
13.07 C

Die Daten stammen von einer Davis Vantage Pro 2 Wetter-Station und werden unter Linux mit der Software wview2wettercgi und aufbereitet. Alle Angaben erfolgen ohne Gewähr für ihre Vollständigkeit oder Richtigkeit.
Kontakt: Rainer Krienke krienke@uni-koblenz.de . Meine Webseiten an der Uni Koblenz oder privat.
Version: $Revision: 0.78 $